[[{"header":{"parameterUnit":"m.s-1","parameterCategory":1,"la1":31.0,"la2":29.5877,"lo1":-88.7671,"lo2":-86.6584,"dy":0.0162,"dx":0.0185,"nx":115,"ny":88,"refTime":"2023-05-06T00:00:00:Z","depth":0,"parameterNumber":2,"parameterNumberName":"U-component_of_WINDS"},"data":[0.0,0.0,0.0,0.0,0.0,0.0,0.0,0.0,0.0,0.0,0.0,0.0,0.0,0.0,0.0,0.0,0.0,0.0,0.0,0.0,0.0,0.0,0.0,0.0,0.0,0.0,0.0,0.0,0.0,0.0,0.0,0.0,0.0,0.0,0.0,0.0,0.0,0.0,0.0,0.0,0.0,0.0,0.0,0.0,0.0,0.0,0.0,0.0,0.0,0.0,0.0,0.0,0.0,0.0,0.0,0.0,0.0,0.0,0.0,0.0,0.0,0.0,0.0,0.0,0.0,0.0,0.0,0.0,0.0,0.0,0.0,0.0,0.0,0.0,0.0,0.0,0.0,0.0,0.0,0.0,0.0,0.0,0.0,0.0,0.0,0.0,0.0,0.0,0.0,0.0,0.0,0.0,0.0,0.0,0.0,0.0,0.0,0.0,0.0,0.0,0.0,0.0,0.0,0.0,0.0,0.0,0.0,0.0,0.0,0.0,0.0,0.0,0.0,0.0,0.0,0.0,0.0,0.0,0.0,0.0,0.0,0.0,0.0,0.0,0.0,0.0,0.0,0.0,0.0,0.0,0.0,0.0,0.0,0.0,0.0,0.0,0.0,0.0,0.0,0.0,0.0,0.0,0.0,0.0,0.0,0.0,0.0,0.0,0.0,0.0,0.0,0.0,0.0,0.0,0.0,0.0,0.0,0.0,0.0,0.0,0.0,0.0,0.0,0.0,0.0,0.0,0.0,0.0,0.0,0.0,0.0,0.0,0.0,0.0,0.0,0.0,0.0,0.0,0.0,0.0,0.0,0.0,0.0,0.0,0.0,0.0,0.0,0.0,0.0,0.0,0.0,0.0,0.0,0.0,0.0,0.0,0.0,0.0,0.0,0.0,0.0,0.0,0.0,0.0,0.0,0.0,0.0,0.0,0.0,0.0,0.0,0.0,0.0,0.0,0.0,0.0,0.0,0.0,0.0,0.0,0.0,0.0,0.0,0.0,0.0,0.0,0.0,0.0,0.0,0.0,0.0,0.0,0.0,0.0,0.0,0.0,0.0,0.0,0.0,0.0,0.0,0.0,0.0,0.0,0.0,0.0,0.0,0.0,0.0,0.0,0.0,0.0,0.0,0.0,0.0,0.0,0.0,0.0,0.0,0.0,0.0,0.0,0.0,0.0,0.0,0.0,0.0,0.0,0.0,0.0,0.0,0.0,0.0,0.0,0.0,0.0,0.0,0.0,0.0,0.0,0.0,0.0,0.0,0.0,0.0,0.0,0.0,0.0,0.0,0.0,0.0,0.0,0.0,0.0,0.0,0.0,0.0,0.0,0.0,0.0,0.0,0.0,0.0,0.0,0.0,0.0,0.0,0.0,0.0,0.0,0.0,0.0,0.0,0.0,0.0,0.0,0.0,0.0,0.0,0.0,0.0,0.0,0.0,0.0,0.0,0.0,0.0,0.0,0.0,0.0,0.0,0.0,0.0,0.0,0.0,0.0,0.0,0.0,0.0,0.0,0.0,0.0,0.0,0.0,0.0,0.0,0.0,0.0,0.0,0.0,0.0,0.0,0.0,0.0,0.0,0.0,0.0,0.0,0.0,0.0,0.0,0.0,0.0,0.0,0.0,0.0,0.0,0.0,0.0,0.0,0.0,0.0,0.0,0.0,0.0,0.0,0.0,0.0,0.0,0.0,0.0,0.0,0.0,0.0,0.0,0.0,0.0,0.0,0.0,0.0,0.0,0.0,0.0,0.0,0.0,0.0,0.0,0.0,0.0,0.0,0.0,0.0,0.0,0.0,0.0,0.0,0.0,0.0,0.0,0.0,0.0,0.0,0.0,0.0,0.0,0.0,0.0,0.0,0.0,0.0,0.0,0.0,0.0,0.0,0.0,0.0,0.0,0.0,0.0,0.0,0.0,0.0,0.0,0.0,0.0,0.0,0.0,0.0,0.0,0.0,0.0,0.0,0.0,0.0,0.0,0.0,0.0,0.0,0.0,0.0,0.0,0.0,0.0,0.0,0.0,0.0,0.0,0.0,0.0,0.0,0.0,0.0,0.0,0.0,0.0,0.0,0.0,0.0,0.0,0.0,0.0,0.0,0.0,0.0,0.0,0.0,0.0,0.0,0.0,0.0,0.0,0.0,0.0,0.0,0.0,0.0,0.0,0.0,0.0,0.0,0.0,0.0,0.0,0.0,0.0,0.0,0.0,0.0,0.0,0.0,0.0,0.0,0.0,0.0,0.0,0.0,0.0,0.0,0.0,0.0,0.0,0.0,0.0,0.0,0.0,0.0,0.0,0.0,0.0,0.0,0.0,0.0,0.0,0.0,0.0,0.0,0.0,0.0,0.0,0.0,0.0,0.0,0.0,0.0,0.0,0.0,0.0,0.0,0.0,0.0,0.0,0.0,0.0,0.0,0.0,0.0,0.0,0.0,0.0,0.0,0.0,0.0,0.0,0.0,0.0,0.0,0.0,0.0,0.0,0.0,0.0,0.0,0.0,0.0,0.0,0.0,0.0,0.0,0.0,0.0,0.0,0.0,0.0,0.0,0.0,0.0,0.0,0.0,0.0,0.0,0.0,0.0,0.0,0.0,0.0,0.0,0.0,0.0,0.0,0.0,0.0,0.0,0.0,0.0,0.0,0.0,0.0,0.0,0.0,0.0,0.0,0.0,0.0,0.0,0.0,0.0,0.0,0.0,0.0,0.0,0.0,0.0,0.0,0.0,0.0,0.0,0.0,0.0,0.0,0.0,0.0,0.0,0.0,0.0,0.0,0.0,0.0,0.0,0.0,0.0,0.0,0.0,0.0,0.0,0.0,0.0,0.0,0.0,0.0,0.0,0.0,0.0,0.0,0.0,0.0,0.0,0.0,0.0,0.0,0.0,0.0,0.0,0.0,0.0,0.0,0.0,0.0,0.0,0.0,0.0,0.0,0.0,0.0,0.0,0.0,0.0,0.0,0.0,0.0,0.0,0.0,0.0,0.0,0.0,0.0,0.0,0.0,0.0,0.0,0.0,0.0,0.0,0.0,0.0,0.0,0.0,0.0,0.0,0.0,0.0,0.0,0.0,0.0,0.0,0.0,0.0,0.0,0.0,0.0,0.0,0.0,0.0,0.0,0.0,0.0,0.0,0.0,0.0,0.0,0.0,0.0,0.0,0.0,0.0,0.0,0.0,0.0,0.0,0.0,0.0,0.0,0.0,0.0,0.0,0.0,0.0,0.0,0.0,0.0,0.0,0.0,0.0,0.0,0.0,0.0,0.0,0.0,0.0,0.0,0.0,0.0,0.0,0.0,0.0,0.0,0.0,0.0,0.0,0.0,0.0,0.0,0.0,0.0,0.0,0.0,0.0,0.0,0.0,0.0,0.0,0.0,0.0,0.0,0.0,0.0,0.0,0.0,0.0,0.0,0.0,0.0,0.0,0.0,0.0,0.0,0.0,0.0,0.0,0.0,0.0,0.0,0.0,0.0,0.0,0.0,0.0,0.0,0.0,0.0,0.0,0.0,0.0,0.0,0.0,0.0,0.0,0.0,0.0,0.0,0.0,0.0,0.0,0.0,0.0,0.0,0.0,0.0,0.0,0.0,0.0,0.0,0.0,0.0,0.0,0.0,0.0,0.0,0.0,0.0,0.0,0.0,0.0,0.0,0.0,0.0,0.0,0.0,0.0,0.0,0.0,0.0,0.0,0.0,0.0,0.0,0.0,0.0,0.0,0.0,0.0,0.0,0.0,0.0,0.0,0.0,0.0,0.0,0.0,0.0,0.0,0.0,0.0,0.0,0.0,0.0,0.0,0.0,0.0,0.0,0.0,0.0,0.0,0.0,0.0,0.0,0.0,0.0,0.0,0.0,0.0,0.0,0.0,0.0,0.0,0.0,0.0,0.0,0.0,0.0,0.0,0.0,0.0,0.0,0.0,0.0,0.0,0.0,0.0,0.0,0.0,0.0,0.0,0.0,0.0,0.0,0.0,0.0,0.0,0.0,0.0,0.0,0.0,0.0,0.0,0.0,0.0,0.0,0.0,0.0,0.0,0.0,0.0,0.0,0.0,0.0,0.0,0.0,0.0,0.0,0.0,0.0,0.0,0.0,0.0,0.0,0.0,0.0,0.0,0.0,0.0,0.0,0.0,0.0,0.0,0.0,0.0,0.0,0.0,0.0,0.0,0.0,0.0,0.0,0.0,0.0,0.0,0.0,0.0,0.0,0.0,0.0,0.0,0.0,0.0,0.0,0.0,0.0,0.0,0.0,0.0,0.0,0.0,0.0,0.0,0.0,0.0,-0.6808,0.0,0.0,0.0,0.0,0.0,0.0,0.0,0.0,0.0,0.0,0.0,0.0,0.0,0.0,0.0,0.0,0.0,0.0,0.0,0.0,0.0,0.0,0.0,0.0,0.0,0.0,0.0,0.0,0.0,0.0,0.0,0.0,0.0,0.0,0.0,0.0,0.0,0.0,0.0,0.0,0.0,0.0,0.0,0.0,0.0,0.0,0.0,0.0,0.0,0.0,0.0,0.0,0.0,0.0,0.0,0.0,0.0,0.0,0.0,0.0,0.0,0.0,0.0,0.0,0.0,0.0,0.0,0.0,0.0,0.0,0.0,0.0,0.0,0.0,0.0,0.0,0.0,0.0,0.0,0.0,0.0,0.0,0.0,0.0,0.0,0.0,0.0,0.0,0.0,0.0,0.0,0.0,0.0,0.0,0.0,0.0,0.0,0.0,0.0,0.0,0.0,0.0,0.0,0.0,0.0,0.0,0.0,0.0,0.0,0.0,-0.6291,-0.6447,-0.6553,-0.6702,-0.6899,0.0,0.0,0.0,0.0,0.0,0.0,0.0,0.0,0.0,0.0,0.0,0.0,0.0,0.0,0.0,0.0,0.0,0.0,0.0,0.0,0.0,0.0,0.0,0.0,0.0,0.0,0.0,0.0,0.0,0.0,0.0,0.0,0.0,0.0,0.0,0.0,0.0,0.0,0.0,0.0,0.0,0.0,0.0,0.0,0.0,0.0,0.0,0.0,0.0,0.0,0.0,0.0,0.0,0.0,0.0,0.0,0.0,0.0,0.0,0.0,0.0,0.0,0.0,0.0,0.0,0.0,0.0,0.0,0.0,0.0,0.0,0.0,0.0,0.0,0.0,0.0,0.0,0.0,0.0,0.0,0.0,0.0,0.0,0.0,0.0,0.0,0.0,0.0,0.0,0.0,0.0,0.0,0.0,0.0,0.0,0.0,0.0,0.0,0.0,0.0,0.0,0.0,0.0,0.0,0.0,0.0,0.0,0.0,0.0,0.0,0.0,0.0,-0.6676,-0.6793,-0.6956,0.0,0.0,0.0,0.0,0.0,0.0,0.0,0.0,0.0,0.0,0.0,0.0,0.0,0.0,0.0,0.0,0.0,0.0,0.0,0.0,0.0,0.0,0.0,0.0,0.0,0.0,0.0,0.0,0.0,0.0,0.0,0.0,0.0,0.0,0.0,0.0,0.0,0.0,0.0,0.0,0.0,0.0,0.0,0.0,0.0,0.0,0.0,0.0,0.0,0.0,0.0,0.0,0.0,0.0,0.0,0.0,0.0,0.0,0.0,0.0,0.0,0.0,0.0,0.0,0.0,0.0,0.0,0.0,0.0,0.0,0.0,0.0,0.0,0.0,0.0,0.0,0.0,0.0,0.0,0.0,0.0,0.0,0.0,0.0,0.0,0.0,0.0,0.0,0.0,0.0,0.0,0.0,0.0,0.0,0.0,0.0,0.0,0.0,0.0,0.0,0.0,0.0,0.0,0.0,0.0,0.0,0.0,0.0,0.0,0.0,-0.6591,-0.7026,-0.6827,0.0,-0.7153,0.0,0.0,0.0,0.0,0.0,0.0,0.0,0.0,0.0,0.0,0.0,0.0,0.0,0.0,0.0,0.0,0.0,0.0,0.0,0.0,0.0,0.0,0.0,0.0,0.0,0.0,0.0,0.0,0.0,0.0,0.0,0.0,0.0,0.0,0.0,0.0,0.0,0.0,0.0,0.0,0.0,0.0,0.0,0.0,0.0,0.0,0.0,0.0,0.0,0.0,0.0,0.0,0.0,0.0,0.0,0.0,0.0,0.0,0.0,0.0,0.0,0.0,0.0,0.0,0.0,0.0,0.0,0.0,0.0,0.0,0.0,0.0,0.0,0.0,0.0,0.0,0.0,0.0,0.0,0.0,0.0,0.0,0.0,0.0,0.0,0.0,0.0,0.0,0.0,0.0,0.0,0.0,0.0,0.0,0.0,0.0,0.0,0.0,0.0,0.0,0.0,0.0,0.0,0.0,0.0,0.0,0.0,0.0,0.0,0.0,-0.6718,-0.7099,-0.7163,-0.7251,0.0,0.0,0.0,0.0,0.0,0.0,0.0,0.0,0.0,0.0,0.0,0.0,0.0,0.0,0.0,0.0,0.0,0.0,0.0,0.0,0.0,0.0,0.0,0.0,0.0,0.0,0.0,0.0,0.0,0.0,0.0,0.0,0.0,0.0,0.0,0.0,0.0,0.0,0.0,0.0,0.0,0.0,0.0,0.0,0.0,0.0,0.0,0.0,0.0,0.0,0.0,0.0,0.0,0.0,0.0,0.0,0.0,0.0,0.0,0.0,0.0,0.0,0.0,0.0,0.0,0.0,0.0,0.0,0.0,0.0,0.0,0.0,0.0,0.0,0.0,0.0,0.0,0.0,0.0,0.0,0.0,0.0,0.0,0.0,0.0,0.0,0.0,0.0,0.0,0.0,0.0,0.0,0.0,0.0,0.0,0.0,0.0,0.0,0.0,0.0,0.0,0.0,0.0,0.0,0.0,0.0,0.0,0.0,0.0,0.0,-0.6392,-0.6807,-0.719,-0.756,-0.7711,-0.76,0.0,0.0,0.0,0.0,0.0,0.0,0.0,0.0,0.0,0.0,0.0,0.0,0.0,0.0,0.0,0.0,0.0,0.0,0.0,0.0,0.0,0.0,0.0,0.0,0.0,0.0,0.0,0.0,0.0,0.0,0.0,0.0,0.0,0.0,0.0,0.0,0.0,0.0,0.0,0.0,0.0,0.0,0.0,0.0,0.0,0.0,0.0,0.0,0.0,0.0,0.0,0.0,0.0,0.0,0.0,0.0,0.0,0.0,0.0,0.0,0.0,0.0,0.0,0.0,0.0,0.0,0.0,0.0,0.0,0.0,0.0,0.0,0.0,0.0,0.0,0.0,0.0,0.0,0.0,0.0,0.0,0.0,0.0,0.0,0.0,0.0,0.0,0.0,0.0,0.0,0.0,0.0,0.0,0.0,0.0,0.0,0.0,0.0,0.0,0.0,0.0,0.0,0.0,0.0,0.0,0.0,0.0,0.0,-0.6009,-0.6392,-0.6868,-0.7468,-0.806,-0.8118,0.0,0.0,0.0,0.0,0.0,0.0,0.0,0.0,0.0,0.0,0.0,0.0,0.0,0.0,0.0,0.0,0.0,0.0,0.0,0.0,0.0,0.0,0.0,0.0,0.0,0.0,0.0,0.0,0.0,0.0,0.0,0.0,0.0,0.0,0.0,0.0,0.0,0.0,0.0,0.0,0.0,0.0,0.0,0.0,0.0,0.0,0.0,0.0,0.0,0.0,0.0,0.0,0.0,0.0,0.0,0.0,0.0,0.0,0.0,0.0,0.0,0.0,0.0,0.0,0.0,0.0,0.0,0.0,0.0,0.0,0.0,0.0,0.0,0.0,0.0,0.0,0.0,0.0,0.0,0.0,0.0,0.0,0.0,0.0,0.0,0.0,0.0,0.0,0.0,0.0,0.0,0.0,0.0,0.0,0.0,0.0,0.0,0.0,0.0,0.0,0.0,0.0,0.0,0.0,0.0,0.0,0.0,0.0,0.0,-0.5879,-0.6681,-0.743,-0.8044,-0.8176,-0.8121,0.0,0.0,0.0,0.0,0.0,0.0,0.0,0.0,0.0,0.0,0.0,0.0,0.0,0.0,0.0,0.0,0.0,0.0,0.0,0.0,0.0,0.0,0.0,0.0,0.0,0.0,0.0,0.0,0.0,0.0,0.0,0.0,0.0,0.0,0.0,0.0,0.0,0.0,0.0,0.0,0.0,0.0,0.0,0.0,0.0,0.0,0.0,0.0,0.0,0.0,0.0,0.0,0.0,0.0,0.0,0.0,0.0,0.0,0.0,0.0,0.0,0.0,0.0,0.0,0.0,0.0,0.0,0.0,0.0,0.0,0.0,0.0,0.0,0.0,0.0,0.0,0.0,0.0,0.0,0.0,0.0,0.0,0.0,0.0,0.0,0.0,0.0,0.0,0.0,0.0,0.0,0.0,0.0,0.0,0.0,0.0,0.0,0.0,0.0,0.0,0.0,0.0,0.0,0.0,0.0,0.0,0.0,0.0,0.0,-0.6141,0.0,-0.7791,-0.8356,-0.8313,-0.8225,0.0,0.0,0.0,0.0,0.0,0.0,0.0,0.0,0.0,0.0,0.0,0.0,0.0,0.0,0.0,0.0,0.0,0.0,0.0,0.0,0.0,0.0,0.0,0.0,0.0,0.0,0.0,0.0,0.0,0.0,0.0,0.0,0.0,0.0,0.0,0.0,0.0,0.0,0.0,0.0,0.0,0.0,0.0,0.0,0.0,0.0,0.0,0.0,0.0,0.0,0.0,0.0,0.0,0.0,0.0,0.0,0.0,0.0,0.0,0.0,0.0,0.0,0.0,0.0,0.0,0.0,0.0,0.0,0.0,0.0,0.0,0.0,0.0,0.0,0.0,0.0,0.0,0.0,0.0,0.0,0.0,0.0,0.0,0.0,0.0,0.0,0.0,0.0,0.0,0.0,0.0,0.0,0.0,0.0,0.0,0.0,0.0,0.0,0.0,0.0,0.0,0.0,0.0,0.0,0.0,0.0,0.0,0.0,-0.5832,-0.6774,-0.7473,-0.8005,-0.8388,-0.8527,-0.8553,0.0,0.0,0.0,0.0,0.0,0.0,0.0,0.0,0.0,0.0,0.0,0.0,0.0,0.0,0.0,0.0,0.0,0.0,0.0,0.0,0.0,0.0,0.0,0.0,0.0,0.0,0.0,0.0,0.0,0.0,0.0,0.0,0.0,0.0,0.0,0.0,0.0,0.0,0.0,0.0,0.0,0.0,0.0,0.0,0.0,0.0,0.0,0.0,0.0,0.0,0.0,0.0,0.0,0.0,0.0,0.0,0.0,0.0,0.0,0.0,0.0,0.0,0.0,0.0,0.0,0.0,0.0,0.0,0.0,0.0,0.0,0.0,0.0,0.0,0.0,0.0,0.0,0.0,0.0,0.0,0.0,0.0,0.0,0.0,0.0,0.0,0.0,0.0,0.0,0.0,0.0,0.0,0.0,0.0,0.0,0.0,0.0,0.0,0.0,0.0,0.0,0.0,0.0,0.0,0.0,0.0,0.0,0.0,0.0,-0.7338,-0.7812,-0.8275,-0.8669,-0.8798,-0.8711,0.0,0.0,0.0,0.0,0.0,0.0,0.0,0.0,0.0,0.0,0.0,0.0,0.0,0.0,0.0,0.0,0.0,0.0,0.0,0.0,0.0,0.0,0.0,0.0,0.0,0.0,0.0,0.0,0.0,0.0,0.0,0.0,0.0,0.0,0.0,0.0,0.0,0.0,0.0,0.0,0.0,0.0,0.0,0.0,0.0,0.0,0.0,0.0,0.0,0.0,0.0,0.0,0.0,0.0,0.0,0.0,0.0,0.0,0.0,0.0,0.0,0.0,0.0,0.0,0.0,0.0,0.0,0.0,0.0,0.0,0.0,0.0,0.0,0.0,0.0,0.0,0.0,0.0,0.0,0.0,0.0,0.0,0.0,0.0,0.0,0.0,0.0,0.0,0.0,0.0,0.0,0.0,0.0,0.0,0.0,0.0,0.0,0.0,0.0,0.0,0.0,0.0,0.0,0.0,0.0,0.0,0.0,0.0,0.0,-0.8207,-0.8403,-0.863,-0.8928,-0.8991,-0.8915,-0.8685,0.0,0.0,0.0,0.0,0.0,0.0,0.0,0.0,0.0,0.0,0.0,0.0,0.0,0.0,0.0,0.0,0.0,0.0,0.0,0.0,0.0,0.0,0.0,0.0,0.0,0.0,0.0,0.0,0.0,0.0,0.0,0.0,0.0,0.0,0.0,0.0,0.0,0.0,0.0,0.0,0.0,0.0,0.0,0.0,0.0,0.0,0.0,0.0,0.0,0.0,0.0,0.0,0.0,0.0,0.0,0.0,0.0,0.0,0.0,0.0,0.0,0.0,0.0,0.0,0.0,0.0,0.0,0.0,0.0,0.0,0.0,0.0,0.0,0.0,0.0,0.0,0.0,0.0,0.0,0.0,0.0,0.0,0.0,0.0,0.0,0.0,0.0,0.0,0.0,0.0,0.0,0.0,0.0,0.0,0.0,0.0,0.0,0.0,0.0,0.0,0.0,0.0,0.0,0.0,0.0,0.0,0.0,0.0,-0.9306,-0.9163,-0.9172,-0.9246,-0.9159,-0.9131,0.0,0.0,0.0,0.0,0.0,0.0,0.0,0.0,0.0,0.0,0.0,0.0,0.0,0.0,0.0,0.0,0.0,0.0,0.0,0.0,0.0,0.0,0.0,0.0,0.0,0.0,0.0,0.0,0.0,0.0,0.0,0.0,0.0,0.0,0.0,0.0,0.0,0.0,0.0,0.0,0.0,0.0,0.0,0.0,0.0,0.0,0.0,0.0,0.0,0.0,0.0,0.0,0.0,0.0,0.0,0.0,0.0,0.0,0.0,0.0,0.0,0.0,0.0,0.0,0.0,0.0,0.0,0.0,0.0,0.0,0.0,0.0,0.0,0.0,0.0,0.0,0.0,0.0,0.0,0.0,0.0,0.0,0.0,0.0,0.0,0.0,0.0,0.0,0.0,0.0,0.0,0.0,0.0,0.0,0.0,0.0,0.0,0.0,0.0,0.0,0.0,0.0,0.0,0.0,0.0,0.0,0.0,0.0,0.0,-0.9559,-1.0112,-1.0218,-0.9812,-1.0038,-0.9884,0.0,0.0,0.0,0.0,0.0,0.0,0.0,0.0,0.0,0.0,0.0,0.0,0.0,0.0,0.0,0.0,0.0,0.0,0.0,0.0,0.0,0.0,0.0,0.0,0.0,0.0,0.0,0.0,0.0,0.0,0.0,0.0,0.0,0.0,0.0,0.0,0.0,0.0,0.0,0.0,0.0,0.0,0.0,0.0,0.0,0.0,0.0,0.0,0.0,0.0,0.0,0.0,0.0,0.0,0.0,0.0,0.0,0.0,0.0,0.0,0.0,0.0,0.0,0.0,0.0,0.0,0.0,0.0,0.0,0.0,0.0,0.0,0.0,0.0,0.0,0.0,0.0,0.0,0.0,0.0,0.0,0.0,0.0,0.0,0.0,0.0,0.0,0.0,0.0,0.0,0.0,0.0,0.0,0.0,0.0,0.0,0.0,0.0,0.0,0.0,0.0,0.0,0.0,0.0,0.0,0.0,0.0,0.0,-0.9356,-1.0208,-1.0697,-1.083,-1.0541,-1.049,-1.0113,0.0,0.0,0.0,0.0,0.0,0.0,0.0,0.0,0.0,0.0,0.0,0.0,0.0,0.0,0.0,0.0,0.0,0.0,0.0,0.0,0.0,0.0,0.0,0.0,0.0,0.0,0.0,0.0,0.0,0.0,0.0,0.0,0.0,0.0,0.0,0.0,0.0,0.0,0.0,0.0,0.0,0.0,0.0,0.0,0.0,0.0,0.0,0.0,0.0,0.0,0.0,0.0,0.0,0.0,0.0,0.0,0.0,0.0,0.0,0.0,0.0,0.0,0.0,0.0,0.0,0.0,0.0,0.0,0.0,0.0,0.0,0.0,0.0,0.0,0.0,0.0,0.0,0.0,0.0,0.0,0.0,0.0,0.0,0.0,0.0,0.0,0.0,0.0,0.0,0.0,0.0,0.0,0.0,0.0,0.0,0.0,0.0,0.0,0.0,0.0,0.0,0.0,0.0,0.0,0.0,0.0,0.0,0.0,-0.9937,-1.1068,-1.1062,-1.117,-1.1321,-1.0708,-1.0123,0.0,0.0,0.0,0.0,0.0,0.0,0.0,0.0,0.0,0.0,0.0,0.0,0.0,0.0,0.0,0.0,0.0,0.0,0.0,0.0,0.0,0.0,0.0,0.0,0.0,0.0,0.0,0.0,0.0,0.0,0.0,0.0,0.0,0.0,0.0,0.0,0.0,0.0,0.0,0.0,0.0,0.0,0.0,0.0,0.0,0.0,0.0,0.0,0.0,0.0,0.0,0.0,0.0,0.0,0.0,0.0,0.0,0.0,0.0,0.0,0.0,0.0,0.0,0.0,0.0,0.0,0.0,0.0,0.0,0.0,0.0,0.0,0.0,0.0,0.0,0.0,0.0,0.0,0.0,0.0,0.0,0.0,0.0,0.0,0.0,0.0,0.0,0.0,0.0,0.0,0.0,0.0,0.0,0.0,0.0,0.0,0.0,0.0,0.0,0.0,0.0,0.0,0.0,0.0,0.0,0.0,0.0,0.0,-1.0471,-1.167,-1.1596,-1.162,-1.1771,-1.1118,-1.0506,0.0,0.0,0.0,0.0,0.0,0.0,0.0,0.0,0.0,0.0,0.0,0.0,0.0,0.0,0.0,0.0,0.0,0.0,0.0,0.0,0.0,0.0,0.0,0.0,0.0,0.0,0.0,0.0,0.0,0.0,0.0,0.0,0.0,0.0,0.0,0.0,0.0,0.0,0.0,0.0,0.0,0.0,0.0,0.0,0.0,0.0,0.0,0.0,0.399,0.0,0.0,0.0,0.0,0.0,0.0,0.0,0.0,0.0,0.0,0.0,0.0,0.0,0.0,0.0,0.0,0.0,0.0,0.0,0.0,0.0,0.0,0.0,0.0,0.0,0.0,0.0,0.0,0.0,0.0,0.0,0.0,0.0,0.0,0.0,0.0,0.0,0.0,0.0,0.0,0.0,0.0,0.0,0.0,0.0,0.0,0.0,0.0,0.0,0.0,0.0,0.0,0.0,0.0,0.0,0.0,0.0,0.0,0.0,-1.1154,-1.2011,-1.1891,-1.1885,-1.2005,-1.1116,-1.0412,0.0,0.0,0.0,0.0,0.0,0.0,0.0,0.0,0.0,0.0,0.0,0.0,0.0,0.0,0.0,0.0,0.0,0.0,0.0,0.0,0.0,0.0,0.0,0.0,0.0,0.0,0.0,0.0,0.0,0.0,0.0,0.0,0.0,0.0,0.0,0.0,0.0,0.0,0.0,0.0,0.0,0.0,0.0,0.0,0.0,0.0,0.0,0.0,0.0,0.0,0.0,0.0,0.0,0.0,0.0,0.0,0.0,0.0,0.0,0.0,0.0,0.0,0.0,0.0,0.0,0.0,0.0,0.0,0.0,0.0,0.0,0.0,0.0,0.0,0.0,0.0,0.0,0.0,0.0,0.0,0.0,0.0,0.0,0.0,0.0,0.0,0.0,0.0,0.0,0.0,0.0,0.0,0.0,0.0,0.0,0.0,0.0,0.0,0.0,0.0,0.0,0.0,0.0,0.0,0.0,0.0,0.0,-1.0929,-1.1809,-1.228,-1.2067,-1.2061,-1.2247,-1.0996,-1.0196,-0.9961,0.0,0.0,0.0,0.0,0.0,0.0,0.0,0.0,0.0,0.0,0.0,0.0,0.0,0.0,0.0,0.0,0.0,0.0,0.0,0.0,0.0,0.0,0.0,0.0,0.0,0.0,0.0,0.0,0.0,0.0,0.0,0.0,0.0,0.0,0.0,0.0,0.0,0.0,0.1731,0.2245,0.0,0.0,0.0,0.0,0.0,0.0,0.0,0.0,0.3868,0.0,0.0,0.0,0.0,0.0,0.0,0.0,0.0,0.0,0.0,0.0,0.0,0.0,0.0,0.0,0.0,0.0,0.0,0.0,0.0,0.0,0.0,0.0,0.0,0.0,0.0,0.0,0.0,0.0,0.0,0.0,0.0,0.0,0.0,0.0,0.0,0.0,0.0,0.0,0.0,0.0,0.0,0.0,0.0,0.0,0.0,0.0,0.0,0.0,0.0,0.0,0.0,0.0,0.0,0.0,0.0,-0.9922,-1.1287,-1.2239,-1.2759,-1.2356,-1.2272,-1.2463,-1.1082,-1.0274,-1.0196,0.0,0.0,0.0,0.0,0.0,0.0,0.0,0.0,0.0,0.0,0.0,0.0,0.0,0.0,0.0,0.0,0.0,0.0,0.0,0.0,0.0,0.0,0.0,0.0,0.0,0.0,0.0,0.0,0.0,0.0,0.0,0.0,0.0,0.0,0.0,0.0,0.0,0.0,0.0,0.2205,0.2424,0.0,0.0,0.0,0.0,0.0,0.0,0.0,0.0,0.3641,0.0,0.0,0.0,0.0,0.0,0.0,0.0,0.0,0.0,0.0,0.0,0.0,0.0,0.0,0.0,0.0,0.0,0.0,0.0,0.0,0.0,0.0,0.0,0.0,0.0,0.0,0.0,0.0,0.0,0.0,0.0,0.0,0.0,0.0,0.0,0.0,0.0,0.0,0.0,0.0,0.0,0.0,0.0,0.0,0.0,0.0,0.0,0.0,0.0,0.0,0.0,0.0,0.0,0.0,0.0,-1.0344,-1.1625,-1.2425,-1.2655,-1.2383,-1.2267,-1.2369,-1.1033,-1.0263,0.0,0.0,0.0,0.0,0.0,0.0,0.0,0.0,0.0,0.0,0.0,0.0,0.0,0.0,0.0,0.0,0.0,0.0,0.0,0.0,0.0,0.0,0.0,0.0,0.0,0.0,0.0,0.0,0.0,0.0,0.0,0.0,0.0,0.0,0.0,0.0,0.0,0.0,0.0,0.0,0.207,0.2253,0.237,0.0,0.0,0.0,0.0,0.0,0.0,0.3396,0.3401,0.0,0.0,0.0,0.0,0.0,0.0,0.0,0.0,0.0,0.0,0.0,0.0,0.0,0.0,0.0,0.0,0.0,0.0,0.0,0.0,0.0,0.0,0.0,0.0,0.0,0.0,0.0,0.0,0.0,0.0,0.0,0.0,0.0,0.0,0.0,0.0,0.0,0.0,0.0,0.0,0.0,0.0,0.0,0.0,0.0,0.0,0.0,0.0,0.0,0.0,0.0,0.0,0.0,0.0,0.0,-1.0714,-1.1948,-1.2536,-1.2497,-1.2312,-1.2158,-1.2107,-1.0972,-1.0229,0.0,0.0,0.0,0.0,0.0,0.0,0.0,0.0,0.0,0.0,0.0,0.0,0.0,0.0,0.0,0.0,0.0,0.0,0.0,0.0,0.0,0.0,0.0,0.0,0.0,0.0,0.0,0.0,0.0,0.0,0.0,0.0,0.0,0.0,0.0,0.0,0.0,0.0,0.0,0.0,0.0,0.208,0.2152,0.246,0.0,0.0,0.0,0.0,0.3317,0.3212,0.0,0.0,0.0,0.0,0.0,0.0,0.0,0.0,0.0,0.0,0.0,0.0,0.0,0.0,0.0,0.0,0.0,0.0,0.0,0.0,0.0,0.0,0.0,0.0,0.0,0.0,0.0,0.0,0.0,0.0,0.0,0.0,0.0,0.0,0.0,0.0,0.0,0.0,0.0,0.0,0.0,0.0,0.0,0.0,0.0,0.0,0.0,0.0,0.0,0.0,0.0,0.0,0.0,0.0,0.0,0.0,-1.1134,-1.2231,-1.2676,-1.2523,-1.2305,-1.2126,-1.1914,-1.0863,-1.0229,0.0,0.0,0.0,0.0,0.0,0.0,0.0,0.0,0.0,0.0,0.0,0.0,0.0,0.0,0.0,0.0,0.0,0.0,0.0,0.0,0.0,0.0,0.0,0.0,0.0,0.0,0.0,0.0,0.0,0.0,0.0,0.0,0.0,0.0,0.0,0.0,0.0,0.0,0.0,0.0,0.0,0.1906,0.2104,0.2362,0.2548,0.0,0.0,0.2957,0.3122,0.3122,0.0,0.0,0.0,0.0,0.0,0.0,0.0,0.0,0.0,0.0,0.0,0.0,0.0,0.0,0.0,0.0,0.0,0.0,0.0,0.0,0.0,0.0,0.0,0.0,0.0,0.0,0.0,0.0,0.0,0.0,0.0,0.0,0.0,0.0,0.0,0.0,0.0,0.0,0.0,0.0,0.0,0.0,0.0,0.0,0.0,0.0,0.0,0.0,0.0,0.0,0.0,0.0,0.0,0.0,0.0,-1.0314,-1.1189,-1.2058,-1.2417,-1.2229,-1.201,-1.1828,-1.1639,-1.0671,-1.0095,0.0,0.0,0.0,0.0,0.0,0.0,0.0,0.0,0.0,0.0,0.0,0.0,0.0,0.0,0.0,0.0,0.0,0.0,0.0,0.0,0.0,0.0,0.0,0.0,0.0,0.0,0.0,0.0,0.0,0.0,0.0,0.0,0.0,0.0,0.0,0.0,0.0,0.0,0.0,0.0,0.0,0.0,0.1638,0.1833,0.0,0.0,0.0,0.2533,0.2762,0.0,0.0,0.0,0.0,0.0,0.0,0.0,0.0,0.0,0.0,0.0,0.0,0.0,0.0,0.0,0.0,0.0,0.0,0.0,0.0,0.0,0.0,0.0,0.0,0.0,0.0,0.0,0.0,0.0,0.0,0.0,0.0,0.0,0.0,0.0,0.0,0.0,0.0,0.0,0.0,0.0,0.0,0.0,0.0,0.0,0.0,0.0,0.0,0.0,0.0,0.0,0.0,0.0,0.0,0.0,0.0,0.0,-1.1189,-1.1896,-1.2114,-1.1935,-1.1781,-1.1589,-1.1323,-1.0539,0.0,0.0,0.0,0.0,0.0,0.0,0.0,0.0,0.0,0.0,0.0,0.0,0.0,0.0,0.0,0.0,0.0,0.0,0.0,0.0,0.0,0.0,0.0,0.0,0.0,0.0,0.0,0.0517,0.0,0.0,0.0,0.0,0.0,0.0,0.0,0.0,0.0,0.0,0.0,0.0,0.0,0.0,0.1272,0.1271,0.1449,0.1622,0.0,0.0,0.2166,0.2444,0.2335,0.2291,0.0,0.0,0.0,0.0,0.0,0.0,0.0,0.0,0.0,0.0,0.0,0.0,0.0,0.0,0.0,0.0,0.0,0.0,0.0,0.0,0.0,0.0,0.0,0.0,0.0,0.0,0.0,0.0,0.0,0.0,0.0,0.0,0.0,0.0,0.0,0.0,0.0,0.0,0.0,0.0,0.0,0.0,0.0,0.0,0.0,0.0,0.0,0.0,0.0,0.0,0.0,0.0,0.0,0.0,-1.0261,-1.1189,-1.1758,-1.1929,-1.1706,-1.1706,-1.1521,-1.1099,-1.0468,-0.9997,0.0,0.0,0.0,0.0,0.0,0.0,0.0,0.0,0.0,0.0,0.0,0.0,0.0,0.0,0.0,0.0,0.0,0.0,0.0,0.0,0.0,0.0,0.0,0.0,0.0,0.0,0.0,0.0,0.0,0.0,0.0,0.0,0.0,0.0,0.0,0.0,0.0,0.0,0.0,0.0,0.0,0.1283,0.1223,0.1324,0.1488,0.0,0.1811,0.1977,0.2129,0.2232,0.2291,0.2222,0.0,0.0,0.0,0.0,0.0,0.0,0.0,0.0,0.0,0.0,0.0,0.0,0.0,0.0,0.0,0.0,0.0,0.0,0.0,0.0,0.0,0.0,0.0,0.0,0.0,0.0,0.0,0.0,0.0,0.0,0.0,0.0,0.0,0.0,0.0,0.0,0.0,0.0,0.0,0.0,0.0,0.0,0.0,0.0,0.0,0.0,0.0,0.0,0.0,0.0,0.0,0.0,0.0,-1.0196,-1.1018,-1.1868,-1.2154,-1.1911,-1.196,-1.1746,-1.1298,-1.055,-1.0042,0.0,0.0,0.0,0.0,0.0,0.0,0.0,0.0,0.0,0.0,0.0,0.0,0.0,0.0,0.0,0.0,0.0,0.0,0.0,0.0,0.0,0.0,0.0,0.0,0.0,0.0,0.0,0.0,0.0072,-0.0048,-0.0094,0.0,0.0,0.0,0.0,0.0,0.0,0.0,0.0,0.0,0.0,0.0773,0.0881,0.0975,0.0,0.0,0.149,0.1642,0.1871,0.1902,0.1907,0.2111,0.2384,0.0,0.0,0.0,0.0,0.0,0.0,0.0,0.0,0.0,0.0,0.0,0.0,0.0,0.0,0.0,0.0,0.0,0.0,0.0,0.0,0.0,0.0,0.0,0.0,0.0,0.0,0.0,0.0,0.0,0.0,0.0,0.0,0.0,0.0,0.0,0.0,0.0,0.0,0.0,0.0,0.0,0.0,0.0,0.0,0.0,0.0,0.0,0.0,0.0,0.0,0.0,0.0,-1.0282,-1.1035,-1.1993,-1.2406,-1.2146,-1.2164,-1.198,-1.1546,-1.0723,-1.0175,0.0,0.0,0.0,0.0,0.0,0.0,0.0,0.0,0.0,0.0,0.0,0.0,0.0,0.0,0.0,0.0,0.0,0.0,0.0,0.0,0.0,0.0,0.0,0.0,0.0,0.0,0.0,0.0,-0.0344,-0.0466,-0.0455,0.0,0.0,0.0,0.0,0.0,0.0,0.0,0.0,0.0,0.0,0.045,0.0575,0.0687,0.0863,0.1126,0.1249,0.1371,0.1655,0.1721,0.1821,0.2087,0.0,0.0,0.0,0.0,0.0,0.0,0.0,0.0,0.0,0.0,0.0,0.0,0.0,0.0,0.0,0.0,0.0,0.0,0.0,0.0,0.0,0.0,0.0,0.0,0.0,0.0,0.0,-0.9515,0.0,0.0,-0.8093,0.0,0.0,0.0,0.0,0.0,0.0,0.0,0.0,0.0,0.0,0.0,0.0,0.0,0.0,0.0,0.0,0.0,0.0,0.0,0.0,0.0,0.0,-1.0557,-1.128,-1.2097,-1.2511,-1.2497,-1.2312,-1.2126,-1.1902,-1.0978,-1.0406,-1.0178,0.0,0.0,0.0,0.0,0.0,0.0,0.0,0.0,0.0,0.0,0.0,0.0,0.0,0.0,0.0,0.0,0.0,0.0,0.0,0.0,0.0,0.0,0.0,0.0,0.0,0.0,-0.0656,-0.0732,-0.074,0.0,0.0,0.0,0.0,0.0,0.0,0.0,0.0,0.0,0.0,0.0333,0.0374,0.032,0.0535,0.0721,0.0805,0.1073,0.1332,0.1489,0.1761,0.2032,0.0,0.0,0.0,0.0,0.0,0.0,0.0,0.0,0.0,0.0,0.0,0.0,0.0,0.0,0.0,0.0,0.0,0.0,0.0,0.0,0.0,0.0,0.0,0.0,0.0,0.0,0.0,-1.1316,-1.0974,0.0,0.0,0.0,0.0,0.0,0.0,0.0,0.0,0.0,0.0,0.0,-1.3994,-1.4112,0.0,0.0,0.0,0.0,0.0,0.0,0.0,0.0,0.0,0.0,0.0,0.0,-1.087,-1.1786,-1.2453,-1.2831,-1.2955,-1.2935,-1.2652,-1.2093,-1.1543,-1.0789,-0.9801,0.0,0.0,0.0,0.0,0.0,0.0,0.0,0.0,0.0,0.0,0.0,0.0,0.0,0.0,0.0,0.0,0.0,0.0,0.0,0.0,0.0,0.0,0.0,0.0,0.0,-0.103,0.0,0.0,0.0,0.0,0.0,0.0,0.0,0.0,0.0,0.0,0.0,0.0117,0.0061,0.0094,0.016,0.029,0.0456,0.0625,0.0,0.0,0.0,0.0,0.0,0.0,0.0,0.0,0.0,0.0,0.0,0.0,0.0,0.0,0.554,0.5525,0.5505,0.5551,0.5828,0.0,0.0,0.0,0.0,0.0,0.0,0.0,0.0,0.0,0.0,0.0,0.0,0.0,0.0,-1.3071,0.0,-1.2457,0.0,0.0,0.0,0.0,0.0,0.0,0.0,0.0,-1.5594,-1.6099,-1.6233,-1.6345,-1.6203,0.0,-1.4958,-1.369,0.0,0.0,0.0,0.0,0.0,0.0,0.0,0.0,-1.1543,-1.2309,-1.2896,-1.32,-1.3327,-1.3297,-1.3056,-1.2496,-1.1813,-1.0895,-0.9734,-0.8767,-0.7913,0.0,0.0,0.0,0.0,0.0,0.0,0.0,0.0,0.0,0.0,0.0,0.0,0.0,0.0,0.0,0.0,0.0,0.0,0.0,0.0,0.0,0.0,0.0,-0.1615,0.0,0.0,0.0,0.0,0.0,0.0,0.0,0.0,0.0,-0.0029,0.0,0.0,0.0,0.0,0.0033,0.0164,0.0,0.0,0.0,0.0,0.0,0.0,0.0,0.2187,0.2854,0.3338,0.3825,0.434,0.4795,0.5245,0.5531,0.0,0.0,0.5788,0.5748,0.584,0.6101,0.6282,0.6424,0.6457,0.6878,0.7294,0.0,0.0,0.0,0.0,0.0,0.0,0.0,0.0,-1.5262,-1.5127,0.0,-1.4587,0.0,0.0,0.0,0.0,-1.3979,-1.5323,0.0,0.0,-1.7609,-1.8158,-1.85,-1.87,-1.8307,-1.7392,-1.7017,-1.6296,-1.52,-1.2673,0.0,0.0,0.0,0.0,0.0,0.0,-1.2584,-1.2824,-1.334,-1.36,-1.3613,-1.3449,-1.3244,-1.2959,-1.1845,-1.0836,-0.9991,-0.9348,-0.8604,-0.7677,-0.6913,0.0,0.0,0.0,0.0,0.0,0.0,0.0,0.0,0.0,0.0,0.0,0.0,0.0,0.0,0.0,0.0,0.0,0.0,0.0,0.0,-0.2168,0.0,0.0,0.0,0.0,0.0,0.0,0.0,0.0,0.0,0.0,-0.0062,0.0,0.0,0.0,0.0,0.0,0.0,0.0,0.0292,0.0486,0.0633,0.0952,0.1607,0.1992,0.2372,0.2856,0.0,0.0,0.4887,0.5135,0.5355,0.5706,0.5818,0.5895,0.6082,0.6258,0.6418,0.6568,0.6781,0.6956,0.7036,0.7155,0.7324,-2.0966,0.0,0.0,0.0,0.0,-1.7725,-1.7719,-1.767,-1.7553,-1.7428,-1.723,-1.6592,0.0,0.0,0.0,0.0,0.0,0.0,-1.7765,-1.861,-1.9112,-1.9359,-1.9516,-1.9549,-1.9445,-1.9114,-1.8492,-1.7976,-1.7631,-1.6005,-1.4498,-1.3152,0.0,0.0,0.0,0.0,-1.3481,-1.3626,-1.3824,-1.3905,-1.3961,-1.3919,-1.3605,-1.3026,-1.2037,-1.1218,-1.0619,-0.9866,-0.9036,-0.8186,-0.7493,0.0,0.0,0.0,0.0,0.0,0.0,0.0,0.0,0.0,0.0,0.0,0.0,0.0,0.0,0.0,0.0,0.0,0.0,0.0,-0.2388,-0.2392,-0.2402,0.0,0.0,0.0,0.0,0.0,0.0,0.0,0.0,0.0,-0.0242,-0.0102,0.0,0.0,0.0,0.0,0.0,0.0136,0.0342,0.0548,0.0726,0.0,0.16,0.189,0.2307,0.3124,0.3982,0.468,0.5138,0.5366,0.5568,0.5835,0.6125,0.632,0.6338,0.6277,0.6298,0.6531,0.6796,0.7032,0.7305,0.7618,0.7906,-2.3665,-2.1863,-2.1039,-2.0282,-1.9626,-1.9543,-1.9439,-1.9325,-1.9112,-1.8988,-1.8821,-1.8399,-1.8031,-1.77,-1.7242,0.0,0.0,0.0,-1.9288,-2.013,-2.0458,-2.0771,-2.1068,-2.1077,-2.0952,-2.0703,-2.0016,-1.9496,-1.9127,-1.807,-1.6927,-1.5623,0.0,0.0,-1.421,-1.4205,-1.4216,-1.4231,-1.4193,-1.4179,-1.4195,-1.4033,-1.3648,-1.3032,-1.2267,-1.1597,-1.1029,-1.0255,-0.9526,-0.8776,-0.8024,-0.7247,0.0,0.0,0.0,0.0,0.0,0.0,0.0,0.0,0.0,0.0,0.0,-0.2724,-0.2761,0.0,0.0,0.0,-0.2857,-0.2833,-0.2912,-0.2951,0.0,0.0,0.0,0.0,0.0,0.0,0.0,-0.1633,-0.1208,-0.0847,-0.0588,-0.036,-0.0177,0.0,0.0,0.0,0.0,0.0,0.0285,0.0569,0.0721,0.1024,0.1627,0.1924,0.2424,0.3398,0.4149,0.4696,0.5124,0.5475,0.5792,0.6002,0.6341,0.6603,0.6563,0.6456,0.6426,0.6695,0.7,0.7297,0.7561,0.7824,0.8092,-2.5554,-2.5118,-2.3509,-2.2324,-2.1432,-2.102,-2.0859,-2.0817,-2.0382,-2.0193,-2.015,-2.0114,-1.9831,-1.9407,-1.9413,0.0,-1.9502,-2.0045,-2.075,-2.15,-2.1733,-2.219,-2.2895,-2.2904,-2.2618,-2.2051,-2.1508,-2.0783,-1.998,-1.9312,-1.8787,-1.8327,-1.669,-1.5568,-1.5027,-1.5065,-1.4976,-1.4732,-1.4587,-1.4495,-1.4397,-1.3955,-1.3487,-1.3064,-1.2588,-1.1994,-1.1298,-1.0614,-0.9974,-0.9353,-0.8566,-0.775,-0.6941,0.0,0.0,0.0,0.0,0.0,0.0,0.0,0.0,0.0,0.0,0.0,0.0,0.0,0.0,0.0,-0.3585,0.0,-0.3647,-0.3647,0.0,0.0,0.0,-0.3028,-0.295,-0.2531,-0.2191,-0.204,0.0,0.0,-0.0946,-0.0759,-0.0489,-0.011,-0.0037,-0.0037,0.0,0.0,0.0146,0.0512,0.0586,0.0888,0.159,0.2049,0.2595,0.3544,0.4118,0.456,0.4956,0.5482,0.5922,0.6133,0.6453,0.6677,0.6715,0.6709,0.6774,0.6961,0.7315,0.7641,0.7698,0.7867,0.8094,-2.6406,-2.5651,-2.5191,-2.4392,-2.3412,-2.3095,-2.2949,-2.2958,-2.263,-2.2483,-2.2465,-2.198,-2.1237,-2.0438,-2.0141,-2.0339,-2.0897,-2.1225,-2.1797,-2.25,-2.2574,-2.2721,-2.2904,-2.2913,-2.2802,-2.2664,-2.2368,-2.2035,-2.1602,-2.081,-2.0263,-1.99,-1.86,-1.7608,-1.6885,-1.6682,-1.6369,-1.5987,-1.5581,-1.5111,-1.4502,-1.4153,-1.388,-1.3555,-1.307,-1.2507,-1.1802,-1.1109,-1.035,-0.9562,-0.8896,-0.8279,-0.7564,-0.6655,0.0,0.0,0.0,0.0,0.0,0.0,0.0,0.0,0.0,-0.3479,-0.3612,0.0,-0.3729,0.0,-0.3938,-0.3966,-0.3966,-0.3963,0.0,0.0,-0.3729,-0.3548,-0.3358,-0.299,-0.2637,-0.2334,-0.1943,-0.1553,-0.1243,-0.0974,-0.0738,-0.0502,-0.0342,-0.0186,0.0,0.0,0.0075,0.0338,0.0495,0.0812,0.136,0.214,0.2843,0.3485,0.4135,0.4626,0.4868,0.5371,0.5823,0.6036,0.6347,0.6646,0.6832,0.6916,0.698,0.7061,0.7155,0.7315,0.7731,0.7893,0.8055,-2.6832,-2.6124,-2.6124,-2.5605,-2.4791,-2.4114,-2.3868,-2.3868,-2.3579,-2.3392,-2.328,-2.2787,-2.2272,-2.1753,-2.1535,-2.1626,-2.2071,-2.219,-2.2574,-2.316,-2.3178,-2.3261,-2.3483,-2.3492,-2.3483,-2.3483,-2.306,-2.273,-2.2464,-2.1665,-2.1088,-2.0766,-1.9959,-1.9212,-1.8531,-1.7575,-1.6947,-1.6603,-1.5976,-1.5297,-1.4529,-1.4362,-1.4087,-1.3695,-1.3249,-1.2735,-1.2138,-1.1398,-1.0691,-0.9898,-0.9296,-0.8668,-0.797,-0.7146,-0.6475,0.0,0.0,0.0,0.0,0.0,0.0,0.0,0.0,0.0,0.0,0.0,-0.4201,-0.4295,-0.4329,-0.4364,-0.4364,-0.4364,-0.4328,-0.4217,-0.4145,-0.398,-0.373,-0.3405,-0.3065,-0.276,-0.2347,-0.2011,-0.1724,-0.1414,-0.114,-0.0943,-0.0699,-0.0459,-0.0189,-0.0038,0.0077,0.027,0.0467,0.0825,0.1454,0.2159,0.2824,0.3262,0.3878,0.4382,0.4713,0.5256,0.5704,0.5918,0.6362,0.6716,0.6813,0.6994,0.7095,0.7119,0.7054,0.7282,0.7786,0.7978,0.8147,-2.6976,-2.6496,-2.6496,-2.6159,-2.5635,-2.4686,-2.432,-2.4311,-2.403,-2.3739,-2.3495,-2.3184,-2.3071,-2.3071,-2.3026,-2.3026,-2.3081,-2.3081,-2.3292,-2.3659,-2.3669,-2.3862,-2.4242,-2.4192,-2.4211,-2.4192,-2.3599,-2.3152,-2.2841,-2.2202,-2.17,-2.1278,-2.0903,-2.048,-1.9939,-1.8206,-1.7122,-1.6825,-1.6106,-1.538,-1.4636,-1.4556,-1.4266,-1.3796,-1.3307,-1.2867,-1.2388,-1.1678,-1.0983,-1.0317,-0.9723,-0.9043,-0.8277,-0.769,-0.7057,0.0,-0.5967,0.0,0.0,0.0,0.0,0.0,0.0,0.0,0.0,-0.4665,-0.4734,-0.4736,-0.4734,-0.4736,-0.4734,-0.4736,-0.4663,-0.4515,-0.4439,-0.4331,-0.4013,-0.3798,-0.3522,-0.3212,-0.2824,-0.251,-0.2235,-0.1924,-0.165,-0.1375,-0.1099,-0.0823,-0.0431,-0.0196,0.0039,0.0236,0.0471,0.0864,0.1611,0.2158,0.2588,0.2989,0.3576,0.4036,0.4451,0.5076,0.5572,0.5837,0.6349,0.6738,0.6792,0.6966,0.7095,0.7095,0.7082,0.7254,0.7705,0.7969,0.8248,-2.6976,-2.6496,-2.6496,-2.6169,-2.5674,-2.546,-2.5392,-2.5392,-2.5092,-2.4841,-2.4569,-2.4201,-2.4012,-2.3993,-2.3702,-2.3739,-2.4012,-2.4021,-2.4237,-2.4632,-2.4417,-2.4365,-2.444,-2.4301,-2.4211,-2.4202,-2.407,-2.3746,-2.3281,-2.285,-2.253,-2.2262,-2.1243,-2.0768,-2.0827,0.0,0.0,0.0,-1.6352,-1.5787,-1.5263,-1.4763,-1.4446,-1.4342,-1.3681,0.0,-1.2839,-1.2192,-1.1502,-1.0789,-1.0357,0.0,0.0,0.0,0.0,0.0,0.0,0.0,0.0,0.0,0.0,0.0,-0.5331,-0.5167,-0.479,-0.4879,-0.4947,-0.495,-0.4947,-0.4947,-0.4947,-0.4947,-0.4911,-0.487,-0.4752,-0.4606,-0.4513,-0.4085,-0.3744,-0.3682,-0.3255,-0.2863,-0.251,-0.2353,-0.212,-0.161,-0.1375,-0.114,-0.0825,-0.0471,-0.0157,0.0039,0.0354,0.0786,0.1336,0.1885,0.2353,0.2679,0.3458,0.4039,0.4226,0.4884,0.5466,0.5684,0.6151,0.6564,0.6748,0.6969,0.7095,0.7095,0.7095,0.7187,0.7503,0.7768,0.8028,-2.6976,-2.6496,-2.6496,-2.6169,0.0,-2.5684,-2.5684,-2.5693,-2.5538,-2.5333,-2.5069,-2.4723,-2.458,-2.4619,-2.4392,-2.442,-2.4571,-2.4629,-2.4694,-2.4883,-2.4735,-2.4637,-2.448,-2.4381,-2.4291,-2.4211,-2.4211,-2.4003,-2.3587,-2.326,-2.2962,-2.2787,-2.186,-2.1337,-2.1147,-1.9452,-1.7995,-1.6831,-1.6528,-1.6042,-1.5437,-1.511,-1.481,-1.4486,-1.3937,0.0,0.0,0.0,0.0,0.0,0.0,0.0,0.0,-0.9028,0.0,-0.7879,-0.737,-0.6903,-0.6479,-0.639,-0.6234,-0.5969,-0.5739,-0.5473,-0.5105,-0.5156,-0.5192,-0.5192,-0.5192,-0.5189,-0.5192,-0.5189,-0.5167,-0.511,-0.502,-0.4881,-0.4711,-0.4426,-0.4155,-0.396,-0.3647,-0.3295,-0.2824,-0.2588,-0.2315,-0.1807,-0.1573,-0.1297,-0.0943,-0.055,-0.0196,0.0079,0.0393,0.0786,0.1218,0.1728,0.2158,0.2525,0.318,0.3768,0.4078,0.4701,0.528,0.5547,0.5947,0.6302,0.6567,0.6789,0.701,0.7095,0.7095,0.7139,0.7323,0.7632,0.794,-2.7023,-2.6602,-2.6506,-2.6217,-2.5771,-2.5742,-2.5684,-2.5684,-2.5684,0.0,0.0,-2.5137,-2.503,-2.503,-2.5039,-2.5039,-2.5039,-2.5039,-2.5039,-2.5039,-2.4981,-2.4833,-2.4627,-2.4529,-2.439,-2.4251,-2.4202,-2.4053,-2.3805,-2.3546,-2.3297,-2.2946,-2.2333,-2.1644,-2.0866,-1.948,-1.8126,-1.6804,-1.6637,-1.6235,-1.5524,-1.5424,-1.5164,-1.4683,-1.4081,-1.3595,-1.3144,-1.2659,-1.214,-1.1688,-1.1312,-1.0919,-1.0465,-0.9816,-0.92,-0.8628,-0.8258,-0.7851,-0.7315,-0.715,-0.6912,-0.6479,-0.6071,-0.5772,-0.5499,-0.5413,-0.5413,-0.5413,-0.5413,-0.541,-0.5413,-0.541,-0.5369,-0.523,-0.5259,-0.5138,-0.4854,-0.4737,-0.458,-0.4298,-0.4012,-0.3684,-0.3297,-0.2863,-0.2473,-0.2082,-0.1807,-0.1415,-0.0943,-0.0511,-0.0196,0.0157,0.0432,0.0746,0.11,0.1572,0.1964,0.232,0.2885,0.3425,0.3926,0.4469,0.4933,0.528,0.5725,0.608,0.6387,0.6656,0.6836,0.7051,0.7095,0.7095,0.7139,0.7544,0.794,-2.7119,-2.6853,-2.6602,-2.6352,-2.6062,-2.583,-2.5684,-2.5684,-2.5684,-2.5684,-2.5635,-2.5586,-2.5586,-2.5586,-2.5586,-2.5586,-2.5586,-2.5586,-2.5596,-2.5586,-2.5333,-2.5235,-2.5186,-2.4735,-2.448,-2.443,-2.4301,-2.4053,-2.3805,-2.3555,-2.3247,-2.2946,-2.2182,-2.114,-1.9923,-1.9556,-1.8795,-1.7422,-1.6861,-1.6325,-1.5765,-1.5518,-1.5364,-1.5257,-1.4333,-1.3779,-1.369,-1.3028,-1.2439,-1.1946,-1.1722,-1.1348,-1.0695,-1.0029,-0.9526,-0.9246,-0.8509,-0.8057,-0.7975,-0.7439,-0.6958,-0.6616,-0.6504,-0.6248,-0.5719,-0.5499,-0.5413,-0.5413,-0.5424,-0.5413,-0.5413,-0.5421,-0.5377,-0.5388,-0.5385,-0.5336,-0.5265,-0.5022,-0.4846,-0.4763,-0.4365,-0.3964,-0.3694,-0.326,-0.2826,-0.2472,-0.2043,-0.1533,-0.0866,-0.0471,-0.0236,0.0039,0.0354,0.0589,0.0786,0.1258,0.169,0.1964,0.2409,0.2964,0.3468,0.4028,0.4515,0.4994,0.545,0.5899,0.6296,0.6612,0.6833,0.7054,0.7095,0.7095,0.7139,0.754,0.79,-2.7119,-2.69,-2.6602,-2.6342,-2.6052,-2.583,-2.5684,-2.5684,-2.5684,-2.5684,-2.5684,-2.5684,-2.5684,-2.5684,-2.5684,-2.5684,-2.5684,-2.5684,-2.5684,-2.5684,-2.5586,-2.544,-2.5294,-2.4883,-2.4637,-2.448,-2.4291,-2.4102,-2.3994,-2.3605,-2.3356,-2.3155,-2.2182,-2.1135,-2.0127,-1.9747,-1.8975,-1.7794,-1.7148,-1.6601,-1.6066,-1.5778,-1.5551,-1.5404,-1.4657,-1.4186,-1.3989,-1.3286,-1.283,-1.2588,-1.2269,-1.1888,-1.1414,-1.0884,-1.038,-0.9916,-0.9286,-0.8777,-0.8389,-0.7714,-0.7185,-0.6904,-0.6779,-0.6536,-0.6128,-0.5909,-0.5737,-0.5567,-0.5564,-0.5567,-0.5564,-0.5567,-0.5542,-0.5474,-0.5466,-0.5439,-0.5379,-0.5284,-0.5123,-0.4989,-0.4617,-0.4236,-0.3918,-0.3442,-0.2943,-0.255,-0.2082,-0.15,-0.0879,-0.0601,-0.0359,-0.0039,0.0278,0.0477,0.0591,0.1061,0.1533,0.1848,0.2283,0.2769,0.3261,0.3808,0.434,0.4833,0.5279,0.5716,0.6296,0.6476,0.6697,0.7054,0.7095,0.7095,0.7183,0.754,0.794,-2.7167,-2.6938,-2.6651,-2.6314,-2.6014,-2.5781,-2.5684,-2.5684,-2.5684,-2.5684,-2.5684,-2.5684,-2.5684,-2.5684,-2.5684,-2.5684,-2.5684,-2.5684,-2.5684,-2.5684,-2.5684,-2.5586,-2.5382,-2.5079,-2.4784,-2.4587,-2.435,-2.4211,-2.4152,-2.3655,-2.3247,-2.2946,-2.208,-2.1224,-2.0403,-1.9893,-1.9102,-1.814,-1.7583,-1.6995,-1.6321,-1.6046,-1.5798,-1.5471,-1.5001,-1.4576,-1.4268,-1.3568,-1.3137,-1.3077,-1.2699,-1.2347,-1.2,-1.1553,-1.1025,-1.0419,-0.9907,-0.9297,-0.8548,-0.794,-0.7459,-0.7187,-0.701,-0.6745,-0.6432,-0.6257,-0.6038,-0.5777,-0.5677,-0.5683,-0.5677,-0.568,-0.565,-0.5559,-0.5548,-0.5516,-0.5469,-0.547,-0.5367,-0.5186,-0.4933,-0.4537,-0.4121,-0.363,-0.3119,-0.2559,-0.2034,-0.1529,-0.1103,-0.0782,-0.0491,-0.0161,0.0122,0.0365,0.0597,0.0951,0.1384,0.1812,0.2191,0.2661,0.318,0.3739,0.4265,0.4736,0.5127,0.5578,0.6207,0.6428,0.6605,0.7007,0.7095,0.7139,0.7319,0.7632,0.8032,-2.7309,-2.7167,-2.6688,-2.6217,-2.5781,-2.5684,-2.5684,-2.5684,-2.5684,-2.5684,-2.5713,-2.5684,-2.5703,-2.5684,-2.5684,-2.5684,-2.5684,-2.5684,-2.5684,-2.5684,-2.5684,-2.5693,-2.5596,-2.5128,-2.4883,-2.4784,-2.4399,-2.4211,-2.4152,-2.3655,-2.2896,-2.192,-2.1522,-2.096,-2.0181,-1.9849,-1.9213,-1.8373,-1.8051,-1.741,-1.6355,-1.6253,-1.6092,-1.5744,-1.5058,-1.4678,-1.464,-1.389,-1.3324,-1.3107,-1.2889,-1.254,-1.204,-1.1553,-1.1117,-1.0646,-0.9994,-0.9205,-0.8332,-0.7984,-0.7727,-0.7503,-0.719,-0.6874,-0.6473,-0.6384,-0.6169,-0.5822,-0.5688,-0.5688,-0.5688,-0.5688,-0.5683,-0.5664,-0.5661,-0.5667,-0.5634,-0.5556,-0.5491,-0.5448,-0.5212,-0.4931,-0.4601,-0.4168,-0.3497,-0.2531,-0.2113,-0.1705,-0.1133,-0.0808,-0.0599,-0.0337,0.0,0.0333,0.0571,0.0771,0.1207,0.1742,0.193,0.2349,0.2997,0.3392,0.3769,0.461,0.4985,0.5403,0.6074,0.6428,0.6564,0.6962,0.7139,0.7228,0.7676,0.7856,0.8076,-2.732,-2.7262,-2.6736,-2.6217,-2.5732,-2.5684,-2.5684,-2.5703,-2.6016,-2.6113,-2.6152,-2.6377,-2.6221,-2.5693,-2.5684,-2.5684,-2.5684,-2.5684,-2.5684,-2.5684,-2.5684,-2.5684,-2.5645,-2.5137,-2.4892,-2.4833,-2.439,-2.4211,-2.4102,-2.3646,-2.2795,-2.1776,-2.1428,-2.0909,-2.0138,-1.968,-1.9108,-1.8422,-1.8154,-1.762,-1.6908,-1.6496,-1.6219,-1.6031,-1.533,-1.4952,-1.4879,-1.4167,-1.3701,-1.3586,-1.3351,-1.2995,-1.2483,-1.2114,-1.163,-1.0877,-0.9973,-0.9122,-0.8464,-0.8116,-0.7768,-0.7507,-0.7234,-0.6918,-0.6473,-0.6428,-0.6213,-0.5822,-0.5688,-0.5688,-0.5688,-0.5688,-0.5688,-0.5688,-0.5688,-0.5688,-0.5688,-0.5645,-0.5615,-0.5607,-0.5332,-0.5049,-0.4787,-0.4149,-0.3365,-0.2565,-0.2146,-0.1776,-0.1114,-0.0822,-0.0654,-0.0393,-0.0088,0.0259,0.0587,0.0706,0.1068,0.1536,0.1845,0.2173,0.2681,0.3207,0.3668,0.4469,0.4819,0.5356,0.6254,0.6384,0.6564,0.6918,0.7139,0.7275,0.7812,0.79,0.808,-2.732,-2.7214,-2.6726,-2.6207,-2.5732,-2.5684,-2.5684,-2.5742,-2.6201,-2.6387,-2.6435,-2.6836,-2.668,-2.6093,-2.6035,-2.6035,-2.6025,-2.5918,-2.5869,-2.5898,-2.5752,-2.5684,-2.5547,-2.5128,-2.4833,-2.4735,-2.4399,-2.4102,-2.3945,-2.3605,-2.2846,-2.1827,-2.1369,-2.0806,-2.0138,-1.9532,-1.8959,-1.8422,-1.8115,-1.775,-1.728,-1.6824,-1.6482,-1.6273,-1.559,-1.5166,-1.5083,-1.4401,-1.3978,-1.3906,-1.3725,-1.3358,-1.2825,-1.2614,-1.2064,-1.106,-1.0032,-0.9256,-0.8806,-0.823,-0.786,-0.7598,-0.7275,-0.6918,-0.6517,-0.6428,-0.6213,-0.5777,-0.5688,-0.5688,-0.5688,-0.5688,-0.5688,-0.5688,-0.5688,-0.5688,-0.5688,-0.5688,-0.5686,-0.568,-0.5429,-0.5162,-0.4805,-0.4066,-0.3262,-0.2662,-0.2274,-0.1805,-0.118,-0.0834,-0.0618,-0.0402,-0.0179,0.0177,0.06,0.0723,0.0968,0.145,0.1806,0.2081,0.2492,0.3031,0.3644,0.4389,0.471,0.526,0.603,0.6343,0.6564,0.6918,0.7139,0.7275,0.7808,0.79,0.812,-2.732,-2.7214,-2.6688,-2.6217,-2.5684,-2.5684,-2.5684,-2.5723,-2.6221,-2.6396,-2.6465,-2.6885,-2.7012,-2.6953,-2.6963,-2.6902,-2.6885,-2.6523,-2.6338,-2.6289,-2.5947,-2.5596,-2.5284,-2.503,-2.4784,-2.4538,-2.4301,-2.3954,-2.3497,-2.3397,-2.2837,-2.1725,-2.1224,-2.066,-2.0086,-1.9331,-1.8757,-1.8429,-1.8115,-1.7845,-1.7568,-1.73,-1.6884,-1.6304,-1.5771,-1.5337,-1.5067,-1.458,-1.4165,-1.3924,-1.39,-1.3547,-1.2917,-1.278,-1.2169,-1.1099,-1.0218,-0.9572,-0.9149,-0.8483,-0.8024,-0.7845,-0.7415,-0.6918,-0.6473,-0.6428,-0.621,-0.5735,-0.5688,-0.5688,-0.5688,-0.5688,-0.5688,-0.5688,-0.5688,-0.5688,-0.5688,-0.5688,-0.5688,-0.5644,-0.5447,-0.5166,-0.4734,-0.4071,-0.3426,-0.2891,-0.2453,-0.1919,-0.1204,-0.0849,-0.0627,-0.0403,-0.0134,0.0178,0.0568,0.0695,0.0989,0.144,0.1805,0.2093,0.2578,0.3113,0.374,0.4299,0.4726,0.5218,0.5897,0.6346,0.6609,0.6918,0.7095,0.7319,0.772,0.7856,0.8076,-2.7119,-2.6784,-2.6592,-2.6169,-2.5684,-2.5684,-2.5684,-2.5762,-2.6484,-2.6797,-2.6914,-2.7519,-2.7832,-2.7832,-2.7832,-2.7529,-2.7041,-2.6846,-2.665,-2.6396,-2.6221,-2.5858,-2.5294,-2.503,-2.4784,-2.448,-2.4291,-2.3895,-2.3447,-2.3406,-2.2846,-2.1776,-2.1173,-2.066,-2.0034,-1.9101,-1.8482,-1.8377,-1.795,-1.7694,-1.7582,-1.7475,-1.7103,-1.6344,-1.5789,-1.5314,-1.4844,-1.4496,-1.4256,-1.4159,-1.4159,-1.388,-1.3265,-1.2502,-1.1833,-1.119,-1.0292,-0.9756,-0.9497,-0.8661,-0.8083,-0.7975,-0.7464,-0.6922,-0.652,-0.6384,-0.6213,-0.5819,-0.5688,-0.5688,-0.5688,-0.5688,-0.5688,-0.5688,-0.5688,-0.5688,-0.5688,-0.5599,-0.5508,-0.5463,-0.5193,-0.4884,-0.4659,-0.4078,-0.3451,-0.2957,-0.2511,-0.1839,-0.1076,-0.0762,-0.0583,-0.0224,-0.0045,0.0179,0.0623,0.071,0.0882,0.1387,0.1758,0.1998,0.2386,0.3056,0.3689,0.4098,0.4559,0.5223,0.5858,0.6346,0.6656,0.6962,0.7095,0.7231,0.7547,0.7768,0.7984,-2.6976,-2.6544,-2.6496,-2.6217,-2.5732,-2.5684,-2.5684,-2.5791,-2.6641,-2.7012,-2.7178,-2.792,-2.8301,-2.8301,-2.8301,-2.8008,-2.7451,-2.7295,-2.706,-2.6787,-2.6413,-2.5982,-2.5406,-2.4949,-2.4627,-2.444,-2.4251,-2.3895,-2.3447,-2.3406,-2.2787,-2.1725,-2.1216,-2.0712,-2.0027,-1.9042,-1.8475,-1.8318,-1.7898,-1.7589,-1.7589,-1.7589,-1.7152,-1.6289,-1.5831,-1.5347,-1.476,-1.4442,-1.4298,-1.4298,-1.4298,-1.4058,-1.3474,-1.2518,-1.1782,-1.1452,-1.0636,-1.0034,-0.978,-0.8924,-0.831,-0.8109,-0.7642,-0.7063,-0.6526,-0.6428,-0.6166,-0.5819,-0.5688,-0.5688,-0.5688,-0.5688,-0.5688,-0.5688,-0.5644,-0.5599,-0.5599,-0.5371,-0.528,-0.5151,-0.4928,-0.4705,-0.4525,-0.3991,-0.3451,-0.2956,-0.2467,-0.184,-0.0942,-0.0673,-0.0538,0.0,0.0,0.0,0.0537,0.0714,0.0893,0.1322,0.1838,0.1995,0.2289,0.3006,0.3545,0.3909,0.4462,0.5166,0.5766,0.6346,0.67,0.7007,0.7139,0.7187,0.7455,0.7724,0.794,-2.6976,-2.6544,-2.6496,-2.6159,-2.5732,-2.5684,-2.5684,-2.583,-2.659,-2.7012,-2.7129,-2.791,-2.8301,-2.8301,-2.8301,-2.8262,-2.8125,-2.7812,-2.7627,-2.749,-2.6613,-2.5925,-2.555,-2.4902,-2.4467,-2.426,-2.4202,-2.3904,-2.3397,-2.3356,-2.2837,-2.1827,-2.142,-2.0858,-2.0138,-1.9242,-1.8677,-1.8363,-1.7898,-1.7641,-1.7589,-1.7589,-1.71,-1.6138,-1.5947,-1.5524,-1.4712,-1.4442,-1.4298,-1.4298,-1.4298,-1.4064,-1.3491,-1.2786,-1.2252,-1.1881,-1.1214,-1.059,-1.0092,-0.938,-0.8687,-0.8214,-0.7924,-0.7382,-0.6611,-0.6393,-0.621,-0.5822,-0.5688,-0.5688,-0.5688,-0.5688,-0.5688,-0.5688,-0.5552,-0.5419,-0.5327,-0.5146,-0.4921,-0.4748,-0.4659,-0.4569,-0.43,-0.39,-0.3406,-0.2957,-0.2466,-0.184,-0.0942,-0.0718,-0.0494,0.0,0.0,0.0,0.0449,0.0718,0.1031,0.1343,0.1831,0.2177,0.239,0.2933,0.3461,0.3912,0.4484,0.5186,0.5985,0.6476,0.6653,0.6918,0.7007,0.7143,0.7367,0.7588,0.7856,-2.6794,-2.6496,-2.6294,-2.6014,-2.5732,-2.5684,-2.5684,-2.5781,-2.66,-2.7002,-2.7168,-2.792,-2.8301,-2.8301,-2.8301,-2.8301,-2.8281,-2.8135,-2.7939,-2.7604,-2.7095,-2.6394,-2.5632,-2.5114,-2.465,-2.4238,-2.4211,-2.3904,-2.3506,-2.3406,-2.2787,-2.1878,-2.142,-2.0858,-2.0138,-1.9465,-1.8959,-1.8422,-1.8062,-1.7793,-1.7641,-1.7589,-1.7094,-1.6138,-1.5966,-1.55,-1.4533,-1.4346,-1.4298,-1.4298,-1.4298,-1.4064,-1.3491,-1.2807,-1.2278,-1.198,-1.1443,-1.0837,-1.032,-0.9663,-0.9032,-0.8509,-0.8047,-0.7451,-0.675,-0.6483,-0.6174,-0.5777,-0.5688,-0.5688,-0.5688,-0.5688,-0.5644,-0.5508,-0.5419,-0.5282,-0.5102,-0.4924,-0.4703,-0.4478,-0.4433,-0.4389,-0.4255,-0.3898,-0.3406,-0.2956,-0.2466,-0.184,-0.0987,-0.0718,-0.0538,0.0,0.0,0.0,0.0494,0.0762,0.0942,0.1346,0.184,0.22,0.2424,0.2915,0.3451,0.403,0.4607,0.523,0.603,0.6473,0.665,0.6871,0.7051,0.7187,0.7231,0.7455,0.7764,-2.6757,-2.6496,-2.6197,-2.5917,-2.5732,-2.5684,-2.5791,-2.6064,-2.6709,-2.71,-2.7383,-2.7988,-2.8301,-2.8301,-2.8301,-2.8301,-2.8301,-2.8301,-2.8101,-2.7723,-2.7213,-2.665,-2.5979,-2.5433,-2.4969,-2.4496,-2.444,-2.4049,-2.3397,-2.3356,-2.2887,-2.1979,-2.1573,-2.1062,-2.0292,-1.968,-1.9108,-1.8482,-1.8122,-1.7859,-1.7641,-1.7589,-1.7094,-1.6279,-1.6024,-1.5482,-1.4534,-1.4364,-1.4298,-1.425,-1.4154,-1.3823,-1.3491,-1.2905,-1.237,-1.1975,-1.159,-1.1096,-1.0444,-0.9909,-0.9324,-0.8708,-0.8302,-0.7663,-0.6933,-0.6545,-0.6275,-0.5827,-0.5688,-0.5688,-0.5688,-0.5688,-0.5555,-0.5282,-0.5235,-0.5102,-0.4788,-0.4612,-0.4478,-0.4344,-0.4297,-0.4255,-0.4078,-0.3853,-0.3363,-0.2869,-0.2423,-0.184,-0.1031,-0.0718,-0.0404,0.0,0.0,0.0,0.0,0.0807,0.0942,0.1346,0.184,0.2064,0.2289,0.3005,0.3674,0.4253,0.4832,0.5364,0.6118,0.634,0.6517,0.6786,0.7095,0.7139,0.7187,0.737,0.7635,-2.6747,-2.6496,-2.6197,-2.5907,-2.5732,-2.5684,-2.5967,-2.6396,-2.6826,-2.7246,-2.7708,-2.8096,-2.8301,-2.8301,-2.8301,-2.8301,-2.8301,-2.8291,-2.8165,-2.7771,-2.7222,-2.6754,-2.6436,-2.5715,-2.5166,-2.4909,-2.4812,-2.434,-2.3521,-2.3503,-2.3005,-2.2131,-2.1776,-2.1275,-2.0514,-1.999,-1.9309,-1.8475,-1.8167,-1.7905,-1.7641,-1.7589,-1.7173,-1.6349,-1.6043,-1.5576,-1.4789,-1.4437,-1.4298,-1.425,-1.3823,-1.3545,-1.3443,-1.3055,-1.257,-1.2029,-1.178,-1.1194,-1.056,-1.0149,-0.9592,-0.8735,-0.8523,-0.8087,-0.7058,-0.6719,-0.6418,-0.5869,-0.576,-0.5704,-0.5696,-0.5688,-0.5508,-0.5099,-0.4966,-0.4743,-0.4387,-0.4342,-0.4342,-0.4297,-0.4297,-0.421,-0.3991,-0.3721,-0.3274,-0.2691,-0.2334,-0.175,-0.1031,-0.0628,-0.0449,0.0,0.0,0.0,0.0583,0.0718,0.0897,0.1346,0.184,0.2064,0.2334,0.305,0.3765,0.4389,0.4966,0.55,0.5941,0.6163,0.652,0.6833,0.701,0.7095,0.7187,0.7323,0.7547,-2.6554,-2.6448,-2.6014,-2.5781,-2.5684,-2.5684,-2.5986,-2.6416,-2.6836,-2.7266,-2.7695,-2.8115,-2.8301,-2.8301,-2.8301,-2.8301,-2.8301,-2.8301,-2.8184,-2.7833,-2.7444,-2.6814,-2.625,-2.5678,-2.5387,-2.5277,-2.5207,-2.4748,-2.3877,-2.3823,-2.3225,-2.2139,-2.1835,-2.1326,-2.0573,-2.0145,-1.9413,-1.8527,-1.8325,-1.8055,-1.7694,-1.7589,-1.7173,-1.6375,-1.6113,-1.5589,-1.477,-1.4449,-1.4304,-1.425,-1.3775,-1.3497,-1.3443,-1.305,-1.2565,-1.2078,-1.1878,-1.1438,-1.0654,-1.0314,-0.9788,-0.8909,-0.8661,-0.822,-0.7378,-0.6982,-0.6595,-0.6167,-0.5997,-0.5825,-0.5715,-0.5688,-0.5463,-0.5055,-0.4743,-0.4476,-0.4344,-0.4297,-0.4297,-0.4297,-0.4297,-0.4168,-0.3944,-0.3631,-0.3274,-0.2648,-0.2244,-0.184,-0.1031,-0.0673,0.0,0.0,0.0,0.0,0.0494,0.0628,0.0897,0.1346,0.1795,0.2155,0.2513,0.305,0.3676,0.43,0.4788,0.5322,0.5764,0.6074,0.6476,0.6877,0.701,0.7095,0.7095,0.7187,0.7455,-2.6496,-2.6448,-2.5927,-2.5684,-2.5684,-2.5684,-2.6035,-2.6621,-2.6904,-2.7373,-2.7881,-2.8174,-2.8291,-2.8301,-2.8301,-2.8301,-2.8301,-2.8184,-2.796,-2.7647,-2.7206,-2.6751,-2.626,-2.5958,-2.5793,-2.5681,-2.5681,-2.512,-2.4319,-2.409,-2.3459,-2.2588,-2.1952,-2.1436,-2.0873,-2.0292,-1.9613,-1.8729,-1.8475,-1.816,-1.7635,-1.7589,-1.72,-1.6535,-1.6183,-1.5551,-1.468,-1.4383,-1.4298,-1.4202,-1.3823,-1.3497,-1.3443,-1.305,-1.2565,-1.2029,-1.198,-1.1541,-1.0654,-1.0413,-0.9912,-0.9057,-0.8732,-0.8272,-0.7624,-0.7152,-0.6771,-0.6421,-0.6122,-0.5966,-0.578,-0.5581,-0.5285,-0.501,-0.4565,-0.4297,-0.4297,-0.4297,-0.4297,-0.4297,-0.421,-0.4032,-0.3765,-0.3496,-0.3048,-0.2513,-0.2155,-0.157,-0.0897,-0.0762,0.0,0.0,0.0,0.0,0.0494,0.0673,0.0987,0.1391,0.1795,0.22,0.2648,0.3094,0.3631,0.421,0.4699,0.5144,0.5542,0.5985,0.6432,0.6789,0.6962,0.7095,0.7095,0.7095,0.7363,-2.6496,-2.6448,-2.5917,-2.5684,-2.5684,-2.5693,-2.6152,-2.6904,-2.7002,-2.749,-2.8135,-2.8281,-2.8301,-2.8301,-2.8301,-2.8301,-2.8291,-2.8067,-2.7691,-2.7323,-2.6899,-2.66,-2.6572,-2.6463,-2.6342,-2.6068,-2.6085,-2.5466,-2.4773,-2.4269,-2.3729,-2.2989,-2.2188,-2.1622,-2.113,-2.0498,-1.9665,-1.8938,-1.852,-1.816,-1.774,-1.7635,-1.7298,-1.6674,-1.6017,-1.5351,-1.4625,-1.4298,-1.4298,-1.4298,-1.3781,-1.3539,-1.3443,-1.3055,-1.2565,-1.2127,-1.1932,-1.1541,-1.0605,-1.0364,-0.9912,-0.9015,-0.8772,-0.8428,-0.7736,-0.7304,-0.6952,-0.6629,-0.6292,-0.6092,-0.5891,-0.5413,-0.5138,-0.4952,-0.4585,-0.4344,-0.4297,-0.4297,-0.4297,-0.4297,-0.4078,-0.381,-0.3585,-0.3181,-0.2734,-0.2378,-0.1974,-0.1436,-0.0942,-0.0673,-0.0404,0.0,0.0,0.0,0.0449,0.0718,0.1076,0.148,0.1885,0.2289,0.2827,0.3275,0.3676,0.4121,0.4565,0.501,0.5408,0.5855,0.6343,0.6656,0.6833,0.6962,0.7095,0.7095,0.7275,-2.6496,-2.6448,-2.5936,-2.5684,-2.5684,-2.5693,-2.6171,-2.6982,-2.7002,-2.749,-2.8144,-2.8291,-2.8301,-2.8301,-2.8301,-2.8301,-2.8237,-2.8014,-2.7638,-2.7043,-2.6791,-2.6636,-2.6591,-2.6591,-2.6591,-2.6426,-2.6444,-2.5901,-2.5139,-2.4766,-2.4211,-2.316,-2.2507,-2.1868,-2.1256,-2.0498,-1.9828,-1.9212,-1.8691,-1.8265,-1.7905,-1.7687,-1.7305,-1.6641,-1.583,-1.5003,-1.4473,-1.4298,-1.4298,-1.416,-1.3823,-1.3497,-1.3394,-1.3055,-1.257,-1.2127,-1.198,-1.1541,-1.0659,-1.0364,-0.9916,-0.8973,-0.8775,-0.8566,-0.7955,-0.7434,-0.7171,-0.6879,-0.6563,-0.6221,-0.6012,-0.5524,-0.524,-0.5031,-0.4669,-0.4314,-0.4302,-0.43,-0.4297,-0.421,-0.4034,-0.3812,-0.3587,-0.3138,-0.269,-0.2243,-0.1795,-0.1301,-0.0942,-0.0583,-0.0314,0.0,0.0,0.0,0.0538,0.0852,0.1256,0.1615,0.1974,0.2379,0.2872,0.3274,0.3585,0.4032,0.4476,0.4877,0.5277,0.5722,0.621,0.6435,0.67,0.6877,0.7051,0.7095,0.7139,-2.6496,-2.6458,-2.5927,-2.5684,-2.5684,-2.5693,-2.6064,-2.668,-2.6934,-2.7383,-2.7949,-2.8184,-2.8291,-2.8301,-2.8301,-2.8301,-2.8184,-2.7853,-2.7368,-2.6899,-2.6636,-2.6636,-2.6591,-2.6591,-2.6591,-2.6591,-2.6582,-2.6109,-2.5567,-2.5111,-2.4464,-2.3391,-2.2699,-2.202,-2.1426,-2.055,-1.9931,-1.942,-1.8736,-1.8272,-1.8016,-1.7747,-1.7186,-1.6438,-1.554,-1.4853,-1.4358,-1.4298,-1.4298,-1.4202,-1.3781,-1.3497,-1.34,-1.2953,-1.2424,-1.2078,-1.1883,-1.1394,-1.0659,-1.0364,-0.9916,-0.8874,-0.8775,-0.8478,-0.8035,-0.7537,-0.7211,-0.7051,-0.6677,-0.6298,-0.6181,-0.5777,-0.544,-0.519,-0.4871,-0.4564,-0.446,-0.4355,-0.4255,-0.4123,-0.3901,-0.3587,-0.3272,-0.2913,-0.2377,-0.1885,-0.157,-0.1076,-0.0762,-0.0448,-0.0314,0.0,0.0,0.0,0.0,0.0987,0.1436,0.175,0.2109,0.2424,0.2829,0.3141,0.3451,0.3853,0.43,0.4743,0.5144,0.5589,0.6033,0.6343,0.6609,0.6874,0.701,0.7051,0.7139,-2.6496,-2.6448,-2.5927,-2.5684,-2.5684,-2.5684,-2.5986,-2.6426,-2.6758,-2.7187,-2.7656,-2.8057,-2.8184,-2.8281,-2.8301,-2.8291,-2.8023,-2.7701,-2.7161,-2.6691,-2.6646,-2.6591,-2.6591,-2.6591,-2.6591,-2.6591,-2.6591,-2.6218,-2.5736,-2.5288,-2.4657,-2.3735,-2.2858,-2.2171,-2.1577,-2.0644,-1.9975,-1.9672,-1.8833,-1.8318,-1.8069,-1.7786,-1.7075,-1.6215,-1.5549,-1.4939,-1.4509,-1.4401,-1.4377,-1.4316,-1.3874,-1.3653,-1.3442,-1.2824,-1.2273,-1.2029,-1.178,-1.1247,-1.0609,-1.0364,-0.9965,-0.8924,-0.8775,-0.8531,-0.8038,-0.7537,-0.7279,-0.703,-0.6763,-0.6388,-0.6298,-0.5941,-0.5596,-0.5344,-0.5149,-0.4899,-0.4637,-0.4428,-0.4282,-0.4017,-0.3801,-0.3532,-0.3058,-0.2601,-0.2018,-0.1525,-0.1211,-0.0897,-0.0583,0.0,0.0,0.0,0.0,0.0,0.0,0.1076,0.1525,0.1885,0.22,0.247,0.2784,0.3096,0.3361,0.3676,0.4123,0.4567,0.4968,0.5413,0.5811,0.6251,0.652,0.6697,0.6874,0.7051,0.7095,-2.6496,-2.6448,-2.5927,-2.5684,-2.5684,-2.5684,-2.5977,-2.6348,-2.6465,-2.6953,-2.766,-2.7806,-2.7998,-2.8213,-2.8301,-2.8023,-2.7701,-2.7431,-2.7116,-2.6691,-2.6636,-2.6591,-2.6591,-2.6591,-2.6591,-2.6591,-2.6591,-2.6309,-2.5852,-2.5581,-2.4877,-2.3838,-2.3059,-2.2446,-2.1574,-2.0696,-2.0086,-1.9828,-1.899,-1.8422,-1.8213,-1.7772,-1.716,-1.6279,-1.5687,-1.5169,-1.4745,-1.4648,-1.4648,-1.4617,-1.4348,-1.4166,-1.3891,-1.3073,-1.2384,-1.2055,-1.1736,-1.1243,-1.0556,-1.0364,-0.9817,-0.9122,-0.8775,-0.8581,-0.8038,-0.7537,-0.7185,-0.7036,-0.6739,-0.6376,-0.636,-0.61,-0.5759,-0.549,-0.5207,-0.4923,-0.4674,-0.4551,-0.44,-0.4075,-0.3781,-0.3432,-0.2861,-0.239,-0.1891,-0.1439,-0.1031,-0.0718,-0.0404,0.0,0.0,0.0,0.0,0.0,0.0,0.1211,0.1525,0.193,0.2244,0.2424,0.2739,0.305,0.3363,0.3631,0.3989,0.4433,0.4835,0.5235,0.5633,0.6033,0.6299,0.652,0.6786,0.701,0.7095,-2.6496,-2.6448,-2.5936,-2.5684,-2.5684,-2.5684,-2.5801,-2.6064,-2.6299,-2.6738,-2.7246,-2.7568,-2.79,-2.8203,-2.8301,-2.8023,-2.7691,-2.7431,-2.7161,-2.6845,-2.6691,-2.6591,-2.6591,-2.6591,-2.6591,-2.6591,-2.6591,-2.6309,-2.5743,-2.567,-2.4965,-2.389,-2.3188,-2.2504,-2.1693,-2.0814,-2.0292,-1.9931,-1.9146,-1.852,-1.8318,-1.7747,-1.7016,-1.6406,-1.5888,-1.5434,-1.5024,-1.492,-1.4914,-1.4888,-1.4675,-1.4474,-1.4112,-1.3534,-1.2723,-1.2222,-1.1811,-1.1243,-1.0556,-1.0364,-0.9965,-0.9179,-0.8878,-0.863,-0.8184,-0.7633,-0.7138,-0.6789,-0.6686,-0.6387,-0.6381,-0.6231,-0.5963,-0.5605,-0.5361,-0.5094,-0.4801,-0.4702,-0.4452,-0.4095,-0.3877,-0.3413,-0.2615,-0.2188,-0.1768,-0.1353,-0.0898,-0.0538,-0.0269,0.0,0.0,0.0,0.0359,0.0718,0.1076,0.1346,0.1615,0.1974,0.2289,0.247,0.2694,0.2962,0.3275,0.3588,0.3944,0.43,0.4701,0.5057,0.5413,0.5811,0.6121,0.6432,0.6745,0.6922,0.7054,-2.6496,-2.6448,-2.5936,-2.5684,-2.5684,-2.5684,-2.5684,-2.5762,-2.6103,-2.6475,-2.6904,-2.7246,-2.7646,-2.8076,-2.8198,-2.8121,-2.7853,-2.7584,-2.7323,-2.6999,-2.6791,-2.6691,-2.6646,-2.6591,-2.6591,-2.6591,-2.6591,-2.6309,-2.5907,-2.5734,-2.4956,-2.4022,-2.3241,-2.2565,-2.1728,-2.0968,-2.0498,-1.9923,-1.9242,-1.867,-1.816,-1.7628,-1.7022,-1.6412,-1.6108,-1.5694,-1.526,-1.5185,-1.5185,-1.5158,-1.4995,-1.4768,-1.443,-1.3927,-1.33,-1.2496,-1.1954,-1.1269,-1.0659,-1.0413,-1.0068,-0.9236,-0.8981,-0.868,-0.8283,-0.7683,-0.7036,-0.6587,-0.6387,-0.6387,-0.6387,-0.6384,-0.6129,-0.5727,-0.5525,-0.5427,-0.4962,-0.47,-0.4525,-0.4223,-0.3981,-0.3393,-0.2627,-0.2164,-0.1831,-0.1227,-0.0769,-0.0494,0.0,0.0,0.0,0.0,0.0538,0.0852,0.1166,0.1391,0.1705,0.2064,0.2289,0.2515,0.2694,0.292,0.3232,0.3499,0.3676,0.3989,0.4435,0.4837,0.5191,0.5547,0.5985,0.6296,0.6564,0.6833,0.6966,-2.6496,-2.6448,-2.5936,-2.5684,-2.5684,-2.5684,-2.5684,-2.5693,-2.5762,-2.6064,-2.6514,-2.6582,-2.7041,-2.7646,-2.8096,-2.8072,-2.7931,-2.7732,-2.7482,-2.7142,-2.6999,-2.6791,-2.6646,-2.6591,-2.6591,-2.6591,-2.6591,-2.6418,-2.6081,-2.5852,-2.51,-2.413,-2.3447,-2.2714,-2.1706,-2.1121,-2.0601,-2.0027,-1.9242,-1.8461,-1.7845,-1.7589,-1.7233,-1.6721,-1.6371,-1.5979,-1.5561,-1.5457,-1.5457,-1.5429,-1.5417,-1.5252,-1.4915,-1.4475,-1.3798,-1.2997,-1.223,-1.1447,-1.0623,-1.0422,-1.0068,-0.9381,-0.8977,-0.8676,-0.8233,-0.7686,-0.7089,-0.6795,-0.6539,-0.6387,-0.6387,-0.6387,-0.6084,-0.5834,-0.5636,-0.5334,-0.4933,-0.4782,-0.4614,-0.4364,-0.4056,-0.3363,-0.2589,-0.2257,-0.1894,-0.1238,-0.0683,-0.0407,0.0,0.0,0.0,0.0,0.0673,0.0987,0.1256,0.148,0.1796,0.2156,0.2335,0.2515,0.2739,0.2964,0.3187,0.3409,0.3587,0.3855,0.4391,0.4748,0.4971,0.5324,0.5719,0.6074,0.6343,0.6612,0.6928,-2.664,-2.6458,-2.5936,-2.5684,-2.5684,-2.5684,-2.5684,-2.5684,-2.5684,-2.5927,-2.6328,-2.6387,-2.6738,-2.7275,-2.7519,-2.7643,-2.7713,-2.7603,-2.7588,-2.7356,-2.7168,-2.6907,-2.6845,-2.6691,-2.6591,-2.6527,-2.6582,-2.6582,-2.63,-2.5809,-2.5171,-2.4201,-2.3508,-2.2766,-2.1799,-2.1326,-2.0755,-2.0027,-1.9146,-1.8258,-1.7793,-1.7589,-1.7318,-1.673,-1.6603,-1.6243,-1.5862,-1.5722,-1.5722,-1.5734,-1.5701,-1.5577,-1.5292,-1.4874,-1.4347,-1.3588,-1.2914,-1.1918,-1.0833,-1.0541,-1.004,-0.9529,-0.9027,-0.8581,-0.8038,-0.754,-0.7092,-0.6795,-0.6539,-0.6437,-0.6387,-0.6387,-0.6189,-0.5937,-0.5687,-0.5386,-0.5085,-0.4885,-0.468,-0.4435,-0.4131,-0.3473,-0.284,-0.2419,-0.1941,-0.1162,-0.0737,-0.0457,-0.0136,0.0,0.0,0.0,0.0852,0.1122,0.1346,0.157,0.1843,0.2159,0.2382,0.2562,0.2785,0.3009,0.3187,0.3365,0.3587,0.3944,0.4389,0.4614,0.4837,0.5146,0.5455,0.5811,0.6166,0.6621,0.6958,-2.6794,-2.6458,-2.6024,-2.5781,-2.5684,-2.5684,-2.5684,-2.5684,-2.5684,-2.5918,-2.6182,-2.6328,-2.6572,-2.6846,-2.7012,-2.7266,-2.749,-2.7282,-2.7299,-2.7343,-2.7172,-2.6805,-2.6598,-2.6439,-2.6341,-2.6298,-2.6169,-2.6178,-2.6045,-2.5676,-2.5005,-2.4202,-2.3572,-2.2736,-2.195,-2.1471,-2.096,-1.9931,-1.8938,-1.8213,-1.7799,-1.7635,-1.7318,-1.6948,-1.6736,-1.6465,-1.6051,-1.5879,-1.5873,-1.5873,-1.5873,-1.5737,-1.5416,-1.512,-1.4618,-1.3938,-1.3288,-1.2439,-1.1434,-1.0777,-1.0203,-0.964,-0.9076,-0.8528,-0.7889,-0.7441,-0.7138,-0.6942,-0.6587,-0.6437,-0.6387,-0.6387,-0.6237,-0.5989,-0.5737,-0.5489,-0.524,-0.4987,-0.4784,-0.4585,-0.4284,-0.3831,-0.3192,-0.268,-0.1997,-0.1137,-0.0747,-0.0509,-0.0138,0.0318,0.0593,0.0824,0.1055,0.1285,0.1421,0.169,0.1912,0.2217,0.2443,0.2614,0.2842,0.2969,0.3142,0.332,0.359,0.3898,0.43,0.448,0.4659,0.4924,0.5188,0.5589,0.5947,0.6459,0.706,-2.6976,-2.6496,-2.6197,-2.5917,-2.5684,-2.5684,-2.5684,-2.5684,-2.5684,-2.5713,-2.584,-2.6162,-2.6357,-2.6494,-2.6728,-2.6934,-2.706,-2.7,-2.6943,-2.685,-2.6647,-2.6461,-2.6238,-2.6039,-2.5826,-2.5669,-2.569,-2.5663,-2.5429,-2.5258,-2.4878,-2.4491,-2.3626,-2.2646,-2.1892,-2.1412,-2.0806,-1.9828,-1.884,-1.8265,-1.7957,-1.7694,-1.743,-1.7173,-1.6842,-1.6577,-1.6271,-1.6051,-1.5885,-1.5885,-1.5885,-1.5838,-1.5583,-1.5208,-1.4722,-1.4239,-1.3476,-1.2697,-1.1992,-1.1117,-1.0327,-0.9689,-0.9107,-0.8585,-0.8032,-0.7503,-0.7244,-0.7092,-0.6686,-0.6437,-0.6387,-0.6387,-0.6287,-0.6089,-0.5889,-0.5589,-0.5338,-0.5037,-0.4834,-0.4684,-0.4383,-0.3982,-0.3479,-0.2954,-0.2229,-0.135,-0.0711,-0.0469,0.0094,0.0515,0.08,0.1086,0.1276,0.1467,0.1516,0.179,0.2098,0.2361,0.2586,0.2745,0.2905,0.3031,0.3074,0.3379,0.3652,0.3909,0.4166,0.4344,0.4523,0.4701,0.4971,0.5335,0.5893,0.6463,0.7161,-2.7214,-2.6757,-2.6438,-2.611,-2.5684,-2.5684,-2.5684,-2.5684,-2.5684,-2.5684,-2.5693,-2.5918,-2.5986,-2.6055,-2.6123,-2.6387,-2.6592,-2.6631,-2.6666,-2.6749,-2.6654,-2.6439,-2.6243,-2.5895,-2.5754,-2.5604,-2.5448,-2.5372,-2.5381,-2.4857,-2.4499,-2.4049,-2.3608,-2.2749,-2.1951,-2.1157,-2.0395,-1.9776,-1.8893,-1.8272,-1.8016,-1.7747,-1.7483,-1.7226,-1.6895,-1.6577,-1.6324,-1.6057,-1.5945,-1.5885,-1.5885,-1.5838,-1.569,-1.5256,-1.4934,-1.4552,-1.3735,-1.3006,-1.2375,-1.1458,-1.0493,-0.9638,-0.9185,-0.8831,-0.8245,-0.7721,-0.7362,-0.7077,-0.6745,-0.6503,-0.6389,-0.6389,-0.6337,-0.6189,-0.5989,-0.5739,-0.5438,-0.5135,-0.4885,-0.4734,-0.4485,-0.4185,-0.3682,-0.3176,-0.2392,-0.1572,-0.0966,-0.0334,0.0192,0.0624,0.0914,0.1156,0.1398,0.1491,0.1539,0.1866,0.2286,0.2464,0.2687,0.2848,0.3004,0.2982,0.3069,0.3417,0.3668,0.3879,0.4092,0.4259,0.4389,0.4612,0.4804,0.5089,0.5764,0.6487,0.7121,-2.7452,-2.6996,-2.6736,-2.6314,-2.582,-2.5732,-2.5684,-2.5684,-2.5684,-2.5684,-2.5684,-2.5684,-2.5684,-2.5684,-2.5713,-2.5889,-2.6143,-2.6221,-2.6387,-2.6384,-2.6352,-2.6268,-2.6066,-2.5774,-2.5404,-2.5372,-2.5168,-2.501,-2.4904,-2.4559,-2.4265,-2.3976,-2.3602,-2.2783,-2.191,-2.0901,-2.0189,-1.9724,-1.9108,-1.8482,-1.8174,-1.7852,-1.7641,-1.7331,-1.6948,-1.6683,-1.6371,-1.6158,-1.5945,-1.5885,-1.5885,-1.5885,-1.5678,-1.541,-1.5095,-1.4606,-1.3997,-1.3175,-1.2631,-1.1554,-1.0429,-0.9492,-0.9298,-0.8931,-0.8419,-0.792,-0.7618,-0.7349,-0.6889,-0.6592,-0.6486,-0.6422,-0.6395,-0.6289,-0.6092,-0.5842,-0.5589,-0.5286,-0.5035,-0.4834,-0.4535,-0.4237,-0.3732,-0.3127,-0.2211,-0.1445,-0.0842,-0.0196,0.0392,0.0785,0.098,0.1224,0.1469,0.1512,0.1555,0.195,0.2343,0.2413,0.2689,0.2959,0.3076,0.3051,0.3171,0.3539,0.3786,0.3912,0.4068,0.4289,0.4408,0.4523,0.4826,0.5151,0.5812,0.6549,0.7023,-2.7715,-2.7262,-2.6986,-2.6602,-2.61,-2.582,-2.5742,-2.5684,-2.5684,-2.5684,-2.5684,-2.5684,-2.5684,-2.5684,-2.5684,-2.5742,-2.5762,-2.5781,-2.582,-2.5888,-2.5917,-2.5673,-2.5477,-2.5229,-2.5076,-2.4613,-2.4516,-2.45,-2.4349,-2.4308,-2.4094,-2.3786,-2.3462,-2.2906,-2.208,-2.1267,-2.0601,-2.0086,-1.9532,-1.8907,-1.8429,-1.8115,-1.7806,-1.7477,-1.6995,-1.6683,-1.6524,-1.6158,-1.5945,-1.5885,-1.5885,-1.5885,-1.5832,-1.5303,-1.5041,-1.4928,-1.3905,-1.33,-1.3048,-1.1516,-1.0403,-0.9561,-0.9391,-0.912,-0.8604,-0.8217,-0.7882,-0.7544,-0.7188,-0.6884,-0.6683,-0.6521,-0.6483,-0.6358,-0.6165,-0.5892,-0.5639,-0.5386,-0.5085,-0.4885,-0.4585,-0.4286,-0.3731,-0.3077,-0.2069,-0.126,-0.0706,-0.0101,0.0501,0.0799,0.0994,0.1242,0.1439,0.1539,0.1636,0.2099,0.2398,0.2468,0.2643,0.2974,0.3144,0.3065,0.3337,0.3711,0.3809,0.3891,0.4129,0.4371,0.447,0.4576,0.4961,0.5388,0.6012,0.6559,0.7076,-2.8149,-2.7499,-2.7262,-2.6986,-2.6592,-2.6159,-2.5878,-2.5732,-2.5684,-2.5684,-2.5684,-2.5684,-2.5684,-2.5684,-2.5684,-2.5684,-2.5684,-2.5684,-2.5684,-2.5684,-2.5684,-2.5693,-2.5489,-2.5235,-2.503,-2.4784,-2.4538,-2.4301,-2.4238,-2.4211,-2.4053,-2.3755,-2.3347,-2.2795,-2.208,-2.1369,-2.0763,-2.0506,-1.9843,-1.9063,-1.8684,-1.8272,-1.7911,-1.7635,-1.7047,-1.673,-1.6677,-1.6211,-1.5945,-1.5885,-1.5885,-1.5885,-1.5785,-1.5309,-1.5041,-1.4767,-1.3905,-1.293,-1.2432,-1.1365,-1.0795,-1.007,-0.9565,-0.9302,-0.8712,-0.8374,-0.8059,-0.7678,-0.7416,-0.711,-0.6774,-0.6627,-0.6524,-0.6444,-0.6273,-0.5909,-0.5636,-0.5338,-0.5087,-0.4885,-0.4634,-0.4234,-0.378,-0.3075,-0.2119,-0.1464,-0.0909,-0.0252,0.0352,0.0704,0.0904,0.1206,0.1408,0.1511,0.1717,0.212,0.2371,0.2448,0.2743,0.3097,0.3166,0.3127,0.3406,0.3736,0.3827,0.3915,0.421,0.4465,0.4485,0.4691,0.4987,0.5301,0.5724,0.6409,0.7115,-2.843,-2.7878,-2.7536,-2.7225,-2.6853,-2.6448,-2.6052,-2.5868,-2.5732,-2.5684,-2.5684,-2.5684,-2.5684,-2.5684,-2.5684,-2.5684,-2.5684,-2.5684,-2.5684,-2.5684,-2.5684,-2.5684,-2.5586,-2.543,-2.5128,-2.4883,-2.4627,-2.439,-2.4211,-2.4211,-2.4003,-2.3655,-2.3297,-2.2896,-2.2232,-2.1623,-2.107,-2.0712,-2.005,-1.942,-1.8945,-1.8482,-1.8062,-1.7694,-1.7265,-1.6849,-1.663,-1.6318,-1.6004,-1.5945,-1.5885,-1.5885,-1.5731,-1.541,-1.5041,-1.4713,-1.3905,-1.2876,-1.205,-1.1664,-1.0971,-1.0108,-0.9926,-0.9435,-0.8917,-0.8631,-0.8263,-0.7876,-0.7585,-0.7242,-0.6953,-0.6799,-0.6635,-0.6605,-0.6338,-0.5974,-0.5684,-0.5436,-0.5092,-0.4889,-0.4684,-0.4282,-0.378,-0.3025,-0.222,-0.1666,-0.1162,-0.0505,0.0151,0.0556,0.0859,0.1111,0.1414,0.1516,0.1768,0.212,0.2321,0.2371,0.2775,0.318,0.3222,0.318,0.3519,0.3752,0.3846,0.4039,0.4387,0.461,0.4619,0.4732,0.4995,0.5229,0.5482,0.6194,0.698,-2.8664,-2.8348,-2.7831,-2.7357,-2.6948,-2.6651,-2.6352,-2.6091,-2.583,-2.5732,-2.5684,-2.5684,-2.5684,-2.5684,-2.5684,-2.5684,-2.5684,-2.5684,-2.5684,-2.5684,-2.5684,-2.5684,-2.5635,-2.544,-2.5235,-2.4932,-2.4686,-2.448,-2.4251,-2.4211,-2.3954,-2.3555,-2.3406,-2.2996,-2.2485,-2.1928,-2.1479,-2.1019,-2.0403,-1.9783,-1.9316,-1.8684,-1.8272,-1.7852,-1.7437,-1.7008,-1.6743,-1.6424,-1.6158,-1.5998,-1.5885,-1.5885,-1.5731,-1.5363,-1.5148,-1.4659,-1.3851,-1.293,-1.2169,-1.1782,-1.1181,-1.0363,-0.9981,-0.9482,-0.914,-0.8838,-0.8478,-0.8117,-0.7786,-0.7437,-0.7135,-0.6944,-0.6809,-0.66,-0.6383,-0.6073,-0.5772,-0.5477,-0.5115,-0.4893,-0.4736,-0.4383,-0.388,-0.3176,-0.227,-0.1917,-0.1414,-0.0758,-0.0101,0.0556,0.0859,0.1061,0.1313,0.1516,0.1818,0.207,0.227,0.2422,0.2826,0.318,0.3228,0.3275,0.356,0.3786,0.3954,0.4166,0.453,0.4655,0.4643,0.4812,0.4943,0.5205,0.5445,0.6124,0.6839,-2.9231,-2.8617,-2.8102,-2.7726,-2.7357,-2.6986,-2.6544,-2.61,-2.6014,-2.5917,-2.5684,-2.5684,-2.5684,-2.5684,-2.5684,-2.5684,-2.5684,-2.5684,-2.5684,-2.5684,-2.5684,-2.5684,-2.5684,-2.5586,-2.5382,-2.5186,-2.4892,-2.4627,-2.4449,-2.4301,-2.3954,-2.3497,-2.3406,-2.3097,-2.2644,-2.219,-2.1827,-2.1318,-2.0712,-2.0145,-1.9524,-1.884,-1.8429,-1.7964,-1.7549,-1.7113,-1.6736,-1.6477,-1.6211,-1.5945,-1.5885,-1.5885,-1.5885,-1.5523,-1.5208,-1.4439,-1.3689,-1.2989,-1.2332,-1.1841,-1.1295,-1.0637,-1.0091,-0.971,-0.9323,-0.8992,-0.8657,-0.8238,-0.7947,-0.7636,-0.7278,-0.7048,-0.6888,-0.6736,-0.6449,-0.6053,-0.5742,-0.5364,-0.5052,-0.4841,-0.4684,-0.4334,-0.3831,-0.3077,-0.227,-0.2018,-0.1564,-0.0959,-0.0303,0.0353,0.0758,0.101,0.1313,0.1566,0.1768,0.2019,0.227,0.2472,0.2876,0.318,0.323,0.338,0.3632,0.392,0.4191,0.4434,0.4682,0.4707,0.4724,0.4759,0.4891,0.5142,0.5501,0.6124,0.6692,-2.96,-2.8896,-2.8466,-2.8045,-2.7584,-2.7214,-2.6794,-2.6448,-2.6187,-2.6014,-2.5878,-2.5732,-2.5684,-2.5684,-2.5684,-2.5684,-2.5684,-2.5684,-2.5684,-2.5684,-2.5684,-2.5684,-2.5684,-2.5684,-2.5538,-2.5342,-2.5088,-2.4883,-2.4538,-2.4301,-2.3954,-2.3456,-2.3406,-2.3046,-2.2695,-2.2384,-2.208,-2.1573,-2.1011,-2.0403,-1.9724,-1.9049,-1.8527,-1.8115,-1.7641,-1.7166,-1.6736,-1.6471,-1.6258,-1.5939,-1.5885,-1.5885,-1.5832,-1.5523,-1.5101,-1.4385,-1.3689,-1.3152,-1.2604,-1.1946,-1.14,-1.0857,-1.0202,-0.9816,-0.9489,-0.9158,-0.8602,-0.8146,-0.7983,-0.7811,-0.7453,-0.7097,-0.7021,-0.6887,-0.6452,-0.5977,-0.5641,-0.5257,-0.5031,-0.4756,-0.4485,-0.4183,-0.358,-0.2875,-0.2321,-0.2069,-0.1666,-0.0959,-0.0353,0.0252,0.0606,0.0859,0.1263,0.1617,0.1818,0.2019,0.227,0.2522,0.2876,0.313,0.323,0.3433,0.3734,0.4085,0.4481,0.4676,0.4766,0.4772,0.476,0.4782,0.4834,0.5074,0.5418,0.5879,0.6489,-2.9852,-2.9174,-2.8885,-2.8279,-2.7631,-2.7404,-2.7177,-2.69,-2.64,-2.6149,-2.61,-2.5878,-2.5781,-2.5781,-2.5732,-2.5684,-2.5684,-2.5684,-2.5684,-2.5684,-2.5684,-2.5684,-2.5684,-2.5684,-2.5596,-2.5391,-2.5186,-2.4981,-2.4538,-2.4242,-2.3954,-2.3456,-2.3406,-2.3155,-2.2644,-2.2544,-2.2232,-2.1666,-2.1216,-2.0704,-2.0027,-1.9302,-1.8677,-1.8318,-1.7898,-1.7371,-1.6889,-1.6624,-1.6465,-1.6099,-1.5885,-1.5885,-1.5731,-1.5357,-1.4928,-1.4444,-1.3797,-1.331,-1.2767,-1.2114,-1.1564,-1.0966,-1.0312,-0.9926,-0.9596,-0.9213,-0.8657,-0.8159,-0.7989,-0.7712,-0.7357,-0.7185,-0.7061,-0.6827,-0.6436,-0.6016,-0.5669,-0.5309,-0.4984,-0.4718,-0.4384,-0.4033,-0.3781,-0.3077,-0.2422,-0.217,-0.1615,-0.0909,-0.0404,0.0151,0.0556,0.0808,0.1263,0.1617,0.1818,0.207,0.2321,0.2623,0.2927,0.313,0.323,0.3484,0.3836,0.4236,0.4686,0.4734,0.478,0.4782,0.4782,0.4782,0.4885,0.5035,0.5386,0.5739,0.6339,-3.0306,-2.9863,-2.9128,-2.8337,-2.7641,-2.7536,-2.7404,-2.7167,-2.6842,-2.6592,-2.64,-2.6149,-2.5965,-2.5965,-2.5781,-2.5732,-2.5684,-2.5684,-2.5684,-2.5684,-2.5684,-2.5684,-2.5684,-2.5684,-2.5645,-2.5596,-2.5342,-2.5039,-2.4587,-2.4301,-2.3954,-2.3456,-2.3406,-2.3155,-2.2653,-2.2603,-2.2241,-2.1725,-2.1471,-2.0909,-2.0078,-1.9517,-1.8952,-1.8482,-1.8003,-1.7477,-1.6995,-1.667,-1.6358,-1.5992,-1.5939,-1.5885,-1.5885,-1.5303,-1.5035,-1.4719,-1.391,-1.3369,-1.293,-1.2223,-1.1623,-1.1131,-1.0582,-1.0091,-0.9596,-0.9158,-0.8716,-0.8269,-0.7878,-0.7601,-0.7376,-0.7265,-0.7043,-0.67,-0.6407,-0.6048,-0.5692,-0.5336,-0.4941,-0.4632,-0.4291,-0.4033,-0.3781,-0.3277,-0.2674,-0.2018,-0.1313,-0.0758,-0.0404,0.005,0.0556,0.0859,0.1313,0.1667,0.1869,0.212,0.2371,0.2675,0.2978,0.313,0.323,0.3583,0.3984,0.4435,0.4784,0.4782,0.4782,0.4782,0.4782,0.4782,0.4834,0.4985,0.5236,0.5589,0.6239,-3.0413,-3.0114,-2.9209,-2.8524,-2.8102,-2.7783,-2.7547,-2.7404,-2.7177,-2.6986,-2.6832,-2.6486,-2.6197,-2.61,-2.5917,-2.5781,-2.5732,-2.5684,-2.5684,-2.5684,-2.5684,-2.5684,-2.5684,-2.5684,-2.5684,-2.5635,-2.5391,-2.5088,-2.4686,-2.439,-2.4102,-2.3506,-2.3356,-2.3147,-2.2644,-2.2443,-2.219,-2.1733,-2.1623,-2.1003,-2.013,-1.968,-1.9108,-1.8579,-1.8055,-1.7529,-1.6995,-1.667,-1.6358,-1.6045,-1.5885,-1.5885,-1.5785,-1.5303,-1.5035,-1.4659,-1.4018,-1.332,-1.2985,-1.2387,-1.1678,-1.124,-1.0472,-0.9871,-0.9706,-0.9265,-0.8823,-0.8377,-0.8045,-0.7765,-0.749,-0.7324,-0.6937,-0.6543,-0.6352,-0.6021,-0.5618,-0.5154,-0.4939,-0.4758,-0.4384,-0.4034,-0.3681,-0.3075,-0.2522,-0.217,-0.1464,-0.0859,-0.0455,0.005,0.0505,0.0909,0.1313,0.1667,0.192,0.2171,0.2472,0.2775,0.3029,0.3331,0.3533,0.3781,0.4131,0.4533,0.4782,0.4782,0.4782,0.4782,0.4782,0.4782,0.4834,0.4885,0.5138,0.5388,0.5989,-3.0238,-2.9874,-2.9101,-2.871,-2.8525,-2.7864,-2.7468,-2.7374,-2.7196,-2.7102,-2.6987,-2.6611,-2.6368,-2.6245,-2.61,-2.5917,-2.5771,-2.5732,-2.5684,-2.5684,-2.5684,-2.5684,-2.5684,-2.5684,-2.5684,-2.5586,-2.5391,-2.5137,-2.4843,-2.4587,-2.4143,-2.3555,-2.3306,-2.3097,-2.2644,-2.2291,-2.1979,-2.1725,-2.142,-2.0901,-2.0344,-1.9835,-1.9205,-1.8632,-1.8115,-1.7582,-1.6995,-1.6617,-1.6358,-1.6099,-1.5885,-1.5885,-1.5731,-1.5363,-1.5148,-1.4713,-1.4018,-1.3478,-1.3093,-1.2327,-1.1837,-1.1345,-1.0363,-0.9816,-0.9651,-0.932,-0.8878,-0.8543,-0.8266,-0.7878,-0.766,-0.7326,-0.6882,-0.6439,-0.619,-0.5973,-0.5493,-0.5095,-0.4955,-0.4811,-0.4435,-0.4085,-0.363,-0.2975,-0.2522,-0.217,-0.1716,-0.1161,-0.0606,0.005,0.0657,0.096,0.1263,0.1617,0.1971,0.2222,0.2522,0.2775,0.3079,0.3481,0.3783,0.3932,0.4183,0.4634,0.4782,0.4782,0.4782,0.4782,0.4782,0.4782,0.4834,0.4885,0.5035,0.5336,0.5737,-2.948,-2.8935,-2.876,-2.832,-2.7655,-2.742,-2.705,-2.6543,-2.6494,-2.6316,-2.6345,-2.6563,-2.6597,-2.6736,-2.6245,-2.6052,-2.5965,-2.583,-2.5732,-2.5684,-2.5684,-2.5684,-2.5684,-2.5684,-2.5684,-2.5586,-2.543,-2.5186,-2.4932,-2.4637,-2.4143,-2.3506,-2.3406,-2.3147,-2.2644,-2.2232,-2.1928,-2.1674,-2.1318,-2.0858,-2.0344,-1.9828,-1.9361,-1.884,-1.837,-1.7635,-1.7047,-1.6723,-1.6358,-1.6099,-1.5885,-1.5885,-1.5731,-1.5357,-1.5095,-1.4773,-1.4072,-1.3586,-1.3039,-1.2387,-1.1896,-1.1514,-1.0582,-0.9816,-0.9596,-0.9268,-0.8937,-0.8771,-0.838,-0.7934,-0.766,-0.7379,-0.6935,-0.6383,-0.5982,-0.5661,-0.5213,-0.5086,-0.5016,-0.4714,-0.4388,-0.4137,-0.3883,-0.3228,-0.2522,-0.2119,-0.1515,-0.101,-0.0707,0.0,0.0758,0.101,0.1263,0.1617,0.197,0.2221,0.2472,0.2775,0.3078,0.3481,0.3732,0.3934,0.4234,0.4634,0.4782,0.4782,0.4782,0.4782,0.4782,0.4782,0.4782,0.4834,0.4985,0.5236,0.5586]},{"header":{"parameterUnit":"m.s-1","parameterCategory":1,"la1":31.0,"la2":29.5877,"lo1":-88.7671,"lo2":-86.6584,"dy":0.0162,"dx":0.0185,"nx":115,"ny":88,"refTime":"2023-05-06T00:00:00:Z","depth":0,"parameterNumber":3,"parameterNumberName":"V-component_of_WINDS"},"data":[0.0,0.0,0.0,0.0,0.0,0.0,0.0,0.0,0.0,0.0,0.0,0.0,0.0,0.0,0.0,0.0,0.0,0.0,0.0,0.0,0.0,0.0,0.0,0.0,0.0,0.0,0.0,0.0,0.0,0.0,0.0,0.0,0.0,0.0,0.0,0.0,0.0,0.0,0.0,0.0,0.0,0.0,0.0,0.0,0.0,0.0,0.0,0.0,0.0,0.0,0.0,0.0,0.0,0.0,0.0,0.0,0.0,0.0,0.0,0.0,0.0,0.0,0.0,0.0,0.0,0.0,0.0,0.0,0.0,0.0,0.0,0.0,0.0,0.0,0.0,0.0,0.0,0.0,0.0,0.0,0.0,0.0,0.0,0.0,0.0,0.0,0.0,0.0,0.0,0.0,0.0,0.0,0.0,0.0,0.0,0.0,0.0,0.0,0.0,0.0,0.0,0.0,0.0,0.0,0.0,0.0,0.0,0.0,0.0,0.0,0.0,0.0,0.0,0.0,0.0,0.0,0.0,0.0,0.0,0.0,0.0,0.0,0.0,0.0,0.0,0.0,0.0,0.0,0.0,0.0,0.0,0.0,0.0,0.0,0.0,0.0,0.0,0.0,0.0,0.0,0.0,0.0,0.0,0.0,0.0,0.0,0.0,0.0,0.0,0.0,0.0,0.0,0.0,0.0,0.0,0.0,0.0,0.0,0.0,0.0,0.0,0.0,0.0,0.0,0.0,0.0,0.0,0.0,0.0,0.0,0.0,0.0,0.0,0.0,0.0,0.0,0.0,0.0,0.0,0.0,0.0,0.0,0.0,0.0,0.0,0.0,0.0,0.0,0.0,0.0,0.0,0.0,0.0,0.0,0.0,0.0,0.0,0.0,0.0,0.0,0.0,0.0,0.0,0.0,0.0,0.0,0.0,0.0,0.0,0.0,0.0,0.0,0.0,0.0,0.0,0.0,0.0,0.0,0.0,0.0,0.0,0.0,0.0,0.0,0.0,0.0,0.0,0.0,0.0,0.0,0.0,0.0,0.0,0.0,0.0,0.0,0.0,0.0,0.0,0.0,0.0,0.0,0.0,0.0,0.0,0.0,0.0,0.0,0.0,0.0,0.0,0.0,0.0,0.0,0.0,0.0,0.0,0.0,0.0,0.0,0.0,0.0,0.0,0.0,0.0,0.0,0.0,0.0,0.0,0.0,0.0,0.0,0.0,0.0,0.0,0.0,0.0,0.0,0.0,0.0,0.0,0.0,0.0,0.0,0.0,0.0,0.0,0.0,0.0,0.0,0.0,0.0,0.0,0.0,0.0,0.0,0.0,0.0,0.0,0.0,0.0,0.0,0.0,0.0,0.0,0.0,0.0,0.0,0.0,0.0,0.0,0.0,0.0,0.0,0.0,0.0,0.0,0.0,0.0,0.0,0.0,0.0,0.0,0.0,0.0,0.0,0.0,0.0,0.0,0.0,0.0,0.0,0.0,0.0,0.0,0.0,0.0,0.0,0.0,0.0,0.0,0.0,0.0,0.0,0.0,0.0,0.0,0.0,0.0,0.0,0.0,0.0,0.0,0.0,0.0,0.0,0.0,0.0,0.0,0.0,0.0,0.0,0.0,0.0,0.0,0.0,0.0,0.0,0.0,0.0,0.0,0.0,0.0,0.0,0.0,0.0,0.0,0.0,0.0,0.0,0.0,0.0,0.0,0.0,0.0,0.0,0.0,0.0,0.0,0.0,0.0,0.0,0.0,0.0,0.0,0.0,0.0,0.0,0.0,0.0,0.0,0.0,0.0,0.0,0.0,0.0,0.0,0.0,0.0,0.0,0.0,0.0,0.0,0.0,0.0,0.0,0.0,0.0,0.0,0.0,0.0,0.0,0.0,0.0,0.0,0.0,0.0,0.0,0.0,0.0,0.0,0.0,0.0,0.0,0.0,0.0,0.0,0.0,0.0,0.0,0.0,0.0,0.0,0.0,0.0,0.0,0.0,0.0,0.0,0.0,0.0,0.0,0.0,0.0,0.0,0.0,0.0,0.0,0.0,0.0,0.0,0.0,0.0,0.0,0.0,0.0,0.0,0.0,0.0,0.0,0.0,0.0,0.0,0.0,0.0,0.0,0.0,0.0,0.0,0.0,0.0,0.0,0.0,0.0,0.0,0.0,0.0,0.0,0.0,0.0,0.0,0.0,0.0,0.0,0.0,0.0,0.0,0.0,0.0,0.0,0.0,0.0,0.0,0.0,0.0,0.0,0.0,0.0,0.0,0.0,0.0,0.0,0.0,0.0,0.0,0.0,0.0,0.0,0.0,0.0,0.0,0.0,0.0,0.0,0.0,0.0,0.0,0.0,0.0,0.0,0.0,0.0,0.0,0.0,0.0,0.0,0.0,0.0,0.0,0.0,0.0,0.0,0.0,0.0,0.0,0.0,0.0,0.0,0.0,0.0,0.0,0.0,0.0,0.0,0.0,0.0,0.0,0.0,0.0,0.0,0.0,0.0,0.0,0.0,0.0,0.0,0.0,0.0,0.0,0.0,0.0,0.0,0.0,0.0,0.0,0.0,0.0,0.0,0.0,0.0,0.0,0.0,0.0,0.0,0.0,0.0,0.0,0.0,0.0,0.0,0.0,0.0,0.0,0.0,0.0,0.0,0.0,0.0,0.0,0.0,0.0,0.0,0.0,0.0,0.0,0.0,0.0,0.0,0.0,0.0,0.0,0.0,0.0,0.0,0.0,0.0,0.0,0.0,0.0,0.0,0.0,0.0,0.0,0.0,0.0,0.0,0.0,0.0,0.0,0.0,0.0,0.0,0.0,0.0,0.0,0.0,0.0,0.0,0.0,0.0,0.0,0.0,0.0,0.0,0.0,0.0,0.0,0.0,0.0,0.0,0.0,0.0,0.0,0.0,0.0,0.0,0.0,0.0,0.0,0.0,0.0,0.0,0.0,0.0,0.0,0.0,0.0,0.0,0.0,0.0,0.0,0.0,0.0,0.0,0.0,0.0,0.0,0.0,0.0,0.0,0.0,0.0,0.0,0.0,0.0,0.0,0.0,0.0,0.0,0.0,0.0,0.0,0.0,0.0,0.0,0.0,0.0,0.0,0.0,0.0,0.0,0.0,0.0,0.0,0.0,0.0,0.0,0.0,0.0,0.0,0.0,0.0,0.0,0.0,0.0,0.0,0.0,0.0,0.0,0.0,0.0,0.0,0.0,0.0,0.0,0.0,0.0,0.0,0.0,0.0,0.0,0.0,0.0,0.0,0.0,0.0,0.0,0.0,0.0,0.0,0.0,0.0,0.0,0.0,0.0,0.0,0.0,0.0,0.0,0.0,0.0,0.0,0.0,0.0,0.0,0.0,0.0,0.0,0.0,0.0,0.0,0.0,0.0,0.0,0.0,0.0,0.0,0.0,0.0,0.0,0.0,0.0,0.0,0.0,0.0,0.0,0.0,0.0,0.0,0.0,0.0,0.0,0.0,0.0,0.0,0.0,0.0,0.0,0.0,0.0,0.0,0.0,0.0,0.0,0.0,0.0,0.0,0.0,0.0,0.0,0.0,0.0,0.0,0.0,0.0,0.0,0.0,0.0,0.0,0.0,0.0,0.0,0.0,0.0,0.0,0.0,0.0,0.0,0.0,0.0,0.0,0.0,0.0,0.0,0.0,0.0,0.0,0.0,0.0,0.0,0.0,0.0,0.0,0.0,0.0,0.0,0.0,0.0,0.0,0.0,0.0,0.0,0.0,0.0,0.0,0.0,0.0,0.0,0.0,0.0,0.0,0.0,0.0,0.0,0.0,0.0,0.0,0.0,0.0,0.0,0.0,0.0,0.0,0.0,0.0,0.0,0.0,0.0,0.0,0.0,0.0,0.0,0.0,0.0,0.0,0.0,0.0,0.0,0.0,0.0,0.0,0.0,0.0,0.0,0.0,0.0,0.0,0.0,0.0,0.0,0.0,0.0,0.0,0.0,0.0,0.0,0.0,0.0,0.0,0.0,0.0,0.0,0.0,0.0,0.0,0.0,0.0,0.0,0.0,0.0,0.0,0.0,0.0,0.0,0.0,0.0,0.0,0.0,0.0,0.0,0.0,0.0,0.0,0.0,0.0,0.0,0.0,0.0,0.0,0.0,0.0,0.0,0.0,0.0,0.0,0.0,0.0,0.0,0.0,0.0,0.0,0.0,0.0,0.0,0.0,0.0,0.0,0.0,0.0,0.0,0.0,0.0,0.0,0.0,0.0,0.0,0.0,0.0,0.0,0.0,0.0,0.0,0.0,0.0,0.0,0.0,1.9427,0.0,0.0,0.0,0.0,0.0,0.0,0.0,0.0,0.0,0.0,0.0,0.0,0.0,0.0,0.0,0.0,0.0,0.0,0.0,0.0,0.0,0.0,0.0,0.0,0.0,0.0,0.0,0.0,0.0,0.0,0.0,0.0,0.0,0.0,0.0,0.0,0.0,0.0,0.0,0.0,0.0,0.0,0.0,0.0,0.0,0.0,0.0,0.0,0.0,0.0,0.0,0.0,0.0,0.0,0.0,0.0,0.0,0.0,0.0,0.0,0.0,0.0,0.0,0.0,0.0,0.0,0.0,0.0,0.0,0.0,0.0,0.0,0.0,0.0,0.0,0.0,0.0,0.0,0.0,0.0,0.0,0.0,0.0,0.0,0.0,0.0,0.0,0.0,0.0,0.0,0.0,0.0,0.0,0.0,0.0,0.0,0.0,0.0,0.0,0.0,0.0,0.0,0.0,0.0,0.0,0.0,0.0,0.0,0.0,0.0,1.958,1.955,1.9515,1.9464,1.9416,0.0,0.0,0.0,0.0,0.0,0.0,0.0,0.0,0.0,0.0,0.0,0.0,0.0,0.0,0.0,0.0,0.0,0.0,0.0,0.0,0.0,0.0,0.0,0.0,0.0,0.0,0.0,0.0,0.0,0.0,0.0,0.0,0.0,0.0,0.0,0.0,0.0,0.0,0.0,0.0,0.0,0.0,0.0,0.0,0.0,0.0,0.0,0.0,0.0,0.0,0.0,0.0,0.0,0.0,0.0,0.0,0.0,0.0,0.0,0.0,0.0,0.0,0.0,0.0,0.0,0.0,0.0,0.0,0.0,0.0,0.0,0.0,0.0,0.0,0.0,0.0,0.0,0.0,0.0,0.0,0.0,0.0,0.0,0.0,0.0,0.0,0.0,0.0,0.0,0.0,0.0,0.0,0.0,0.0,0.0,0.0,0.0,0.0,0.0,0.0,0.0,0.0,0.0,0.0,0.0,0.0,0.0,0.0,0.0,0.0,0.0,0.0,1.9597,1.9453,1.9375,0.0,0.0,0.0,0.0,0.0,0.0,0.0,0.0,0.0,0.0,0.0,0.0,0.0,0.0,0.0,0.0,0.0,0.0,0.0,0.0,0.0,0.0,0.0,0.0,0.0,0.0,0.0,0.0,0.0,0.0,0.0,0.0,0.0,0.0,0.0,0.0,0.0,0.0,0.0,0.0,0.0,0.0,0.0,0.0,0.0,0.0,0.0,0.0,0.0,0.0,0.0,0.0,0.0,0.0,0.0,0.0,0.0,0.0,0.0,0.0,0.0,0.0,0.0,0.0,0.0,0.0,0.0,0.0,0.0,0.0,0.0,0.0,0.0,0.0,0.0,0.0,0.0,0.0,0.0,0.0,0.0,0.0,0.0,0.0,0.0,0.0,0.0,0.0,0.0,0.0,0.0,0.0,0.0,0.0,0.0,0.0,0.0,0.0,0.0,0.0,0.0,0.0,0.0,0.0,0.0,0.0,0.0,0.0,0.0,0.0,1.9914,2.0551,1.9897,0.0,1.9324,0.0,0.0,0.0,0.0,0.0,0.0,0.0,0.0,0.0,0.0,0.0,0.0,0.0,0.0,0.0,0.0,0.0,0.0,0.0,0.0,0.0,0.0,0.0,0.0,0.0,0.0,0.0,0.0,0.0,0.0,0.0,0.0,0.0,0.0,0.0,0.0,0.0,0.0,0.0,0.0,0.0,0.0,0.0,0.0,0.0,0.0,0.0,0.0,0.0,0.0,0.0,0.0,0.0,0.0,0.0,0.0,0.0,0.0,0.0,0.0,0.0,0.0,0.0,0.0,0.0,0.0,0.0,0.0,0.0,0.0,0.0,0.0,0.0,0.0,0.0,0.0,0.0,0.0,0.0,0.0,0.0,0.0,0.0,0.0,0.0,0.0,0.0,0.0,0.0,0.0,0.0,0.0,0.0,0.0,0.0,0.0,0.0,0.0,0.0,0.0,0.0,0.0,0.0,0.0,0.0,0.0,0.0,0.0,0.0,0.0,2.0448,2.0691,2.0297,2.0058,0.0,0.0,0.0,0.0,0.0,0.0,0.0,0.0,0.0,0.0,0.0,0.0,0.0,0.0,0.0,0.0,0.0,0.0,0.0,0.0,0.0,0.0,0.0,0.0,0.0,0.0,0.0,0.0,0.0,0.0,0.0,0.0,0.0,0.0,0.0,0.0,0.0,0.0,0.0,0.0,0.0,0.0,0.0,0.0,0.0,0.0,0.0,0.0,0.0,0.0,0.0,0.0,0.0,0.0,0.0,0.0,0.0,0.0,0.0,0.0,0.0,0.0,0.0,0.0,0.0,0.0,0.0,0.0,0.0,0.0,0.0,0.0,0.0,0.0,0.0,0.0,0.0,0.0,0.0,0.0,0.0,0.0,0.0,0.0,0.0,0.0,0.0,0.0,0.0,0.0,0.0,0.0,0.0,0.0,0.0,0.0,0.0,0.0,0.0,0.0,0.0,0.0,0.0,0.0,0.0,0.0,0.0,0.0,0.0,0.0,2.0429,2.0871,2.1031,2.113,2.0971,2.0533,0.0,0.0,0.0,0.0,0.0,0.0,0.0,0.0,0.0,0.0,0.0,0.0,0.0,0.0,0.0,0.0,0.0,0.0,0.0,0.0,0.0,0.0,0.0,0.0,0.0,0.0,0.0,0.0,0.0,0.0,0.0,0.0,0.0,0.0,0.0,0.0,0.0,0.0,0.0,0.0,0.0,0.0,0.0,0.0,0.0,0.0,0.0,0.0,0.0,0.0,0.0,0.0,0.0,0.0,0.0,0.0,0.0,0.0,0.0,0.0,0.0,0.0,0.0,0.0,0.0,0.0,0.0,0.0,0.0,0.0,0.0,0.0,0.0,0.0,0.0,0.0,0.0,0.0,0.0,0.0,0.0,0.0,0.0,0.0,0.0,0.0,0.0,0.0,0.0,0.0,0.0,0.0,0.0,0.0,0.0,0.0,0.0,0.0,0.0,0.0,0.0,0.0,0.0,0.0,0.0,0.0,0.0,0.0,1.973,2.0429,2.1139,2.1844,2.2527,2.2153,0.0,0.0,0.0,0.0,0.0,0.0,0.0,0.0,0.0,0.0,0.0,0.0,0.0,0.0,0.0,0.0,0.0,0.0,0.0,0.0,0.0,0.0,0.0,0.0,0.0,0.0,0.0,0.0,0.0,0.0,0.0,0.0,0.0,0.0,0.0,0.0,0.0,0.0,0.0,0.0,0.0,0.0,0.0,0.0,0.0,0.0,0.0,0.0,0.0,0.0,0.0,0.0,0.0,0.0,0.0,0.0,0.0,0.0,0.0,0.0,0.0,0.0,0.0,0.0,0.0,0.0,0.0,0.0,0.0,0.0,0.0,0.0,0.0,0.0,0.0,0.0,0.0,0.0,0.0,0.0,0.0,0.0,0.0,0.0,0.0,0.0,0.0,0.0,0.0,0.0,0.0,0.0,0.0,0.0,0.0,0.0,0.0,0.0,0.0,0.0,0.0,0.0,0.0,0.0,0.0,0.0,0.0,0.0,0.0,1.9769,2.0871,2.2126,2.3361,2.317,2.2464,0.0,0.0,0.0,0.0,0.0,0.0,0.0,0.0,0.0,0.0,0.0,0.0,0.0,0.0,0.0,0.0,0.0,0.0,0.0,0.0,0.0,0.0,0.0,0.0,0.0,0.0,0.0,0.0,0.0,0.0,0.0,0.0,0.0,0.0,0.0,0.0,0.0,0.0,0.0,0.0,0.0,0.0,0.0,0.0,0.0,0.0,0.0,0.0,0.0,0.0,0.0,0.0,0.0,0.0,0.0,0.0,0.0,0.0,0.0,0.0,0.0,0.0,0.0,0.0,0.0,0.0,0.0,0.0,0.0,0.0,0.0,0.0,0.0,0.0,0.0,0.0,0.0,0.0,0.0,0.0,0.0,0.0,0.0,0.0,0.0,0.0,0.0,0.0,0.0,0.0,0.0,0.0,0.0,0.0,0.0,0.0,0.0,0.0,0.0,0.0,0.0,0.0,0.0,0.0,0.0,0.0,0.0,0.0,0.0,2.0486,0.0,2.2952,2.4183,2.3722,2.2987,0.0,0.0,0.0,0.0,0.0,0.0,0.0,0.0,0.0,0.0,0.0,0.0,0.0,0.0,0.0,0.0,0.0,0.0,0.0,0.0,0.0,0.0,0.0,0.0,0.0,0.0,0.0,0.0,0.0,0.0,0.0,0.0,0.0,0.0,0.0,0.0,0.0,0.0,0.0,0.0,0.0,0.0,0.0,0.0,0.0,0.0,0.0,0.0,0.0,0.0,0.0,0.0,0.0,0.0,0.0,0.0,0.0,0.0,0.0,0.0,0.0,0.0,0.0,0.0,0.0,0.0,0.0,0.0,0.0,0.0,0.0,0.0,0.0,0.0,0.0,0.0,0.0,0.0,0.0,0.0,0.0,0.0,0.0,0.0,0.0,0.0,0.0,0.0,0.0,0.0,0.0,0.0,0.0,0.0,0.0,0.0,0.0,0.0,0.0,0.0,0.0,0.0,0.0,0.0,0.0,0.0,0.0,0.0,2.0678,2.207,2.2831,2.3581,2.4275,2.4247,2.3823,0.0,0.0,0.0,0.0,0.0,0.0,0.0,0.0,0.0,0.0,0.0,0.0,0.0,0.0,0.0,0.0,0.0,0.0,0.0,0.0,0.0,0.0,0.0,0.0,0.0,0.0,0.0,0.0,0.0,0.0,0.0,0.0,0.0,0.0,0.0,0.0,0.0,0.0,0.0,0.0,0.0,0.0,0.0,0.0,0.0,0.0,0.0,0.0,0.0,0.0,0.0,0.0,0.0,0.0,0.0,0.0,0.0,0.0,0.0,0.0,0.0,0.0,0.0,0.0,0.0,0.0,0.0,0.0,0.0,0.0,0.0,0.0,0.0,0.0,0.0,0.0,0.0,0.0,0.0,0.0,0.0,0.0,0.0,0.0,0.0,0.0,0.0,0.0,0.0,0.0,0.0,0.0,0.0,0.0,0.0,0.0,0.0,0.0,0.0,0.0,0.0,0.0,0.0,0.0,0.0,0.0,0.0,0.0,0.0,2.3817,2.3954,2.4376,2.5087,2.5105,2.4431,0.0,0.0,0.0,0.0,0.0,0.0,0.0,0.0,0.0,0.0,0.0,0.0,0.0,0.0,0.0,0.0,0.0,0.0,0.0,0.0,0.0,0.0,0.0,0.0,0.0,0.0,0.0,0.0,0.0,0.0,0.0,0.0,0.0,0.0,0.0,0.0,0.0,0.0,0.0,0.0,0.0,0.0,0.0,0.0,0.0,0.0,0.0,0.0,0.0,0.0,0.0,0.0,0.0,0.0,0.0,0.0,0.0,0.0,0.0,0.0,0.0,0.0,0.0,0.0,0.0,0.0,0.0,0.0,0.0,0.0,0.0,0.0,0.0,0.0,0.0,0.0,0.0,0.0,0.0,0.0,0.0,0.0,0.0,0.0,0.0,0.0,0.0,0.0,0.0,0.0,0.0,0.0,0.0,0.0,0.0,0.0,0.0,0.0,0.0,0.0,0.0,0.0,0.0,0.0,0.0,0.0,0.0,0.0,0.0,2.6329,2.5671,2.5514,2.5928,2.5658,2.5001,2.3942,0.0,0.0,0.0,0.0,0.0,0.0,0.0,0.0,0.0,0.0,0.0,0.0,0.0,0.0,0.0,0.0,0.0,0.0,0.0,0.0,0.0,0.0,0.0,0.0,0.0,0.0,0.0,0.0,0.0,0.0,0.0,0.0,0.0,0.0,0.0,0.0,0.0,0.0,0.0,0.0,0.0,0.0,0.0,0.0,0.0,0.0,0.0,0.0,0.0,0.0,0.0,0.0,0.0,0.0,0.0,0.0,0.0,0.0,0.0,0.0,0.0,0.0,0.0,0.0,0.0,0.0,0.0,0.0,0.0,0.0,0.0,0.0,0.0,0.0,0.0,0.0,0.0,0.0,0.0,0.0,0.0,0.0,0.0,0.0,0.0,0.0,0.0,0.0,0.0,0.0,0.0,0.0,0.0,0.0,0.0,0.0,0.0,0.0,0.0,0.0,0.0,0.0,0.0,0.0,0.0,0.0,0.0,0.0,2.9402,2.7889,2.7021,2.6851,2.6137,2.5608,0.0,0.0,0.0,0.0,0.0,0.0,0.0,0.0,0.0,0.0,0.0,0.0,0.0,0.0,0.0,0.0,0.0,0.0,0.0,0.0,0.0,0.0,0.0,0.0,0.0,0.0,0.0,0.0,0.0,0.0,0.0,0.0,0.0,0.0,0.0,0.0,0.0,0.0,0.0,0.0,0.0,0.0,0.0,0.0,0.0,0.0,0.0,0.0,0.0,0.0,0.0,0.0,0.0,0.0,0.0,0.0,0.0,0.0,0.0,0.0,0.0,0.0,0.0,0.0,0.0,0.0,0.0,0.0,0.0,0.0,0.0,0.0,0.0,0.0,0.0,0.0,0.0,0.0,0.0,0.0,0.0,0.0,0.0,0.0,0.0,0.0,0.0,0.0,0.0,0.0,0.0,0.0,0.0,0.0,0.0,0.0,0.0,0.0,0.0,0.0,0.0,0.0,0.0,0.0,0.0,0.0,0.0,0.0,0.0,3.0203,3.0331,2.978,2.8598,2.825,2.7247,0.0,0.0,0.0,0.0,0.0,0.0,0.0,0.0,0.0,0.0,0.0,0.0,0.0,0.0,0.0,0.0,0.0,0.0,0.0,0.0,0.0,0.0,0.0,0.0,0.0,0.0,0.0,0.0,0.0,0.0,0.0,0.0,0.0,0.0,0.0,0.0,0.0,0.0,0.0,0.0,0.0,0.0,0.0,0.0,0.0,0.0,0.0,0.0,0.0,0.0,0.0,0.0,0.0,0.0,0.0,0.0,0.0,0.0,0.0,0.0,0.0,0.0,0.0,0.0,0.0,0.0,0.0,0.0,0.0,0.0,0.0,0.0,0.0,0.0,0.0,0.0,0.0,0.0,0.0,0.0,0.0,0.0,0.0,0.0,0.0,0.0,0.0,0.0,0.0,0.0,0.0,0.0,0.0,0.0,0.0,0.0,0.0,0.0,0.0,0.0,0.0,0.0,0.0,0.0,0.0,0.0,0.0,0.0,2.9673,3.1533,3.1969,3.1676,3.0722,2.9623,2.8265,0.0,0.0,0.0,0.0,0.0,0.0,0.0,0.0,0.0,0.0,0.0,0.0,0.0,0.0,0.0,0.0,0.0,0.0,0.0,0.0,0.0,0.0,0.0,0.0,0.0,0.0,0.0,0.0,0.0,0.0,0.0,0.0,0.0,0.0,0.0,0.0,0.0,0.0,0.0,0.0,0.0,0.0,0.0,0.0,0.0,0.0,0.0,0.0,0.0,0.0,0.0,0.0,0.0,0.0,0.0,0.0,0.0,0.0,0.0,0.0,0.0,0.0,0.0,0.0,0.0,0.0,0.0,0.0,0.0,0.0,0.0,0.0,0.0,0.0,0.0,0.0,0.0,0.0,0.0,0.0,0.0,0.0,0.0,0.0,0.0,0.0,0.0,0.0,0.0,0.0,0.0,0.0,0.0,0.0,0.0,0.0,0.0,0.0,0.0,0.0,0.0,0.0,0.0,0.0,0.0,0.0,0.0,0.0,3.0697,3.308,3.3062,3.3025,3.2995,3.0664,2.8986,0.0,0.0,0.0,0.0,0.0,0.0,0.0,0.0,0.0,0.0,0.0,0.0,0.0,0.0,0.0,0.0,0.0,0.0,0.0,0.0,0.0,0.0,0.0,0.0,0.0,0.0,0.0,0.0,0.0,0.0,0.0,0.0,0.0,0.0,0.0,0.0,0.0,0.0,0.0,0.0,0.0,0.0,0.0,0.0,0.0,0.0,0.0,0.0,0.0,0.0,0.0,0.0,0.0,0.0,0.0,0.0,0.0,0.0,0.0,0.0,0.0,0.0,0.0,0.0,0.0,0.0,0.0,0.0,0.0,0.0,0.0,0.0,0.0,0.0,0.0,0.0,0.0,0.0,0.0,0.0,0.0,0.0,0.0,0.0,0.0,0.0,0.0,0.0,0.0,0.0,0.0,0.0,0.0,0.0,0.0,0.0,0.0,0.0,0.0,0.0,0.0,0.0,0.0,0.0,0.0,0.0,0.0,0.0,3.1755,3.4753,3.416,3.411,3.4801,3.2403,3.0404,0.0,0.0,0.0,0.0,0.0,0.0,0.0,0.0,0.0,0.0,0.0,0.0,0.0,0.0,0.0,0.0,0.0,0.0,0.0,0.0,0.0,0.0,0.0,0.0,0.0,0.0,0.0,0.0,0.0,0.0,0.0,0.0,0.0,0.0,0.0,0.0,0.0,0.0,0.0,0.0,0.0,0.0,0.0,0.0,0.0,0.0,0.0,0.0,2.0176,0.0,0.0,0.0,0.0,0.0,0.0,0.0,0.0,0.0,0.0,0.0,0.0,0.0,0.0,0.0,0.0,0.0,0.0,0.0,0.0,0.0,0.0,0.0,0.0,0.0,0.0,0.0,0.0,0.0,0.0,0.0,0.0,0.0,0.0,0.0,0.0,0.0,0.0,0.0,0.0,0.0,0.0,0.0,0.0,0.0,0.0,0.0,0.0,0.0,0.0,0.0,0.0,0.0,0.0,0.0,0.0,0.0,0.0,0.0,3.3216,3.5256,3.4905,3.4887,3.5238,3.2982,3.1117,0.0,0.0,0.0,0.0,0.0,0.0,0.0,0.0,0.0,0.0,0.0,0.0,0.0,0.0,0.0,0.0,0.0,0.0,0.0,0.0,0.0,0.0,0.0,0.0,0.0,0.0,0.0,0.0,0.0,0.0,0.0,0.0,0.0,0.0,0.0,0.0,0.0,0.0,0.0,0.0,0.0,0.0,0.0,0.0,0.0,0.0,0.0,0.0,0.0,0.0,0.0,0.0,0.0,0.0,0.0,0.0,0.0,0.0,0.0,0.0,0.0,0.0,0.0,0.0,0.0,0.0,0.0,0.0,0.0,0.0,0.0,0.0,0.0,0.0,0.0,0.0,0.0,0.0,0.0,0.0,0.0,0.0,0.0,0.0,0.0,0.0,0.0,0.0,0.0,0.0,0.0,0.0,0.0,0.0,0.0,0.0,0.0,0.0,0.0,0.0,0.0,0.0,0.0,0.0,0.0,0.0,0.0,3.29,3.4541,3.5412,3.5423,3.5404,3.5444,3.3104,3.1496,3.0772,0.0,0.0,0.0,0.0,0.0,0.0,0.0,0.0,0.0,0.0,0.0,0.0,0.0,0.0,0.0,0.0,0.0,0.0,0.0,0.0,0.0,0.0,0.0,0.0,0.0,0.0,0.0,0.0,0.0,0.0,0.0,0.0,0.0,0.0,0.0,0.0,0.0,0.0,1.9297,2.009,0.0,0.0,0.0,0.0,0.0,0.0,0.0,0.0,2.0617,0.0,0.0,0.0,0.0,0.0,0.0,0.0,0.0,0.0,0.0,0.0,0.0,0.0,0.0,0.0,0.0,0.0,0.0,0.0,0.0,0.0,0.0,0.0,0.0,0.0,0.0,0.0,0.0,0.0,0.0,0.0,0.0,0.0,0.0,0.0,0.0,0.0,0.0,0.0,0.0,0.0,0.0,0.0,0.0,0.0,0.0,0.0,0.0,0.0,0.0,0.0,0.0,0.0,0.0,0.0,0.0,3.0538,3.2779,3.4681,3.6155,3.5633,3.5642,3.6196,3.3364,3.1738,3.1496,0.0,0.0,0.0,0.0,0.0,0.0,0.0,0.0,0.0,0.0,0.0,0.0,0.0,0.0,0.0,0.0,0.0,0.0,0.0,0.0,0.0,0.0,0.0,0.0,0.0,0.0,0.0,0.0,0.0,0.0,0.0,0.0,0.0,0.0,0.0,0.0,0.0,0.0,0.0,2.0978,2.1485,0.0,0.0,0.0,0.0,0.0,0.0,0.0,0.0,2.2203,0.0,0.0,0.0,0.0,0.0,0.0,0.0,0.0,0.0,0.0,0.0,0.0,0.0,0.0,0.0,0.0,0.0,0.0,0.0,0.0,0.0,0.0,0.0,0.0,0.0,0.0,0.0,0.0,0.0,0.0,0.0,0.0,0.0,0.0,0.0,0.0,0.0,0.0,0.0,0.0,0.0,0.0,0.0,0.0,0.0,0.0,0.0,0.0,0.0,0.0,0.0,0.0,0.0,0.0,0.0,3.1139,3.3406,3.4967,3.5736,3.5459,3.5499,3.5794,3.3215,3.1823,0.0,0.0,0.0,0.0,0.0,0.0,0.0,0.0,0.0,0.0,0.0,0.0,0.0,0.0,0.0,0.0,0.0,0.0,0.0,0.0,0.0,0.0,0.0,0.0,0.0,0.0,0.0,0.0,0.0,0.0,0.0,0.0,0.0,0.0,0.0,0.0,0.0,0.0,0.0,0.0,2.1502,2.1896,2.2316,0.0,0.0,0.0,0.0,0.0,0.0,2.2894,2.2755,0.0,0.0,0.0,0.0,0.0,0.0,0.0,0.0,0.0,0.0,0.0,0.0,0.0,0.0,0.0,0.0,0.0,0.0,0.0,0.0,0.0,0.0,0.0,0.0,0.0,0.0,0.0,0.0,0.0,0.0,0.0,0.0,0.0,0.0,0.0,0.0,0.0,0.0,0.0,0.0,0.0,0.0,0.0,0.0,0.0,0.0,0.0,0.0,0.0,0.0,0.0,0.0,0.0,0.0,0.0,3.1675,3.3976,3.5156,3.517,3.5256,3.5309,3.5285,3.303,3.1835,0.0,0.0,0.0,0.0,0.0,0.0,0.0,0.0,0.0,0.0,0.0,0.0,0.0,0.0,0.0,0.0,0.0,0.0,0.0,0.0,0.0,0.0,0.0,0.0,0.0,0.0,0.0,0.0,0.0,0.0,0.0,0.0,0.0,0.0,0.0,0.0,0.0,0.0,0.0,0.0,0.0,2.2364,2.3142,2.3406,0.0,0.0,0.0,0.0,2.3419,2.3413,0.0,0.0,0.0,0.0,0.0,0.0,0.0,0.0,0.0,0.0,0.0,0.0,0.0,0.0,0.0,0.0,0.0,0.0,0.0,0.0,0.0,0.0,0.0,0.0,0.0,0.0,0.0,0.0,0.0,0.0,0.0,0.0,0.0,0.0,0.0,0.0,0.0,0.0,0.0,0.0,0.0,0.0,0.0,0.0,0.0,0.0,0.0,0.0,0.0,0.0,0.0,0.0,0.0,0.0,0.0,0.0,3.155,3.3834,3.5064,3.5119,3.5237,3.5341,3.5351,3.3066,3.1835,0.0,0.0,0.0,0.0,0.0,0.0,0.0,0.0,0.0,0.0,0.0,0.0,0.0,0.0,0.0,0.0,0.0,0.0,0.0,0.0,0.0,0.0,0.0,0.0,0.0,0.0,0.0,0.0,0.0,0.0,0.0,0.0,0.0,0.0,0.0,0.0,0.0,0.0,0.0,0.0,0.0,2.3242,2.4049,2.481,2.5302,0.0,0.0,2.5218,2.5198,2.5198,0.0,0.0,0.0,0.0,0.0,0.0,0.0,0.0,0.0,0.0,0.0,0.0,0.0,0.0,0.0,0.0,0.0,0.0,0.0,0.0,0.0,0.0,0.0,0.0,0.0,0.0,0.0,0.0,0.0,0.0,0.0,0.0,0.0,0.0,0.0,0.0,0.0,0.0,0.0,0.0,0.0,0.0,0.0,0.0,0.0,0.0,0.0,0.0,0.0,0.0,0.0,0.0,0.0,0.0,0.0,2.9954,3.1489,3.3356,3.4348,3.4415,3.4513,3.4596,3.466,3.2841,3.1897,0.0,0.0,0.0,0.0,0.0,0.0,0.0,0.0,0.0,0.0,0.0,0.0,0.0,0.0,0.0,0.0,0.0,0.0,0.0,0.0,0.0,0.0,0.0,0.0,0.0,0.0,0.0,0.0,0.0,0.0,0.0,0.0,0.0,0.0,0.0,0.0,0.0,0.0,0.0,0.0,0.0,0.0,2.4985,2.5814,0.0,0.0,0.0,2.6304,2.6281,0.0,0.0,0.0,0.0,0.0,0.0,0.0,0.0,0.0,0.0,0.0,0.0,0.0,0.0,0.0,0.0,0.0,0.0,0.0,0.0,0.0,0.0,0.0,0.0,0.0,0.0,0.0,0.0,0.0,0.0,0.0,0.0,0.0,0.0,0.0,0.0,0.0,0.0,0.0,0.0,0.0,0.0,0.0,0.0,0.0,0.0,0.0,0.0,0.0,0.0,0.0,0.0,0.0,0.0,0.0,0.0,0.0,3.1489,3.302,3.3855,3.3939,3.3972,3.4018,3.4087,3.2678,0.0,0.0,0.0,0.0,0.0,0.0,0.0,0.0,0.0,0.0,0.0,0.0,0.0,0.0,0.0,0.0,0.0,0.0,0.0,0.0,0.0,0.0,0.0,0.0,0.0,0.0,0.0,2.0599,0.0,0.0,0.0,0.0,0.0,0.0,0.0,0.0,0.0,0.0,0.0,0.0,0.0,0.0,2.4792,2.5867,2.6542,2.7002,0.0,0.0,2.714,2.692,2.6362,2.5856,0.0,0.0,0.0,0.0,0.0,0.0,0.0,0.0,0.0,0.0,0.0,0.0,0.0,0.0,0.0,0.0,0.0,0.0,0.0,0.0,0.0,0.0,0.0,0.0,0.0,0.0,0.0,0.0,0.0,0.0,0.0,0.0,0.0,0.0,0.0,0.0,0.0,0.0,0.0,0.0,0.0,0.0,0.0,0.0,0.0,0.0,0.0,0.0,0.0,0.0,0.0,0.0,0.0,0.0,3.0013,3.1489,3.309,3.3921,3.3998,3.3998,3.4061,3.416,3.2701,3.1949,0.0,0.0,0.0,0.0,0.0,0.0,0.0,0.0,0.0,0.0,0.0,0.0,0.0,0.0,0.0,0.0,0.0,0.0,0.0,0.0,0.0,0.0,0.0,0.0,0.0,0.0,0.0,0.0,0.0,0.0,0.0,0.0,0.0,0.0,0.0,0.0,0.0,0.0,0.0,0.0,0.0,2.5006,2.6671,2.696,2.7264,0.0,2.8106,2.784,2.7045,2.686,2.6522,2.5724,0.0,0.0,0.0,0.0,0.0,0.0,0.0,0.0,0.0,0.0,0.0,0.0,0.0,0.0,0.0,0.0,0.0,0.0,0.0,0.0,0.0,0.0,0.0,0.0,0.0,0.0,0.0,0.0,0.0,0.0,0.0,0.0,0.0,0.0,0.0,0.0,0.0,0.0,0.0,0.0,0.0,0.0,0.0,0.0,0.0,0.0,0.0,0.0,0.0,0.0,0.0,0.0,0.0,3.0035,3.1549,3.3631,3.4442,3.3989,3.4489,3.4604,3.4136,3.3208,3.2467,0.0,0.0,0.0,0.0,0.0,0.0,0.0,0.0,0.0,0.0,0.0,0.0,0.0,0.0,0.0,0.0,0.0,0.0,0.0,0.0,0.0,0.0,0.0,0.0,0.0,0.0,0.0,0.0,2.1855,2.1953,2.1445,0.0,0.0,0.0,0.0,0.0,0.0,0.0,0.0,0.0,0.0,2.6239,2.6919,2.7913,0.0,0.0,2.9044,2.8918,2.8552,2.763,2.6846,2.6459,2.5945,0.0,0.0,0.0,0.0,0.0,0.0,0.0,0.0,0.0,0.0,0.0,0.0,0.0,0.0,0.0,0.0,0.0,0.0,0.0,0.0,0.0,0.0,0.0,0.0,0.0,0.0,0.0,0.0,0.0,0.0,0.0,0.0,0.0,0.0,0.0,0.0,0.0,0.0,0.0,0.0,0.0,0.0,0.0,0.0,0.0,0.0,0.0,0.0,0.0,0.0,0.0,0.0,3.0398,3.1936,3.4105,3.4912,3.43,3.4956,3.504,3.4506,3.3625,3.2896,0.0,0.0,0.0,0.0,0.0,0.0,0.0,0.0,0.0,0.0,0.0,0.0,0.0,0.0,0.0,0.0,0.0,0.0,0.0,0.0,0.0,0.0,0.0,0.0,0.0,0.0,0.0,0.0,2.2536,2.2495,2.1929,0.0,0.0,0.0,0.0,0.0,0.0,0.0,0.0,0.0,0.0,2.7477,2.7728,2.8605,2.9284,2.949,2.9348,2.9206,2.9152,2.8131,2.7322,2.7283,0.0,0.0,0.0,0.0,0.0,0.0,0.0,0.0,0.0,0.0,0.0,0.0,0.0,0.0,0.0,0.0,0.0,0.0,0.0,0.0,0.0,0.0,0.0,0.0,0.0,0.0,0.0,2.5113,0.0,0.0,2.3013,0.0,0.0,0.0,0.0,0.0,0.0,0.0,0.0,0.0,0.0,0.0,0.0,0.0,0.0,0.0,0.0,0.0,0.0,0.0,0.0,0.0,0.0,3.1212,3.2761,3.44,3.5206,3.517,3.5256,3.5341,3.5314,3.3912,3.3131,3.3161,0.0,0.0,0.0,0.0,0.0,0.0,0.0,0.0,0.0,0.0,0.0,0.0,0.0,0.0,0.0,0.0,0.0,0.0,0.0,0.0,0.0,0.0,0.0,0.0,0.0,0.0,2.3116,2.2351,2.1882,0.0,0.0,0.0,0.0,0.0,0.0,0.0,0.0,0.0,0.0,2.7713,2.8591,2.9373,2.8862,2.8721,2.9501,2.8925,2.8387,2.8418,2.8285,2.8169,0.0,0.0,0.0,0.0,0.0,0.0,0.0,0.0,0.0,0.0,0.0,0.0,0.0,0.0,0.0,0.0,0.0,0.0,0.0,0.0,0.0,0.0,0.0,0.0,0.0,0.0,0.0,2.7573,2.7332,0.0,0.0,0.0,0.0,0.0,0.0,0.0,0.0,0.0,0.0,0.0,3.1248,3.1237,0.0,0.0,0.0,0.0,0.0,0.0,0.0,0.0,0.0,0.0,0.0,0.0,3.1456,3.3515,3.5165,3.5984,3.596,3.6527,3.6357,3.5373,3.4878,3.4218,3.3355,0.0,0.0,0.0,0.0,0.0,0.0,0.0,0.0,0.0,0.0,0.0,0.0,0.0,0.0,0.0,0.0,0.0,0.0,0.0,0.0,0.0,0.0,0.0,0.0,0.0,2.4197,0.0,0.0,0.0,0.0,0.0,0.0,0.0,0.0,0.0,0.0,0.0,2.6894,2.7754,2.8613,2.9277,2.9549,2.986,3.015,0.0,0.0,0.0,0.0,0.0,0.0,0.0,0.0,0.0,0.0,0.0,0.0,0.0,0.0,3.0636,2.893,2.8158,2.7751,2.7714,0.0,0.0,0.0,0.0,0.0,0.0,0.0,0.0,0.0,0.0,0.0,0.0,0.0,0.0,2.9883,0.0,2.917,0.0,0.0,0.0,0.0,0.0,0.0,0.0,0.0,3.3157,3.3847,3.4129,3.4076,3.397,0.0,3.2634,3.1297,0.0,0.0,0.0,0.0,0.0,0.0,0.0,0.0,3.2483,3.4283,3.5919,3.6765,3.674,3.729,3.7127,3.6163,3.5694,3.482,3.3395,3.1883,3.0736,0.0,0.0,0.0,0.0,0.0,0.0,0.0,0.0,0.0,0.0,0.0,0.0,0.0,0.0,0.0,0.0,0.0,0.0,0.0,0.0,0.0,0.0,0.0,2.5496,0.0,0.0,0.0,0.0,0.0,0.0,0.0,0.0,0.0,2.6601,2.7363,2.8105,2.8691,2.9492,3.0039,3.0039,0.0,0.0,0.0,0.0,0.0,0.0,0.0,3.0331,3.1433,3.111,3.0877,3.1381,3.1848,3.243,3.3274,0.0,0.0,3.0669,2.9921,2.9526,2.9493,2.9874,3.0223,3.0216,3.1024,3.1751,0.0,0.0,0.0,0.0,0.0,0.0,0.0,0.0,3.273,3.2814,0.0,3.2009,0.0,0.0,0.0,0.0,3.0762,3.2766,0.0,0.0,3.5414,3.6123,3.6803,3.6702,3.6419,3.5956,3.5182,3.4553,3.3939,3.0689,0.0,0.0,0.0,0.0,0.0,0.0,3.4225,3.5114,3.6652,3.7492,3.7529,3.7588,3.7661,3.7636,3.632,3.4899,3.3462,3.3424,3.2392,3.0091,3.0095,0.0,0.0,0.0,0.0,0.0,0.0,0.0,0.0,0.0,0.0,0.0,0.0,0.0,0.0,0.0,0.0,0.0,0.0,0.0,0.0,2.6435,0.0,0.0,0.0,0.0,0.0,0.0,0.0,0.0,0.0,0.0,2.8515,2.9141,2.9648,2.9687,0.0,0.0,0.0,0.0,2.9706,2.9723,2.8997,2.9086,3.0661,3.0912,3.1454,3.306,0.0,0.0,3.3197,3.312,3.3342,3.4096,3.3641,3.3013,3.3019,3.2767,3.2637,3.2647,3.2603,3.2726,3.2749,3.2783,3.2866,3.5683,0.0,0.0,0.0,0.0,3.4787,3.525,3.5537,3.5595,3.5634,3.5622,3.4303,0.0,0.0,0.0,0.0,0.0,0.0,3.5729,3.6923,3.761,3.8098,3.8303,3.8264,3.8164,3.8025,3.7396,3.7062,3.686,3.5633,3.3948,3.1949,0.0,0.0,0.0,0.0,3.5119,3.6567,3.7098,3.7692,3.8358,3.8374,3.8155,3.7696,3.6237,3.5311,3.5007,3.3987,3.2862,3.1654,3.062,0.0,0.0,0.0,0.0,0.0,0.0,0.0,0.0,0.0,0.0,0.0,0.0,0.0,0.0,0.0,0.0,0.0,0.0,0.0,2.7298,2.769,2.7807,0.0,0.0,0.0,0.0,0.0,0.0,0.0,0.0,0.0,3.1757,3.1113,3.0742,0.0,0.0,3.1601,3.0976,3.1172,3.1385,3.1382,3.1691,0.0,3.2578,3.266,3.2986,3.3997,3.4615,3.4961,3.4897,3.4863,3.491,3.5104,3.5412,3.5615,3.5493,3.4075,3.2978,3.2833,3.3218,3.3808,3.4369,3.4901,3.5477,3.9191,3.7489,3.7376,3.697,3.6526,3.7145,3.7442,3.7523,3.761,3.7672,3.7647,3.6701,3.6164,3.5892,3.4964,0.0,0.0,0.0,3.7652,3.9085,3.951,4.0007,4.0579,4.0597,4.0464,4.0197,3.9604,3.921,3.9,3.8532,3.7467,3.5823,0.0,0.0,3.5062,3.538,3.609,3.7195,3.7585,3.8049,3.8606,3.8686,3.8409,3.7714,3.653,3.5826,3.5657,3.4484,3.3496,3.2751,3.1595,3.0478,0.0,0.0,0.0,0.0,0.0,0.0,0.0,0.0,0.0,0.0,0.0,2.4144,2.4474,0.0,0.0,0.0,2.6899,2.753,2.8602,2.8677,0.0,0.0,0.0,0.0,0.0,0.0,0.0,3.1168,3.1617,3.2352,3.3706,3.3025,3.248,3.2656,3.2676,3.248,3.1953,0.0,3.2616,3.2612,3.3058,3.3519,3.3867,3.3891,3.4133,3.4893,3.5383,3.5669,3.561,3.5834,3.6061,3.6106,3.6663,3.7212,3.7219,3.5928,3.4882,3.4851,3.5189,3.5667,3.6151,3.6615,3.7076,4.1905,4.1804,4.0011,3.896,3.8566,3.8814,3.8923,3.8946,3.9153,3.9207,3.9229,3.9159,3.8712,3.7986,3.7895,0.0,3.8069,3.8712,3.9754,4.1191,4.1091,4.1843,4.3172,4.3189,4.2876,4.2247,4.1649,4.1121,4.0626,4.0039,3.9835,3.9984,3.8043,3.6676,3.6056,3.6823,3.7301,3.7398,3.825,3.864,3.8635,3.8735,3.8486,3.7806,3.7082,3.6374,3.5696,3.4988,3.422,3.3443,3.2826,3.1824,3.0369,0.0,0.0,0.0,0.0,0.0,0.0,0.0,0.0,0.0,0.0,0.0,0.0,0.0,0.0,0.0,2.9195,0.0,2.9699,2.9699,0.0,0.0,0.0,2.8806,2.9619,3.0461,3.133,3.2201,0.0,0.0,3.4694,3.4796,3.4508,3.3711,3.3555,3.3476,3.3418,3.3437,3.3496,3.3492,3.3569,3.3914,3.4671,3.4744,3.4923,3.5586,3.5799,3.5844,3.5831,3.6406,3.6871,3.6896,3.7555,3.8111,3.8084,3.8046,3.8173,3.802,3.7854,3.777,3.7838,3.7823,3.7875,4.2986,4.2691,4.2238,4.1825,4.1486,4.1664,4.1722,4.1739,4.1896,4.1953,4.1918,4.1447,4.0579,3.9366,3.8794,3.9175,4.025,4.0343,4.1212,4.2652,4.2679,4.2844,4.3189,4.3207,4.3111,4.2963,4.2853,4.2784,4.2742,4.2198,4.2009,4.2074,4.0697,3.9666,3.9066,3.9301,3.9517,3.9694,4.0065,4.0015,3.9575,3.9016,3.8658,3.8545,3.7825,3.7109,3.6458,3.5776,3.4802,3.3486,3.3345,3.29,3.1969,3.0653,0.0,0.0,0.0,0.0,0.0,0.0,0.0,0.0,0.0,2.783,2.864,0.0,2.957,0.0,3.1788,3.2296,3.2296,3.2277,0.0,0.0,3.2108,3.207,3.2287,3.2539,3.3039,3.3904,3.4222,3.4711,3.5584,3.569,3.5598,3.5387,3.4803,3.414,3.3535,3.3984,3.4394,3.4432,3.4918,3.5459,3.5599,3.5619,3.5629,3.5788,3.6289,3.6682,3.667,3.733,3.7836,3.7842,3.8444,3.8929,3.8996,3.9477,3.9842,3.9788,3.8839,3.8073,3.8648,3.8795,3.8941,4.3573,4.3478,4.3478,4.3468,4.3376,4.2839,4.2619,4.2619,4.2757,4.286,4.2877,4.2632,4.2109,4.1345,4.0931,4.1213,4.195,4.1954,4.2568,4.3672,4.3707,4.3862,4.4165,4.4182,4.4165,4.4165,4.3946,4.3898,4.3969,4.3453,4.3237,4.3414,4.2802,4.2157,4.15,4.0661,4.0292,4.0456,4.0687,4.0509,3.9918,3.946,3.9102,3.8807,3.8073,3.7382,3.6676,3.6013,3.5107,3.3958,3.3662,3.3365,3.3037,3.1905,3.1131,0.0,0.0,0.0,0.0,0.0,0.0,0.0,0.0,0.0,0.0,0.0,3.138,3.2353,3.288,3.3151,3.3151,3.3151,3.3156,3.3151,3.316,3.3318,3.372,3.3813,3.4179,3.5067,3.5215,3.5412,3.5896,3.5988,3.6017,3.6003,3.5599,3.5095,3.4706,3.5,3.5273,3.5311,3.57,3.6006,3.6006,3.5951,3.5885,3.5926,3.6513,3.7027,3.7045,3.7998,3.8742,3.873,3.9333,3.9868,3.9911,4.0177,4.0496,4.0373,3.975,3.9292,3.9593,3.9655,3.982,4.3805,4.4097,4.4097,4.4298,4.4513,4.3301,4.2768,4.2751,4.2909,4.3048,4.316,4.3261,4.3277,4.3277,4.3191,4.3191,4.3294,4.3294,4.3691,4.438,4.4397,4.4759,4.5353,4.538,4.5414,4.538,4.4854,4.4713,4.4829,4.4167,4.4003,4.436,4.4322,4.4045,4.35,4.1622,4.0706,4.0745,4.0887,4.0728,4.0212,3.9992,3.9598,3.8958,3.8239,3.7502,3.6758,3.621,3.5508,3.469,3.4049,3.3751,3.3826,3.3143,3.2504,0.0,3.1808,0.0,0.0,0.0,0.0,0.0,0.0,0.0,0.0,3.2933,3.3416,3.3436,3.3416,3.3436,3.3416,3.3436,3.3446,3.3447,3.3437,3.3747,3.4553,3.4675,3.4979,3.5813,3.5885,3.5889,3.5907,3.5964,3.5997,3.5989,3.596,3.5908,3.5954,3.5937,3.5937,3.6015,3.6012,3.6005,3.5999,3.5931,3.5883,3.597,3.6721,3.7223,3.7255,3.8554,3.9649,3.9651,4.0086,4.0537,4.0588,4.0539,4.0496,4.0496,4.0419,4.0369,4.0345,4.0294,4.0317,4.3805,4.4097,4.4097,4.4315,4.4581,4.4321,4.4202,4.4202,4.4351,4.447,4.4553,4.3998,4.3768,4.3733,4.3091,4.316,4.3768,4.3785,4.4179,4.4898,4.4971,4.511,4.5247,4.5344,4.5414,4.5397,4.5268,4.5373,4.5569,4.4846,4.4942,4.5771,4.4788,4.4536,4.4918,0.0,0.0,0.0,4.2049,4.1806,4.1792,4.0561,3.9824,3.9675,3.9039,0.0,3.7553,3.7522,3.6901,3.5567,3.539,0.0,0.0,0.0,0.0,0.0,0.0,0.0,0.0,0.0,0.0,0.0,3.5145,3.5367,3.4079,3.4717,3.5201,3.522,3.5201,3.5201,3.5201,3.5201,3.5226,3.5212,3.5208,3.5286,3.5476,3.5508,3.5624,3.5788,3.5849,3.5882,3.5889,3.5899,3.5953,3.598,3.6009,3.6017,3.6006,3.6012,3.6015,3.6016,3.6014,3.6007,3.601,3.5966,3.5899,3.6053,3.7183,3.8028,3.8204,3.9425,4.0492,4.0442,4.0552,4.0586,4.0595,4.0558,4.0496,4.0496,4.0496,4.05,4.0482,4.0432,4.0362,4.3805,4.4097,4.4097,4.4315,0.0,4.4598,4.4598,4.4615,4.4682,4.4776,4.4879,4.4602,4.4458,4.4414,4.4004,4.4055,4.4441,4.4431,4.4663,4.5005,4.5086,4.514,4.5203,4.5257,4.5327,4.5414,4.5414,4.5502,4.5675,4.5405,4.5556,4.608,4.5575,4.537,4.5351,4.4339,4.3579,4.3142,4.2777,4.2482,4.2269,4.1515,4.0689,3.9934,3.9632,0.0,0.0,0.0,0.0,0.0,0.0,0.0,0.0,3.5712,0.0,3.5723,3.5433,3.5308,3.5388,3.5782,3.6047,3.6151,3.7019,3.7177,3.6323,3.669,3.6942,3.6942,3.6942,3.6922,3.6942,3.6922,3.6767,3.6361,3.6295,3.6156,3.5785,3.5723,3.5775,3.5797,3.583,3.5864,3.5885,3.5883,3.5921,3.599,3.602,3.6012,3.6003,3.6011,3.6015,3.6015,3.6013,3.6007,3.6014,3.5974,3.5931,3.6103,3.7286,3.8252,3.8397,3.9723,4.0792,4.0757,4.0701,4.0647,4.0605,4.0569,4.0531,4.0496,4.0496,4.0489,4.0495,4.0438,4.0379,4.3776,4.4056,4.4114,4.4286,4.4525,4.4587,4.4598,4.4598,4.4598,0.0,0.0,4.4886,4.4923,4.4923,4.494,4.494,4.494,4.494,4.494,4.494,4.4951,4.5032,4.5123,4.5177,4.5274,4.5371,4.5397,4.5476,4.5607,4.5718,4.5846,4.6023,4.6301,4.6153,4.5524,4.4667,4.4032,4.3634,4.3342,4.2994,4.2508,4.2378,4.1662,4.0341,4.0182,3.9483,3.8172,3.8109,3.7785,3.7068,3.7144,3.7159,3.7107,3.7284,3.7421,3.7557,3.764,3.7747,3.7854,3.7886,3.7989,3.8204,3.8331,3.8337,3.822,3.8212,3.8212,3.8212,3.8212,3.8193,3.8212,3.8193,3.7903,3.7212,3.7129,3.685,3.6258,3.5979,3.5999,3.5975,3.5909,3.5807,3.5884,3.5882,3.5931,3.5975,3.599,3.6007,3.6003,3.6012,3.6015,3.6015,3.6013,3.6008,3.6018,3.6001,3.5981,3.5999,3.7173,3.8186,3.857,3.9612,4.0541,4.0792,4.0732,4.0681,4.0614,4.0591,4.058,4.0504,4.0496,4.0496,4.0489,4.0455,4.0379,4.3717,4.3927,4.4056,4.4184,4.4355,4.4514,4.4598,4.4598,4.4598,4.4598,4.4626,4.4654,4.4654,4.4654,4.4654,4.4654,4.4654,4.4654,4.4671,4.4654,4.4776,4.4831,4.4858,4.5086,4.5203,4.523,4.5344,4.5476,4.5607,4.5736,4.5871,4.6023,4.6374,4.6387,4.6093,4.5932,4.5658,4.5238,4.3926,4.3231,4.3314,4.2635,4.2213,4.1919,4.0756,4.0018,3.976,3.9221,3.8571,3.7888,3.7896,3.7704,3.7143,3.7268,3.7339,3.743,3.7604,3.7703,3.7721,3.783,3.8239,3.9013,3.9131,3.8896,3.8266,3.822,3.8212,3.8212,3.829,3.8212,3.8212,3.827,3.8257,3.8038,3.8019,3.7967,3.776,3.7202,3.6811,3.6802,3.6203,3.5836,3.5904,3.5907,3.5905,3.5911,3.5977,3.6022,3.6083,3.6012,3.6015,3.6016,3.6014,3.6011,3.6007,3.6013,3.5995,3.5981,3.6757,3.7657,3.8202,3.9149,4.0019,4.0671,4.0711,4.0688,4.0609,4.0598,4.0561,4.0523,4.0496,4.0496,4.0489,4.0436,4.0407,4.3717,4.3898,4.4056,4.4167,4.4338,4.4514,4.4598,4.4598,4.4598,4.4598,4.4598,4.4598,4.4598,4.4598,4.4598,4.4598,4.4598,4.4598,4.4598,4.4598,4.4654,4.4737,4.482,4.5005,4.514,4.5203,4.5327,4.545,4.5485,4.571,4.5838,4.5939,4.6374,4.6646,4.6707,4.6381,4.6238,4.6204,4.4673,4.3962,4.414,4.3351,4.2727,4.2323,4.1678,4.12,4.0772,4.0144,3.9635,3.9323,3.8912,3.8581,3.8378,3.843,3.8569,3.8691,3.8867,3.8985,3.905,3.9229,3.9488,3.9915,3.9976,3.9858,3.9528,3.9541,3.9567,3.9611,3.9591,3.9611,3.9591,3.9611,3.9437,3.8953,3.8895,3.8702,3.8276,3.7895,3.7641,3.758,3.6939,3.6473,3.6509,3.6165,3.5895,3.5906,3.5975,3.616,3.661,3.6714,3.6541,3.6152,3.6386,3.6442,3.6128,3.6019,3.6002,3.6007,3.6667,3.726,3.775,3.8661,3.9626,4.0081,4.0438,4.0674,4.0609,4.06,4.0564,4.0523,4.0496,4.0496,4.0481,4.0436,4.0379,4.3687,4.3852,4.4027,4.4229,4.4384,4.4542,4.4598,4.4598,4.4598,4.4598,4.4598,4.4598,4.4598,4.4598,4.4598,4.4598,4.4598,4.4598,4.4598,4.4598,4.4598,4.4654,4.4748,4.4896,4.5059,4.5167,4.5318,4.5414,4.5423,4.5684,4.5871,4.6023,4.6423,4.6842,4.7205,4.6723,4.6693,4.6949,4.5657,4.4857,4.4691,4.4085,4.3406,4.2652,4.2509,4.2181,4.1585,4.0997,4.0583,4.0397,3.9821,3.9461,3.9405,3.9477,3.9587,3.9751,3.9922,4.0068,4.0215,4.0379,4.0491,4.05,4.0531,4.0576,4.0607,4.0654,4.0707,4.0784,4.0719,4.0758,4.0719,4.0739,4.0526,3.9868,3.9791,3.9559,3.8914,3.8618,3.8495,3.8421,3.7785,3.7284,3.7253,3.6853,3.6566,3.659,3.6525,3.6863,3.7445,3.7726,3.7516,3.6992,3.7168,3.7225,3.6479,3.6316,3.6243,3.6087,3.6477,3.6896,3.7286,3.8392,3.934,3.964,4.03,4.0654,4.0622,4.0588,4.0559,4.0512,4.0496,4.0489,4.0476,4.0438,4.0381,4.3598,4.3687,4.3981,4.4286,4.4542,4.4598,4.4598,4.4598,4.4598,4.4598,4.4649,4.4598,4.4632,4.4598,4.4598,4.4598,4.4598,4.4598,4.4598,4.4598,4.4598,4.4615,4.4671,4.4869,4.5005,4.5059,4.5291,4.5414,4.5423,4.5684,4.6048,4.6477,4.6684,4.6939,4.7258,4.7335,4.7554,4.7864,4.7025,4.5953,4.4783,4.4654,4.4213,4.3404,4.282,4.2477,4.2366,4.1816,4.1159,4.049,4.0416,4.0076,3.9535,3.9477,3.9582,3.9731,3.99,4.007,4.028,4.037,4.046,4.0482,4.0519,4.0534,4.0581,4.0595,4.0668,4.0778,4.0797,4.0797,4.0797,4.0797,4.0758,4.0623,4.0603,4.0642,4.041,3.9849,3.9385,3.9391,3.8615,3.81,3.8161,3.8054,3.8062,3.7982,3.7949,3.8087,3.846,3.8995,3.9195,3.8573,3.8476,3.8123,3.7417,3.7179,3.6875,3.6267,3.6081,3.6448,3.7047,3.7817,3.8704,3.932,4.0239,4.0697,4.0642,4.0588,4.0586,4.0519,4.0489,4.0473,4.043,4.0415,4.0372,4.3615,4.3628,4.3952,4.4286,4.457,4.4598,4.4598,4.4632,4.506,4.5229,4.5297,4.5686,4.5415,4.4615,4.4598,4.4598,4.4598,4.4598,4.4598,4.4598,4.4598,4.4598,4.4643,4.4886,4.5022,4.5032,4.5274,4.5414,4.545,4.5667,4.6097,4.6566,4.6749,4.6962,4.7298,4.7511,4.7744,4.7992,4.776,4.7126,4.614,4.5168,4.4562,4.4194,4.3594,4.3271,4.3213,4.265,4.2166,4.1813,4.1396,4.1059,4.083,4.0411,4.0227,4.0417,4.0187,4.0109,4.0252,4.0344,4.0432,4.0502,4.0511,4.0527,4.0581,4.0588,4.0661,4.0778,4.0797,4.0797,4.0797,4.0797,4.0797,4.0797,4.0797,4.0797,4.0797,4.0487,4.0274,4.0216,3.9505,3.901,3.8984,3.8665,3.8466,3.8489,3.8534,3.8748,3.9261,3.9679,3.9936,4.0076,4.0117,3.9511,3.8413,3.806,3.7661,3.7038,3.6731,3.685,3.6621,3.7598,3.8537,3.8845,3.9964,4.0684,4.0635,4.0595,4.0586,4.0527,4.0489,4.0484,4.0424,4.0407,4.0391,4.3615,4.3658,4.3935,4.427,4.457,4.4598,4.4598,4.4699,4.5382,4.5703,4.5788,4.6481,4.621,4.5309,4.5207,4.5207,4.519,4.5004,4.4919,4.4857,4.4716,4.4598,4.4699,4.4869,4.5032,4.5086,4.5291,4.545,4.5511,4.571,4.6073,4.6542,4.6754,4.7007,4.7298,4.7593,4.7824,4.7992,4.813,4.7953,4.7314,4.6067,4.5131,4.4709,4.4331,4.4044,4.3804,4.3354,4.302,4.2797,4.224,4.1886,4.1787,4.1259,4.1057,4.1278,4.0997,4.0699,4.0559,4.068,4.0673,4.0504,4.0484,4.0527,4.0574,4.0588,4.0661,4.0784,4.0797,4.0797,4.0797,4.0797,4.0797,4.0797,4.0797,4.0797,4.0797,4.0797,4.0777,4.0739,4.0221,3.9882,3.9848,3.9518,3.9259,3.9304,3.929,3.9373,4.0041,4.0245,4.0444,4.0994,4.1113,4.0546,3.9273,3.8958,3.8562,3.7961,3.7593,3.7364,3.6791,3.7985,3.8735,3.9287,4.0174,4.0637,4.0649,4.0621,4.0586,4.0527,4.0489,4.0484,4.0405,4.0407,4.0363,4.3615,4.3658,4.3981,4.4286,4.4598,4.4598,4.4598,4.4666,4.5415,4.572,4.5838,4.6566,4.6786,4.6684,4.6701,4.6713,4.6566,4.594,4.5618,4.5534,4.4942,4.4671,4.4803,4.4923,4.5059,4.5194,4.5344,4.5528,4.5744,4.5795,4.6055,4.659,4.6842,4.7093,4.732,4.7696,4.7925,4.801,4.813,4.8209,4.8103,4.7369,4.6232,4.4947,4.4847,4.4543,4.3913,4.3892,4.3596,4.2853,4.2779,4.2482,4.1922,4.1801,4.1922,4.2157,4.2359,4.2089,4.1483,4.1465,4.1278,4.0596,4.0499,4.0527,4.0581,4.0588,4.0641,4.081,4.0797,4.0797,4.0797,4.0797,4.0797,4.0797,4.0797,4.0797,4.0797,4.0797,4.0797,4.0803,4.0692,4.061,4.0761,4.0872,4.0696,4.0698,4.0844,4.0892,4.0861,4.0968,4.103,4.1072,4.1093,4.0878,4.0054,3.9838,3.9421,3.8801,3.8454,3.8341,3.8684,3.9017,3.9295,3.965,4.031,4.0663,4.0668,4.064,4.0579,4.0527,4.0496,4.0476,4.0422,4.0415,4.0372,4.3717,4.3923,4.4039,4.4315,4.4598,4.4598,4.4598,4.4733,4.5872,4.6413,4.6616,4.7665,4.8206,4.8206,4.8206,4.7682,4.6836,4.6498,4.616,4.572,4.5415,4.5128,4.482,4.4923,4.5059,4.5203,4.5327,4.5537,4.577,4.5812,4.6073,4.6566,4.6865,4.7093,4.7341,4.7726,4.799,4.803,4.817,4.8286,4.8306,4.8012,4.715,4.5679,4.5213,4.4633,4.3886,4.3961,4.3875,4.3578,4.3578,4.3524,4.3388,4.3066,4.2667,4.2315,4.2462,4.2468,4.2186,4.1867,4.1585,4.1268,4.0768,4.0546,4.0593,4.0595,4.0661,4.0759,4.0797,4.0797,4.0797,4.0797,4.0797,4.0797,4.0797,4.0797,4.0797,4.0809,4.0802,4.0808,4.0823,4.0881,4.0888,4.095,4.0988,4.1007,4.1056,4.1092,4.1099,4.1106,4.1109,4.1152,4.1172,4.1093,4.0796,4.0677,4.04,3.9722,3.9277,3.8933,3.9009,3.9374,3.9673,3.9829,4.0408,4.0701,4.0713,4.064,4.0591,4.0519,4.0496,4.0492,4.0474,4.0432,4.037,4.3805,4.4068,4.4097,4.4286,4.457,4.4598,4.4598,4.4784,4.6143,4.6786,4.7073,4.8359,4.9018,4.9018,4.9018,4.8511,4.7547,4.7276,4.687,4.6397,4.5981,4.5575,4.525,4.5125,4.5123,4.5247,4.5371,4.5537,4.577,4.5812,4.608,4.659,4.6824,4.707,4.7323,4.7728,4.7972,4.8032,4.819,4.8324,4.8324,4.8324,4.761,4.6321,4.5653,4.489,4.3955,4.3958,4.4005,4.4005,4.4005,4.4082,4.4244,4.4016,4.3592,4.3114,4.3262,4.3246,4.3003,4.267,4.2257,4.1719,4.1231,4.0839,4.0631,4.0588,4.0648,4.0759,4.0797,4.0797,4.0797,4.0797,4.0797,4.0797,4.0803,4.0809,4.0809,4.08,4.0792,4.0848,4.0876,4.0902,4.0903,4.0978,4.0988,4.0987,4.1078,4.1111,4.1102,4.1108,4.1129,4.1172,4.1191,4.1152,4.1012,4.0931,4.0928,4.0388,4.0095,3.9715,3.9543,3.9867,4.0019,4.0142,4.034,4.061,4.0707,4.064,4.0583,4.0512,4.0489,4.05,4.0471,4.0441,4.0379,4.3805,4.4068,4.4097,4.4298,4.457,4.4598,4.4598,4.4852,4.6172,4.6786,4.6989,4.8342,4.9018,4.9018,4.9018,4.8951,4.8714,4.8173,4.7851,4.7614,4.6564,4.6056,4.5975,4.5507,4.5299,4.5388,4.5397,4.5554,4.5795,4.5838,4.6055,4.6542,4.6731,4.6985,4.7298,4.7627,4.7872,4.7994,4.819,4.8305,4.8324,4.8324,4.7629,4.6374,4.615,4.5408,4.3971,4.3958,4.4005,4.4005,4.4005,4.4101,4.43,4.4407,4.4557,4.4536,4.4769,4.4539,4.3934,4.3892,4.3178,4.2256,4.1735,4.1338,4.0875,4.0653,4.0641,4.0778,4.0797,4.0797,4.0797,4.0797,4.0797,4.0797,4.0796,4.0814,4.0806,4.0809,4.0818,4.0877,4.0888,4.0898,4.0907,4.0967,4.0991,4.1007,4.1059,4.1111,4.1102,4.1107,4.113,4.1172,4.1191,4.1172,4.113,4.1107,4.11,4.1013,4.0916,4.0684,4.0535,4.0676,4.0575,4.0632,4.0534,4.0765,4.0655,4.06,4.0571,4.0527,4.0512,4.0508,4.0487,4.0447,4.0415,4.3939,4.4097,4.4196,4.4384,4.457,4.4598,4.4598,4.4767,4.6189,4.6769,4.7056,4.8359,4.9018,4.9018,4.9018,4.9018,4.8984,4.8731,4.8392,4.7932,4.7526,4.689,4.6242,4.6014,4.5755,4.5466,4.5414,4.5554,4.5761,4.5812,4.608,4.6518,4.6731,4.6985,4.7298,4.7578,4.7824,4.7992,4.8149,4.8229,4.8305,4.8324,4.761,4.6374,4.6206,4.5499,4.4072,4.3989,4.4005,4.4005,4.4005,4.4101,4.43,4.4482,4.4651,4.4712,4.4852,4.4922,4.4703,4.427,4.3905,4.3273,4.2387,4.1723,4.1446,4.0935,4.0706,4.0784,4.0797,4.0797,4.0797,4.0797,4.0803,4.0802,4.0814,4.0812,4.0815,4.0837,4.0883,4.0888,4.0893,4.0898,4.0912,4.0948,4.0991,4.0987,4.1059,4.1111,4.1101,4.1107,4.1129,4.1172,4.1191,4.1191,4.113,4.1106,4.1102,4.1111,4.1111,4.1113,4.11,4.1049,4.0988,4.0915,4.0835,4.0759,4.0649,4.0581,4.0552,4.0515,4.0504,4.05,4.0492,4.0471,4.0413,4.3985,4.4097,4.4253,4.444,4.457,4.4598,4.4784,4.5145,4.6261,4.6938,4.7428,4.8477,4.9018,4.9018,4.9018,4.9018,4.9018,4.9018,4.8795,4.8382,4.8222,4.771,4.6988,4.6842,4.647,4.5949,4.5845,4.5831,4.5795,4.5838,4.603,4.6471,4.6661,4.6893,4.7232,4.7511,4.7744,4.799,4.8148,4.8246,4.8305,4.8324,4.7776,4.678,4.6372,4.5608,4.4565,4.4209,4.4005,4.402,4.4051,4.4177,4.43,4.4454,4.4605,4.4693,4.4815,4.4919,4.5015,4.4696,4.4343,4.403,4.3214,4.2379,4.199,4.1321,4.1066,4.0817,4.0797,4.0797,4.0797,4.0797,4.0815,4.0812,4.0798,4.0815,4.0833,4.0873,4.0888,4.0903,4.0888,4.0912,4.095,4.0952,4.1015,4.1033,4.1081,4.1111,4.11,4.1107,4.1131,4.1172,4.1191,4.1172,4.1113,4.1105,4.1102,4.1111,4.1111,4.11,4.1108,4.1042,4.0968,4.0893,4.0828,4.0742,4.0636,4.0602,4.0574,4.0549,4.0496,4.0489,4.05,4.0507,4.0458,4.3969,4.4097,4.4253,4.4423,4.457,4.4598,4.4976,4.572,4.6464,4.7192,4.7872,4.8663,4.9018,4.9018,4.9018,4.9018,4.9018,4.9001,4.9029,4.8961,4.8733,4.8389,4.8186,4.7733,4.7207,4.6724,4.6665,4.6385,4.6039,4.6004,4.6015,4.6398,4.6566,4.6819,4.7178,4.7381,4.7642,4.7972,4.811,4.8208,4.8305,4.8324,4.7997,4.7313,4.6593,4.5885,4.518,4.4432,4.4005,4.402,4.4177,4.4304,4.4314,4.443,4.457,4.4699,4.4745,4.4895,4.5068,4.5082,4.4885,4.4423,4.4106,4.3632,4.2464,4.2124,4.1696,4.1107,4.0984,4.0913,4.0855,4.0797,4.0802,4.0796,4.0812,4.0839,4.0878,4.0883,4.0883,4.0888,4.0888,4.0917,4.0978,4.0984,4.1022,4.1064,4.1106,4.1115,4.11,4.1108,4.113,4.1172,4.1191,4.1172,4.1129,4.1107,4.1103,4.1111,4.1111,4.11,4.1106,4.1039,4.098,4.0898,4.0812,4.0744,4.0662,4.0629,4.0593,4.0561,4.0531,4.0496,4.05,4.0495,4.0474,4.4085,4.4126,4.4384,4.4542,4.4598,4.4598,4.501,4.5754,4.6481,4.7225,4.797,4.8697,4.9018,4.9018,4.9018,4.9018,4.9018,4.9018,4.9063,4.9195,4.9257,4.9003,4.8598,4.804,4.762,4.7414,4.7407,4.7163,4.6734,4.663,4.6582,4.6416,4.656,4.6795,4.7174,4.7316,4.76,4.7951,4.805,4.8131,4.8286,4.8324,4.7997,4.7387,4.663,4.5922,4.5289,4.4469,4.4023,4.402,4.4192,4.4318,4.4314,4.4411,4.4551,4.4685,4.4719,4.4833,4.5026,4.5125,4.5082,4.5045,4.4557,4.4084,4.3797,4.3169,4.2539,4.1892,4.168,4.1448,4.099,4.0797,4.0808,4.0801,4.0839,4.0869,4.0903,4.0888,4.0888,4.0888,4.0888,4.0941,4.0963,4.0992,4.1022,4.1087,4.1111,4.1111,4.11,4.1108,4.1113,4.1172,4.1191,4.1152,4.113,4.1108,4.1103,4.1111,4.1113,4.1115,4.1095,4.1039,4.0988,4.0907,4.0833,4.0767,4.0687,4.0642,4.06,4.0554,4.0531,4.0496,4.0496,4.05,4.0471,4.4097,4.4126,4.4457,4.4598,4.4598,4.4598,4.5207,4.6109,4.6599,4.7411,4.8291,4.8798,4.9001,4.9018,4.9018,4.9018,4.9018,4.9063,4.9168,4.9367,4.959,4.9526,4.9258,4.8821,4.851,4.8172,4.8172,4.7872,4.7473,4.7152,4.6923,4.6829,4.6678,4.6766,4.702,4.7232,4.7496,4.7852,4.7972,4.8092,4.8287,4.8324,4.8236,4.7683,4.6833,4.5811,4.4846,4.4265,4.4005,4.4036,4.4177,4.4318,4.4314,4.4411,4.4551,4.4699,4.4712,4.4827,4.5026,4.5103,4.5175,4.5275,4.4921,4.463,4.4369,4.3914,4.3361,4.2644,4.255,4.2118,4.1454,4.1009,4.0831,4.0807,4.0859,4.0888,4.0888,4.0888,4.0888,4.0888,4.0917,4.0935,4.098,4.0984,4.102,4.1095,4.1115,4.1103,4.1103,4.1106,4.1133,4.1172,4.1191,4.1172,4.113,4.1108,4.1101,4.1109,4.1113,4.1113,4.1087,4.1036,4.0992,4.0917,4.0844,4.079,4.0718,4.0655,4.0607,4.0569,4.0519,4.0496,4.0496,4.0496,4.0468,4.4097,4.4126,4.444,4.4598,4.4598,4.4615,4.541,4.6599,4.6769,4.7614,4.8731,4.8984,4.9018,4.9018,4.9018,4.9018,4.9001,4.9107,4.932,4.9547,4.9801,4.9895,4.9844,4.9769,4.9413,4.9028,4.893,4.8661,4.8228,4.763,4.7334,4.7264,4.6912,4.6767,4.6906,4.7143,4.7475,4.777,4.7933,4.8092,4.8248,4.8287,4.8346,4.8255,4.7015,4.5549,4.4514,4.4005,4.4005,4.4005,4.4211,4.4285,4.4314,4.443,4.4551,4.4672,4.4725,4.4827,4.5038,4.5114,4.5175,4.5323,4.5391,4.5197,4.4726,4.4542,4.4203,4.3383,4.3394,4.3008,4.2247,4.1464,4.1106,4.107,4.1034,4.0903,4.0888,4.0888,4.0888,4.0888,4.095,4.0975,4.0976,4.099,4.1022,4.1083,4.1105,4.1108,4.1102,4.1108,4.1131,4.1191,4.1191,4.1172,4.113,4.1107,4.1099,4.1106,4.1109,4.1108,4.1075,4.1041,4.0988,4.0926,4.0859,4.0807,4.0736,4.0694,4.0621,4.0591,4.0561,4.0519,4.0496,4.0496,4.0484,4.4097,4.4126,4.4474,4.4598,4.4598,4.4615,4.5444,4.6735,4.6769,4.7614,4.8748,4.9001,4.9018,4.9018,4.9018,4.9018,4.9032,4.9138,4.935,4.9679,4.986,4.9964,5.0011,5.0011,4.9878,4.97,4.9735,4.9491,4.9072,4.8736,4.8295,4.7485,4.7452,4.7299,4.6913,4.7143,4.7428,4.7702,4.7909,4.8052,4.8208,4.8267,4.8364,4.8328,4.714,4.5665,4.4379,4.4005,4.4005,4.407,4.4177,4.4318,4.4329,4.443,4.457,4.4672,4.4712,4.4827,4.5045,4.5114,4.5194,4.5371,4.541,4.539,4.5402,4.5332,4.4959,4.4372,4.4242,4.3917,4.3118,4.2317,4.192,4.1729,4.1378,4.1043,4.0927,4.0907,4.0888,4.0917,4.0954,4.0995,4.0996,4.1013,4.1045,4.1091,4.1113,4.1112,4.1102,4.1109,4.1151,4.1191,4.1191,4.1172,4.1129,4.1104,4.1114,4.1101,4.1105,4.1103,4.1071,4.1022,4.0976,4.0935,4.0869,4.0823,4.0773,4.0713,4.0641,4.0626,4.0583,4.0554,4.0504,4.0496,4.0489,4.4097,4.4143,4.4457,4.4598,4.4598,4.4615,4.5258,4.621,4.665,4.7428,4.8409,4.8815,4.9001,4.9018,4.9018,4.9018,4.9063,4.9229,4.95,4.9801,4.9964,4.9964,5.0011,5.0011,5.0011,5.0011,4.9993,4.9889,4.9775,4.9416,4.8801,4.7959,4.7858,4.7357,4.6879,4.712,4.7385,4.7618,4.787,4.807,4.8187,4.8267,4.7868,4.7572,4.6783,4.5714,4.4191,4.4005,4.4005,4.4036,4.4211,4.4318,4.4348,4.444,4.4611,4.4685,4.4738,4.4865,4.5045,4.5114,4.5194,4.539,4.541,4.5466,4.5566,4.5651,4.5526,4.5156,4.5015,4.4813,4.3982,4.315,4.2761,4.2654,4.2338,4.2097,4.199,4.1432,4.0912,4.0945,4.0987,4.0996,4.1002,4.101,4.1064,4.1109,4.1103,4.1099,4.1106,4.1111,4.1151,4.1172,4.1191,4.1172,4.1133,4.1101,4.1108,4.1115,4.1098,4.11,4.1094,4.1052,4.0988,4.0952,4.0907,4.0839,4.079,4.0732,4.0668,4.0621,4.0579,4.0534,4.0531,4.0504,4.0489,4.4097,4.4126,4.4457,4.4598,4.4598,4.4598,4.501,4.5771,4.6346,4.709,4.7902,4.8595,4.8815,4.8984,4.9018,4.9001,4.9155,4.9337,4.9637,4.9935,4.9982,5.0011,5.0011,5.0011,5.0011,5.0011,5.0011,5.0097,5.0105,4.9764,4.9185,4.853,4.8194,4.7546,4.6938,4.7057,4.7345,4.7493,4.7811,4.8032,4.8168,4.821,4.7721,4.6926,4.6471,4.5809,4.4655,4.4321,4.4246,4.4225,4.4509,4.4659,4.4662,4.4538,4.4632,4.4699,4.4745,4.4902,4.5057,4.5114,4.5184,4.5381,4.541,4.5476,4.5586,4.5651,4.5634,4.5673,4.5595,4.5452,4.4813,4.4015,4.3607,4.3521,4.3505,4.3416,4.3209,4.2131,4.1616,4.125,4.1369,4.1412,4.1156,4.105,4.1083,4.1104,4.1115,4.1103,4.1109,4.1133,4.1152,4.1152,4.1172,4.1172,4.1113,4.1099,4.1104,4.1109,4.1113,4.1117,4.1097,4.1055,4.0995,4.0988,4.0945,4.0878,4.0832,4.0775,4.07,4.0615,4.0593,4.0564,4.0534,4.0504,4.0496,4.4097,4.4126,4.4457,4.4598,4.4598,4.4598,4.4993,4.5635,4.5838,4.6684,4.7787,4.8041,4.8494,4.8866,4.9018,4.9155,4.9337,4.9488,4.9683,4.9935,4.9964,5.0011,5.0011,5.0011,5.0011,5.0011,5.0011,5.0138,5.0331,5.0206,4.949,4.8741,4.8617,4.7999,4.7068,4.7035,4.732,4.7428,4.7749,4.7992,4.8072,4.8174,4.796,4.711,4.6714,4.6001,4.5379,4.5082,4.5082,4.5154,4.5854,4.6156,4.5974,4.5218,4.4845,4.4793,4.4776,4.4883,4.5049,4.5114,4.5216,4.5341,4.541,4.5467,4.5586,4.5651,4.5688,4.5712,4.5776,4.5729,4.5613,4.4821,4.4492,4.431,4.399,4.3629,4.3558,4.3297,4.2762,4.2324,4.2155,4.1852,4.1562,4.1298,4.1246,4.1205,4.11,4.1126,4.1131,4.1152,4.1191,4.1172,4.1152,4.1133,4.1113,4.1115,4.1104,4.1107,4.1111,4.11,4.11,4.1039,4.1015,4.0992,4.0958,4.0893,4.0848,4.0798,4.0725,4.0668,4.0628,4.0593,4.0549,4.0531,4.0496,4.4097,4.4126,4.4474,4.4598,4.4598,4.4598,4.4801,4.5145,4.5551,4.6312,4.7192,4.775,4.8325,4.8849,4.9018,4.9155,4.932,4.9488,4.9637,4.983,4.9935,5.0011,5.0011,5.0011,5.0011,5.0011,5.0011,5.0138,5.0387,5.038,4.9664,4.8846,4.8751,4.8123,4.7057,4.7025,4.7232,4.7385,4.7687,4.7933,4.8032,4.8267,4.8053,4.748,4.7141,4.6633,4.6069,4.5918,4.59,4.599,4.6366,4.6613,4.652,4.6244,4.5683,4.5415,4.506,4.4883,4.5049,4.5114,4.5184,4.537,4.541,4.5457,4.554,4.5616,4.5715,4.5769,4.5764,4.5807,4.5768,4.5414,4.5293,4.524,4.4876,4.4711,4.4743,4.4734,4.421,4.3519,4.3225,4.2774,4.2008,4.1759,4.1525,4.1345,4.1162,4.1129,4.1132,4.1172,4.1191,4.1172,4.1131,4.1126,4.1099,4.1111,4.1101,4.1105,4.1108,4.1117,4.1103,4.1065,4.1041,4.1015,4.0963,4.0907,4.0863,4.0821,4.0775,4.07,4.0655,4.0607,4.0576,4.0546,4.0523,4.4097,4.4126,4.4474,4.4598,4.4598,4.4598,4.4598,4.4733,4.5213,4.5855,4.6599,4.7192,4.7885,4.8629,4.8964,4.9077,4.9229,4.9381,4.9547,4.9725,4.986,4.9935,4.9982,5.0011,5.0011,5.0011,5.0011,5.0138,5.0302,5.0369,4.9647,4.8846,4.8725,4.8116,4.6997,4.6957,4.7143,4.7367,4.7627,4.7854,4.8092,4.8268,4.8237,4.7664,4.7623,4.7247,4.6793,4.6735,4.6735,4.6826,4.7022,4.7197,4.7199,4.7207,4.6961,4.6434,4.5608,4.5198,4.5045,4.5103,4.5181,4.5398,4.5409,4.5448,4.5522,4.5607,4.5712,4.5778,4.5807,4.5807,4.5807,4.5787,4.5783,4.5815,4.582,4.5852,4.5767,4.5677,4.5439,4.488,4.4392,4.3716,4.2947,4.2171,4.1933,4.1642,4.1458,4.1149,4.1152,4.1172,4.1191,4.1152,4.1129,4.1124,4.1116,4.1109,4.1117,4.11,4.1108,4.1114,4.1103,4.1107,4.1064,4.1023,4.0988,4.0958,4.0913,4.0867,4.0804,4.0757,4.0655,4.0609,4.0586,4.0561,4.0539,4.4097,4.4126,4.4474,4.4598,4.4598,4.4598,4.4598,4.4615,4.4733,4.5145,4.5923,4.6041,4.6836,4.7885,4.8663,4.8992,4.9118,4.9141,4.9325,4.9602,4.9725,4.986,4.9982,5.0011,5.0011,5.0011,5.0011,5.008,5.0235,5.0331,4.9662,4.8662,4.8475,4.8024,4.6814,4.6888,4.7098,4.7323,4.7627,4.7935,4.8209,4.8324,4.8328,4.8218,4.7884,4.7584,4.7537,4.7571,4.7571,4.7662,4.8343,4.8744,4.8786,4.8287,4.8119,4.7674,4.6868,4.5697,4.5334,4.5141,4.5181,4.5348,4.539,4.5429,4.5531,4.5627,4.5723,4.5807,4.5805,4.5807,4.5807,4.5807,4.5828,4.5861,4.5905,4.5922,4.5966,4.5982,4.5823,4.5847,4.5229,4.46,4.3908,4.3066,4.2321,4.2013,4.1713,4.1424,4.1172,4.1172,4.1172,4.1133,4.1127,4.1121,4.1114,4.1106,4.1133,4.1135,4.1125,4.1114,4.11,4.1104,4.1068,4.103,4.0996,4.0971,4.0917,4.0877,4.0851,4.0787,4.0694,4.0642,4.0621,4.0598,4.0585,4.401,4.4143,4.4474,4.4598,4.4598,4.4598,4.4598,4.4598,4.4598,4.5021,4.5602,4.5703,4.6312,4.7242,4.7665,4.8,4.8365,4.854,4.8886,4.9351,4.9521,4.9686,4.983,4.9935,5.0011,4.989,4.9993,4.9993,5.012,5.0111,4.9669,4.854,4.8467,4.8,4.6749,4.6795,4.703,4.7323,4.7687,4.8034,4.8229,4.8324,4.8401,4.8587,4.8218,4.8196,4.8281,4.8389,4.8389,4.8426,4.8867,4.903,4.9059,4.884,4.8631,4.8179,4.7778,4.6928,4.6007,4.5434,4.5287,4.5317,4.538,4.5467,4.5586,4.5671,4.5743,4.5807,4.5805,4.58,4.5807,4.5807,4.5854,4.5867,4.5899,4.5935,4.5969,4.5991,4.5973,4.6056,4.6065,4.5395,4.4832,4.4309,4.3374,4.2582,4.224,4.1892,4.1484,4.1152,4.1133,4.1113,4.1104,4.1117,4.1111,4.1103,4.1189,4.1193,4.1161,4.1151,4.1117,4.1101,4.1068,4.1034,4.0996,4.0963,4.0898,4.0893,4.0867,4.0809,4.075,4.07,4.0648,4.0656,4.0758,4.3939,4.4143,4.44,4.4542,4.4598,4.4598,4.4598,4.4598,4.4598,4.4891,4.5348,4.5602,4.6024,4.6498,4.6786,4.7225,4.7614,4.7734,4.8129,4.8575,4.8894,4.8985,4.8987,4.9206,4.9281,4.9459,4.9217,4.9235,4.9372,4.9455,4.9075,4.8277,4.8197,4.7668,4.6938,4.6708,4.6939,4.7385,4.777,4.8072,4.8247,4.8287,4.8401,4.8532,4.8605,4.8678,4.8856,4.8872,4.8853,4.8853,4.8853,4.8979,4.9081,4.9071,4.8958,4.8607,4.8323,4.7883,4.6948,4.6221,4.5551,4.5354,4.537,4.5457,4.5612,4.5687,4.5715,4.5765,4.5778,4.58,4.5807,4.5807,4.5827,4.588,4.5893,4.5943,4.5991,4.6,4.6002,4.6042,4.6071,4.6111,4.565,4.5448,4.4623,4.3403,4.2786,4.2399,4.207,4.1698,4.1832,4.1984,4.2037,4.2051,4.2007,4.186,4.1694,4.1445,4.1432,4.1265,4.1289,4.1163,4.1071,4.1038,4.1035,4.0948,4.0907,4.0908,4.0888,4.0837,4.0784,4.0732,4.0701,4.0781,4.1355,4.3805,4.4097,4.4253,4.444,4.4598,4.4598,4.4598,4.4598,4.4598,4.4649,4.4869,4.5314,4.5652,4.5889,4.6295,4.665,4.687,4.6883,4.714,4.7216,4.7219,4.7614,4.7826,4.7957,4.7939,4.8023,4.8189,4.8137,4.7952,4.8263,4.8174,4.8066,4.7778,4.7213,4.6814,4.6713,4.7007,4.7428,4.7829,4.8052,4.8189,4.8286,4.8382,4.8494,4.8569,4.866,4.8804,4.8856,4.889,4.889,4.889,4.8926,4.9049,4.9166,4.911,4.9049,4.8798,4.8442,4.7876,4.6984,4.6104,4.5583,4.5524,4.5764,4.5845,4.5756,4.5738,4.5743,4.5764,4.58,4.5807,4.5807,4.5821,4.5867,4.5893,4.5931,4.596,4.5994,4.5997,4.6012,4.6042,4.6098,4.6138,4.5842,4.5375,4.4198,4.3432,4.3025,4.3144,4.2926,4.3117,4.3268,4.3321,4.3374,4.3411,4.3166,4.2702,4.2395,4.2284,4.1883,4.1539,4.1393,4.137,4.1209,4.1225,4.1064,4.0921,4.0903,4.0883,4.0863,4.0851,4.0864,4.1281,4.1689,4.2506,4.3658,4.3985,4.4109,4.4327,4.4598,4.4598,4.4598,4.4598,4.4598,4.4598,4.4615,4.4891,4.501,4.5128,4.5246,4.5703,4.6058,4.6126,4.6421,4.6801,4.699,4.7089,4.7221,4.7323,4.7556,4.7526,4.761,4.7717,4.7734,4.737,4.7314,4.7326,4.722,4.7033,4.6808,4.6829,4.7187,4.745,4.7809,4.807,4.8187,4.8267,4.8363,4.8476,4.855,4.866,4.8787,4.8875,4.8891,4.889,4.889,4.8926,4.9015,4.9131,4.923,4.9324,4.9111,4.8966,4.8505,4.7726,4.7087,4.711,4.6981,4.6791,4.6462,4.6452,4.6155,4.5982,4.5815,4.5909,4.5826,4.5826,4.5814,4.5854,4.588,4.5912,4.5949,4.5964,4.5991,4.6007,4.6052,4.6099,4.6142,4.6141,4.564,4.5012,4.4286,4.3768,4.3945,4.4019,4.4112,4.4164,4.4177,4.4076,4.4075,4.3847,4.3612,4.3387,4.3159,4.2737,4.2296,4.1984,4.1919,4.1676,4.14,4.1224,4.1086,4.0951,4.0898,4.0873,4.0969,4.1073,4.1673,4.2456,4.3424,4.3509,4.3839,4.3952,4.4229,4.4497,4.457,4.4598,4.4598,4.4598,4.4598,4.4598,4.4598,4.4598,4.4598,4.4649,4.484,4.528,4.5415,4.5703,4.593,4.6106,4.6311,4.6425,4.6498,4.6546,4.6852,4.6962,4.6914,4.6837,4.6556,4.649,4.6552,4.6699,4.6582,4.6719,4.6944,4.7276,4.7472,4.7744,4.799,4.8128,4.8228,4.8305,4.8438,4.8532,4.8624,4.875,4.8821,4.8891,4.889,4.889,4.889,4.8978,4.9062,4.9181,4.9308,4.9423,4.9386,4.8842,4.8125,4.7781,4.7717,4.7835,4.7607,4.7442,4.733,4.7103,4.673,4.6445,4.6172,4.6148,4.6058,4.5865,4.584,4.5886,4.5919,4.5931,4.5947,4.5975,4.5997,4.6047,4.6114,4.6138,4.6164,4.6021,4.5661,4.5402,4.496,4.4959,4.4974,4.4892,4.4886,4.4859,4.4701,4.4543,4.4664,4.4704,4.4192,4.3961,4.3689,4.3309,4.2958,4.2675,4.2588,4.2213,4.1574,4.1304,4.1242,4.1073,4.0883,4.1163,4.1577,4.2357,4.3178,4.4033,4.3295,4.3628,4.3822,4.4056,4.431,4.4497,4.4587,4.4598,4.4598,4.4598,4.4598,4.4598,4.4598,4.4598,4.4598,4.4699,4.4733,4.4767,4.4835,4.4953,4.5117,4.4919,4.5031,4.5282,4.559,4.5331,4.5627,4.5836,4.5673,4.5717,4.5675,4.5814,4.6047,4.6195,4.6423,4.6801,4.7098,4.732,4.7593,4.7845,4.801,4.813,4.8265,4.8344,4.8495,4.8624,4.8678,4.8821,4.8891,4.889,4.889,4.889,4.8907,4.9096,4.9197,4.9211,4.951,4.9636,4.9561,4.8435,4.8167,4.8341,4.8593,4.8326,4.8183,4.8132,4.8069,4.7629,4.7388,4.7117,4.681,4.6399,4.6129,4.5969,4.6054,4.5912,4.5925,4.5935,4.5969,4.5991,4.6042,4.609,4.6119,4.6167,4.6223,4.6194,4.6245,4.6133,4.5896,4.5755,4.5555,4.553,4.5485,4.5482,4.5439,4.5792,4.5757,4.5206,4.4824,4.4627,4.4263,4.3838,4.3622,4.3514,4.2996,4.2341,4.1926,4.1587,4.1655,4.1781,4.1914,4.2354,4.3118,4.3887,4.4677,4.3037,4.3479,4.3628,4.3822,4.4039,4.4298,4.4485,4.457,4.4598,4.4598,4.4598,4.4598,4.4598,4.4598,4.4598,4.4598,4.4598,4.4598,4.4598,4.4598,4.4598,4.4615,4.4709,4.4831,4.4923,4.5059,4.5194,4.5344,4.5466,4.5414,4.5476,4.5632,4.5821,4.6097,4.6423,4.6754,4.7048,4.716,4.7464,4.7783,4.7891,4.807,4.8226,4.8287,4.8476,4.8587,4.8605,4.8804,4.8891,4.889,4.889,4.889,4.8943,4.9115,4.9197,4.926,4.951,4.9774,4.986,4.9473,4.946,4.9494,4.9494,4.9286,4.9096,4.9056,4.8812,4.8478,4.8183,4.7932,4.7823,4.7154,4.6793,4.6588,4.6473,4.6048,4.5905,4.596,4.5989,4.5991,4.6017,4.6075,4.6095,4.6148,4.6221,4.6266,4.63,4.6288,4.6112,4.6127,4.6046,4.6058,4.6072,4.6167,4.6277,4.624,4.6209,4.5755,4.566,4.5715,4.528,4.4715,4.4518,4.4374,4.3739,4.3123,4.2742,4.2481,4.2675,4.283,4.2934,4.3172,4.3847,4.4541,4.5245,4.2852,4.3237,4.3432,4.3674,4.3927,4.4126,4.4338,4.4468,4.457,4.4598,4.4598,4.4598,4.4598,4.4598,4.4598,4.4598,4.4598,4.4598,4.4598,4.4598,4.4598,4.4598,4.4654,4.472,4.4869,4.5005,4.5123,4.5274,4.5414,4.5414,4.5502,4.5684,4.5846,4.6048,4.635,4.6637,4.6911,4.707,4.7377,4.7618,4.7788,4.799,4.8149,4.8286,4.842,4.8587,4.8642,4.8768,4.8892,4.8891,4.889,4.889,4.896,4.9062,4.9197,4.9276,4.951,4.9788,4.9954,5.0025,5.0002,5.0243,5.0478,5.0294,4.9933,4.9904,4.9708,4.9376,4.8927,4.8821,4.8705,4.7997,4.7586,4.7374,4.6957,4.6552,4.6293,4.6362,4.6028,4.603,4.6012,4.6051,4.6095,4.6151,4.6216,4.6259,4.6294,4.6306,4.6289,4.6305,4.6301,4.6295,4.6287,4.6303,4.6275,4.624,4.6211,4.6209,4.6206,4.6199,4.6079,4.5475,4.5352,4.5157,4.4522,4.3955,4.3569,4.3408,4.3486,4.365,4.3837,4.4184,4.4645,4.5143,4.5681,4.2696,4.293,4.3267,4.3568,4.3868,4.4027,4.4184,4.4293,4.4514,4.457,4.4598,4.4598,4.4598,4.4598,4.4598,4.4598,4.4598,4.4598,4.4598,4.4598,4.4598,4.4598,4.4626,4.4737,4.4831,4.4978,4.5113,4.5203,4.5371,4.5414,4.5528,4.5736,4.5812,4.5998,4.6228,4.6495,4.6725,4.6934,4.7205,4.7468,4.766,4.7891,4.807,4.8228,4.84,4.8532,4.8624,4.8732,4.8821,4.8874,4.889,4.889,4.896,4.9098,4.9164,4.9292,4.9525,4.9774,4.9965,5.0038,5.0175,5.0371,5.0468,5.0544,5.0547,5.0442,5.0326,5.0188,4.9864,4.976,4.9587,4.9022,4.845,4.8104,4.768,4.7327,4.701,4.6711,4.6241,4.6069,4.6026,4.6042,4.6087,4.6141,4.6214,4.623,4.6267,4.6302,4.6289,4.6305,4.6301,4.6296,4.629,4.6303,4.6273,4.6243,4.6214,4.6206,4.6203,4.6199,4.6157,4.6114,4.5878,4.5566,4.5198,4.4807,4.4497,4.4287,4.4171,4.4388,4.4688,4.4816,4.5161,4.537,4.5761,4.2334,4.2728,4.3068,4.3312,4.3568,4.3822,4.4068,4.431,4.4384,4.444,4.4598,4.4598,4.4598,4.4598,4.4598,4.4598,4.4598,4.4598,4.4598,4.4598,4.4598,4.4598,4.4598,4.4654,4.4748,4.4858,4.5022,4.5123,4.5264,4.5344,4.5528,4.5744,4.5812,4.5947,4.6172,4.6392,4.6542,4.6778,4.707,4.7316,4.7575,4.7829,4.801,4.8207,4.838,4.8495,4.8605,4.8715,4.8804,4.8891,4.889,4.889,4.889,4.9047,4.9166,4.9337,4.957,4.9778,4.9925,5.0044,5.017,5.0314,5.0446,5.054,5.0613,5.0673,5.0712,5.0583,5.0531,5.0342,5.0198,4.9757,4.9405,4.9091,4.8578,4.7999,4.7624,4.7078,4.6602,4.6055,4.6012,4.6066,4.6111,4.6167,4.6214,4.6225,4.6243,4.6279,4.6288,4.6288,4.6302,4.6297,4.629,4.6302,4.6275,4.6245,4.6214,4.6203,4.62,4.6199,4.6196,4.6165,4.6146,4.5966,4.5609,4.5527,4.5502,4.5264,4.4948,4.5278,4.5578,4.557,4.5626,4.5744,4.5803,4.2077,4.2539,4.2805,4.3082,4.3402,4.3658,4.3939,4.4126,4.4236,4.4384,4.4485,4.457,4.4598,4.4598,4.4598,4.4598,4.4598,4.4598,4.4598,4.4598,4.4598,4.4598,4.4598,4.4598,4.4682,4.4793,4.4913,4.5005,4.5194,4.5344,4.5528,4.5787,4.5812,4.5972,4.6147,4.6277,4.6423,4.6661,4.6916,4.7205,4.7472,4.7747,4.7951,4.813,4.8305,4.8476,4.8605,4.8696,4.8767,4.8873,4.889,4.889,4.8907,4.9047,4.92,4.9352,4.957,4.9736,4.9857,4.9999,5.0126,5.0267,5.0424,5.05,5.0582,5.0643,5.0721,5.0717,5.0763,5.075,5.0626,5.05,5.0353,5.0194,4.9424,4.8677,4.8108,4.7523,4.6879,4.6221,4.6052,4.608,4.6131,4.618,4.6211,4.6223,4.6259,4.6279,4.6288,4.6288,4.6305,4.6301,4.6291,4.63,4.6273,4.6245,4.6214,4.6201,4.62,4.6203,4.6196,4.6201,4.6158,4.6108,4.6013,4.5934,4.5827,4.5885,4.5769,4.5982,4.5997,4.5872,4.5774,4.5816,4.5812,4.1851,4.2349,4.2523,4.2929,4.3372,4.3539,4.3704,4.3898,4.4155,4.4281,4.431,4.4485,4.4542,4.4542,4.457,4.4598,4.4598,4.4598,4.4598,4.4598,4.4598,4.4598,4.4598,4.4598,4.4671,4.4765,4.4858,4.4951,4.5194,4.5353,4.5528,4.5787,4.5812,4.5939,4.6172,4.6221,4.635,4.6596,4.6824,4.7053,4.7323,4.7624,4.7872,4.8032,4.819,4.8382,4.8532,4.8623,4.8678,4.882,4.889,4.889,4.896,4.9079,4.9211,4.9355,4.954,4.9673,4.9816,4.9978,5.0089,5.0243,5.0401,5.0478,5.0542,5.0633,5.0712,5.0794,5.0801,5.0844,5.0739,5.0724,5.0643,5.0576,5.0155,4.944,4.8812,4.7988,4.6923,4.6342,4.6061,4.6093,4.6115,4.6167,4.6206,4.6219,4.6261,4.63,4.6307,4.6289,4.6305,4.6301,4.6291,4.63,4.6273,4.6243,4.6211,4.6195,4.6196,4.6203,4.6196,4.6197,4.6169,4.6095,4.6032,4.6007,4.5963,4.5982,4.5982,4.5982,4.5991,4.5975,4.5935,4.5912,4.5833,4.1522,4.1866,4.2381,4.2914,4.3388,4.3432,4.3539,4.3687,4.391,4.4039,4.4155,4.4281,4.4412,4.4412,4.4542,4.457,4.4598,4.4598,4.4598,4.4598,4.4598,4.4598,4.4598,4.4598,4.4643,4.4671,4.4793,4.494,4.5167,4.5344,4.5528,4.5787,4.5812,4.5939,4.6189,4.6214,4.6368,4.659,4.6708,4.6962,4.7302,4.7557,4.7806,4.799,4.8151,4.8344,4.8495,4.8587,4.8713,4.8855,4.8873,4.889,4.889,4.9096,4.9179,4.9295,4.9529,4.9678,4.9774,4.9952,5.0095,5.0207,5.0325,5.0446,5.0542,5.0643,5.0721,5.0776,5.0819,5.0861,5.0874,5.089,5.0921,5.0889,5.0808,5.0164,4.9478,4.8241,4.7007,4.6508,4.6148,4.6093,4.6115,4.6134,4.6192,4.6225,4.627,4.6302,4.6307,4.6289,4.6305,4.6301,4.629,4.6298,4.6271,4.624,4.6209,4.6212,4.6213,4.6203,4.6196,4.617,4.6117,4.6056,4.6002,4.5982,4.5982,4.5982,4.5982,4.5982,4.5997,4.598,4.5953,4.5931,4.5847,4.1007,4.1638,4.2302,4.279,4.3068,4.3298,4.3449,4.3539,4.3704,4.3822,4.3894,4.408,4.4253,4.431,4.444,4.4542,4.457,4.4598,4.4598,4.4598,4.4598,4.4598,4.4598,4.4598,4.4598,4.4626,4.4765,4.4913,4.5113,4.5274,4.545,4.5761,4.5838,4.5922,4.6172,4.627,4.6392,4.6607,4.6637,4.6898,4.728,4.7511,4.7744,4.7931,4.8131,4.8325,4.8495,4.8587,4.8713,4.8838,4.889,4.889,4.8943,4.9096,4.9179,4.9292,4.9498,4.9711,4.9759,4.9912,5.0082,5.0182,5.0348,5.0489,5.0521,5.0604,5.0683,5.0739,5.0793,5.0816,5.0877,5.0901,5.0975,5.0988,5.0815,5.0403,4.931,4.8025,4.6987,4.624,4.6061,4.6113,4.6123,4.6148,4.6201,4.6219,4.6266,4.6301,4.6306,4.6289,4.6306,4.63,4.629,4.6298,4.6288,4.6258,4.6203,4.6206,4.6209,4.6189,4.6174,4.6115,4.6065,4.6027,4.5982,4.5982,4.5982,4.5982,4.5982,4.5982,4.5997,4.5991,4.5983,4.5955,4.588,4.031,4.1402,4.1949,4.2265,4.239,4.2804,4.3013,4.3072,4.3208,4.3267,4.3293,4.3639,4.3992,4.4224,4.431,4.444,4.4525,4.457,4.4598,4.4598,4.4598,4.4598,4.4598,4.4598,4.4598,4.4654,4.4765,4.4886,4.5049,4.5167,4.5406,4.5736,4.5863,4.5947,4.6172,4.6343,4.6471,4.659,4.6731,4.6944,4.7209,4.7446,4.7684,4.7911,4.813,4.8306,4.8495,4.8605,4.8713,4.882,4.889,4.889,4.896,4.9098,4.9164,4.9276,4.9498,4.9648,4.9731,4.9906,5.0025,5.0139,5.0371,5.05,5.0532,5.0594,5.0673,5.0711,5.0757,5.0819,5.0872,5.0921,5.0983,5.106,5.0875,5.0468,4.9167,4.7972,4.7143,4.6254,4.6056,4.6108,4.6127,4.6154,4.6201,4.6219,4.6257,4.6274,4.6305,4.6289,4.6304,4.6299,4.6291,4.63,4.6306,4.6255,4.6201,4.6206,4.6206,4.6158,4.6134,4.6102,4.608,4.6017,4.5982,4.5982,4.5982,4.5982,4.5982,4.5982,4.5997,4.5991,4.5975,4.5941,4.5893,3.9389,4.0008,4.0134,4.0446,4.0903,4.1037,4.1259,4.1564,4.1688,4.1708,4.2059,4.2614,4.319,4.3952,4.4224,4.4338,4.4412,4.4514,4.457,4.4598,4.4598,4.4598,4.4598,4.4598,4.4598,4.4654,4.472,4.4858,4.4978,4.514,4.5406,4.5761,4.5812,4.5922,4.6172,4.635,4.6495,4.6613,4.6778,4.6985,4.7209,4.7428,4.7621,4.7829,4.8012,4.8287,4.8476,4.8569,4.8713,4.882,4.889,4.889,4.896,4.9079,4.9181,4.9279,4.9483,4.9619,4.9745,4.9912,5.0031,5.012,5.0325,5.05,5.0542,5.0623,5.0683,5.0712,5.0758,5.081,5.0872,5.0893,5.0956,5.1067,5.1018,5.017,4.9079,4.8386,4.7725,4.6814,4.61,4.6123,4.6126,4.6157,4.6201,4.6221,4.6264,4.6278,4.6303,4.6289,4.6302,4.6297,4.6291,4.63,4.6286,4.6236,4.6203,4.6206,4.6187,4.6158,4.6138,4.6122,4.6075,4.6017,4.5982,4.5982,4.5982,4.5982,4.5982,4.5982,4.5982,4.5997,4.598,4.5953,4.5911]}]]